[[{"header":{"parameterUnit":"m.s-1","parameterCategory":1,"la1":30.6,"la2":29.2853,"lo1":-89.7004,"lo2":-87.6739,"dy":0.0162,"dx":0.0183,"nx":112,"ny":82,"refTime":"2024-05-08T12:00:00:Z","depth":0,"parameterNumber":2,"parameterNumberName":"U-component_of_WINDS"},"data":[0.0,0.0,0.0,0.0,0.0,0.0,0.0,0.0,0.0,0.0,0.0,0.0,0.0,0.0,0.0,0.0,0.0,0.0,0.0,0.0,0.0,0.0,0.0,0.0,0.0,0.0,0.0,0.0,0.0,0.0,0.0,0.0,0.0,0.0,0.0,0.0,0.0,0.0,0.0,0.0,0.0,0.0,0.0,0.0,0.0,0.0,0.0,0.0,0.0,0.0,0.0,0.0,0.0,0.0,0.0,0.0,0.0,0.0,0.0,0.0,0.0,0.0,0.0,0.0,0.0,0.0,0.0,0.0,0.0,0.0,0.0,0.0,0.0,0.0,0.0,0.0,0.0,0.0,0.0,0.0,0.0,0.0,0.0,0.0,0.0,0.0,0.0,0.0,0.0,0.0,-7.2646,-7.5066,-8.2393,-8.6797,-8.6054,-8.7187,-8.3711,-7.3906,0.0,0.0,0.0,0.0,0.0,0.0,0.0,0.0,0.0,0.0,0.0,0.0,0.0,0.0,0.0,0.0,0.0,0.0,0.0,0.0,0.0,0.0,0.0,0.0,0.0,0.0,0.0,0.0,0.0,0.0,0.0,0.0,0.0,0.0,0.0,0.0,0.0,0.0,0.0,0.0,0.0,0.0,0.0,0.0,0.0,0.0,0.0,0.0,0.0,0.0,0.0,0.0,0.0,0.0,0.0,0.0,0.0,0.0,0.0,0.0,0.0,0.0,0.0,0.0,0.0,0.0,0.0,0.0,0.0,0.0,0.0,0.0,0.0,0.0,0.0,0.0,0.0,0.0,0.0,0.0,0.0,0.0,0.0,0.0,0.0,0.0,0.0,0.0,0.0,0.0,0.0,0.0,0.0,0.0,0.0,0.0,0.0,0.0,0.0,0.0,0.0,0.0,0.0,0.0,-7.1412,-7.9886,-8.3501,-8.5234,-8.5117,-8.4648,-8.1211,-7.3789,0.0,0.0,0.0,0.0,0.0,0.0,0.0,0.0,0.0,0.0,0.0,0.0,0.0,0.0,0.0,0.0,0.0,0.0,0.0,0.0,0.0,0.0,0.0,0.0,0.0,0.0,0.0,0.0,0.0,0.0,0.0,0.0,0.0,0.0,0.0,0.0,0.0,0.0,0.0,0.0,0.0,0.0,0.0,0.0,0.0,0.0,0.0,0.0,0.0,0.0,0.0,0.0,0.0,0.0,0.0,0.0,0.0,0.0,0.0,0.0,0.0,0.0,0.0,0.0,0.0,0.0,0.0,0.0,0.0,0.0,0.0,0.0,0.0,0.0,0.0,0.0,0.0,0.0,0.0,0.0,0.0,0.0,0.0,0.0,0.0,0.0,0.0,0.0,0.0,0.0,0.0,0.0,0.0,0.0,0.0,0.0,0.0,0.0,0.0,0.0,0.0,0.0,0.0,-6.9532,-7.326,-8.1019,-8.3253,-8.3984,-8.3515,-8.3125,-7.9961,-7.3047,-7.2109,0.0,0.0,0.0,0.0,0.0,0.0,0.0,0.0,0.0,0.0,0.0,0.0,0.0,0.0,0.0,0.0,0.0,0.0,0.0,0.0,0.0,0.0,0.0,0.0,0.0,0.0,0.0,0.0,0.0,0.0,0.0,0.0,0.0,0.0,0.0,0.0,0.0,0.0,0.0,0.0,0.0,0.0,0.0,0.0,0.0,0.0,0.0,0.0,0.0,0.0,0.0,0.0,0.0,0.0,0.0,0.0,0.0,0.0,0.0,0.0,0.0,0.0,0.0,0.0,0.0,0.0,0.0,0.0,0.0,0.0,0.0,0.0,0.0,0.0,0.0,0.0,0.0,0.0,0.0,0.0,0.0,0.0,0.0,0.0,0.0,0.0,0.0,0.0,0.0,0.0,0.0,0.0,0.0,0.0,0.0,0.0,0.0,0.0,0.0,0.0,0.0,0.0,-7.2812,-7.5456,-8.0832,-8.2336,-8.2734,-8.2031,-8.125,-7.8203,-7.207,-6.9336,0.0,0.0,0.0,0.0,0.0,0.0,0.0,0.0,0.0,0.0,0.0,0.0,0.0,0.0,0.0,0.0,0.0,0.0,0.0,0.0,0.0,0.0,0.0,0.0,0.0,0.0,0.0,0.0,0.0,0.0,0.0,0.0,0.0,0.0,0.0,0.0,0.0,0.0,0.0,0.0,0.0,0.0,0.0,0.0,0.0,0.0,0.0,0.0,0.0,0.0,0.0,0.0,0.0,0.0,0.0,0.0,0.0,0.0,0.0,0.0,0.0,0.0,0.0,0.0,0.0,0.0,0.0,0.0,0.0,0.0,0.0,0.0,0.0,0.0,0.0,0.0,0.0,0.0,0.0,0.0,0.0,0.0,0.0,0.0,0.0,0.0,0.0,0.0,0.0,0.0,0.0,0.0,0.0,0.0,0.0,0.0,0.0,0.0,0.0,0.0,0.0,0.0,-7.1988,-7.6487,-8.01,-8.093,-8.1172,-8.1094,-7.8164,-7.4765,-7.1015,-6.6172,0.0,0.0,0.0,0.0,0.0,0.0,0.0,0.0,0.0,0.0,0.0,0.0,0.0,0.0,0.0,0.0,0.0,0.0,0.0,0.0,0.0,0.0,0.0,0.0,0.0,0.0,0.0,0.0,0.0,0.0,0.0,0.0,0.0,0.0,0.0,0.0,0.0,0.0,0.0,0.0,0.0,0.0,0.0,0.0,0.0,0.0,0.0,0.0,0.0,0.0,0.0,0.0,0.0,0.0,0.0,0.0,0.0,0.0,0.0,0.0,0.0,0.0,0.0,0.0,0.0,0.0,0.0,0.0,0.0,0.0,0.0,0.0,0.0,0.0,0.0,0.0,0.0,0.0,0.0,0.0,0.0,0.0,0.0,0.0,0.0,0.0,0.0,0.0,0.0,0.0,0.0,0.0,0.0,0.0,0.0,0.0,0.0,0.0,0.0,0.0,0.0,0.0,-7.0523,-7.4632,-7.9119,-7.9951,-8.0195,-8.0195,-7.7539,-7.418,-7.0156,0.0,0.0,0.0,0.0,0.0,0.0,0.0,0.0,0.0,0.0,0.0,0.0,0.0,0.0,0.0,0.0,0.0,0.0,0.0,0.0,0.0,0.0,0.0,0.0,0.0,0.0,0.0,0.0,0.0,0.0,0.0,0.0,0.0,0.0,0.0,0.0,0.0,0.0,0.0,0.0,0.0,0.0,0.0,0.0,0.0,0.0,0.0,0.0,0.0,0.0,0.0,0.0,0.0,0.0,0.0,0.0,0.0,0.0,0.0,0.0,0.0,0.0,0.0,0.0,0.0,0.0,0.0,0.0,0.0,0.0,0.0,0.0,0.0,0.0,0.0,0.0,0.0,0.0,0.0,0.0,0.0,0.0,0.0,0.0,0.0,0.0,0.0,0.0,0.0,0.0,0.0,0.0,0.0,0.0,0.0,0.0,0.0,0.0,0.0,0.0,0.0,0.0,-6.5818,-6.9359,-7.3153,-7.7446,-7.8233,-7.8476,-7.8476,-7.539,-7.207,-6.8828,0.0,0.0,0.0,0.0,0.0,0.0,0.0,0.0,0.0,0.0,0.0,0.0,0.0,0.0,0.0,0.0,0.0,0.0,0.0,0.0,0.0,0.0,0.0,0.0,0.0,0.0,0.0,0.0,0.0,0.0,0.0,0.0,0.0,0.0,0.0,0.0,0.0,0.0,0.0,0.0,0.0,0.0,0.0,0.0,0.0,0.0,0.0,0.0,0.0,0.0,0.0,0.0,0.0,0.0,0.0,0.0,0.0,0.0,0.0,0.0,0.0,0.0,0.0,0.0,0.0,0.0,0.0,0.0,0.0,0.0,0.0,0.0,0.0,0.0,0.0,0.0,0.0,0.0,0.0,0.0,0.0,0.0,0.0,0.0,0.0,0.0,0.0,0.0,0.0,0.0,0.0,0.0,0.0,0.0,0.0,0.0,0.0,0.0,0.0,0.0,0.0,0.0,-6.4431,-6.8614,-7.2478,-7.504,-7.566,-7.5859,-7.5859,-7.1172,-6.7812,0.0,0.0,0.0,0.0,0.0,0.0,0.0,0.0,0.0,0.0,0.0,0.0,0.0,0.0,0.0,0.0,0.0,0.0,0.0,0.0,0.0,0.0,0.0,0.0,0.0,0.0,0.0,0.0,0.0,0.0,0.0,0.0,0.0,0.0,0.0,0.0,0.0,0.0,0.0,0.0,0.0,0.0,0.0,0.0,0.0,0.0,0.0,0.0,0.0,0.0,0.0,0.0,0.0,0.0,0.0,0.0,0.0,0.0,0.0,0.0,0.0,0.0,0.0,0.0,0.0,0.0,0.0,0.0,0.0,0.0,0.0,0.0,0.0,0.0,0.0,0.0,0.0,0.0,0.0,0.0,0.0,0.0,0.0,0.0,0.0,0.0,0.0,0.0,0.0,0.0,0.0,0.0,0.0,0.0,0.0,0.0,0.0,0.0,0.0,0.0,0.0,0.0,0.0,-6.4542,-6.821,-7.1626,-7.4324,-7.4277,-7.4062,-7.4062,-7.0469,-6.7305,-6.5195,0.0,0.0,0.0,0.0,0.0,0.0,0.0,0.0,0.0,0.0,0.0,0.0,0.0,0.0,0.0,0.0,0.0,0.0,0.0,0.0,0.0,0.0,0.0,0.0,0.0,0.0,0.0,0.0,0.0,0.0,0.0,0.0,0.0,0.0,0.0,0.0,0.0,0.0,0.0,0.0,0.0,0.0,0.0,0.0,0.0,0.0,0.0,0.0,0.0,0.0,0.0,0.0,0.0,0.0,0.0,0.0,0.0,0.0,0.0,0.0,0.0,0.0,0.0,0.0,0.0,0.0,0.0,0.0,0.0,0.0,0.0,0.0,0.0,0.0,0.0,0.0,0.0,0.0,0.0,0.0,0.0,0.0,0.0,0.0,0.0,0.0,0.0,0.0,0.0,0.0,0.0,0.0,0.0,0.0,0.0,0.0,0.0,0.0,0.0,0.0,0.0,0.0,-6.3615,-6.6711,-6.9674,-7.1995,-7.1981,-7.1758,-7.1758,-6.8945,-6.6015,-6.3354,0.0,0.0,0.0,0.0,0.0,0.0,0.0,0.0,0.0,0.0,0.0,0.0,0.0,0.0,0.0,0.0,0.0,0.0,0.0,0.0,0.0,0.0,0.0,0.0,0.0,0.0,0.0,0.0,0.0,0.0,0.0,0.0,0.0,0.0,0.0,0.0,0.0,0.0,0.0,0.0,0.0,0.0,0.0,0.0,0.0,0.0,0.0,0.0,0.0,0.0,0.0,0.0,0.0,0.0,0.0,0.0,0.0,0.0,0.0,0.0,0.0,0.0,0.0,0.0,0.0,0.0,0.0,0.0,0.0,0.0,0.0,0.0,0.0,0.0,0.0,0.0,0.0,0.0,0.0,0.0,0.0,0.0,0.0,0.0,0.0,0.0,0.0,0.0,0.0,0.0,0.0,0.0,0.0,0.0,0.0,0.0,0.0,0.0,0.0,0.0,0.0,0.0,-6.2036,-6.4699,-6.7127,-6.8808,-6.9092,-6.9101,-6.9062,-6.6797,-6.4216,-6.1564,0.0,0.0,0.0,0.0,0.0,0.0,0.0,0.0,0.0,0.0,0.0,0.0,0.0,0.0,0.0,0.0,0.0,0.0,0.0,0.0,0.0,0.0,0.0,0.0,0.0,0.0,0.0,0.0,0.0,0.0,0.0,0.0,0.0,0.0,0.0,0.0,0.0,0.0,0.0,0.0,0.0,0.0,0.0,0.0,0.0,0.0,0.0,0.0,0.0,0.0,0.0,0.0,0.0,0.0,0.0,0.0,0.0,0.0,0.0,0.0,-6.4584,-6.4809,0.0,0.0,0.0,0.0,0.0,0.0,0.0,0.0,0.0,0.0,0.0,0.0,0.0,0.0,0.0,0.0,0.0,0.0,0.0,0.0,0.0,0.0,0.0,0.0,0.0,0.0,0.0,0.0,0.0,0.0,0.0,0.0,0.0,0.0,0.0,0.0,0.0,0.0,0.0,0.0,-6.1412,-6.39,-6.6053,-6.7261,-6.6835,-6.6445,-6.6406,-6.4648,-6.2652,-6.062,-5.8911,0.0,0.0,0.0,0.0,0.0,0.0,0.0,0.0,0.0,0.0,0.0,0.0,0.0,0.0,0.0,0.0,0.0,0.0,0.0,0.0,0.0,0.0,0.0,0.0,0.0,0.0,0.0,0.0,0.0,0.0,0.0,0.0,0.0,0.0,0.0,0.0,0.0,0.0,0.0,0.0,0.0,0.0,0.0,0.0,0.0,0.0,0.0,0.0,0.0,0.0,0.0,0.0,0.0,0.0,0.0,0.0,0.0,0.0,0.0,-6.5654,-6.5445,0.0,0.0,0.0,0.0,0.0,0.0,0.0,0.0,0.0,0.0,0.0,0.0,0.0,0.0,0.0,0.0,0.0,0.0,0.0,0.0,0.0,0.0,0.0,0.0,0.0,0.0,0.0,0.0,0.0,0.0,0.0,0.0,0.0,0.0,0.0,0.0,0.0,0.0,0.0,0.0,-6.0604,-6.2743,-6.456,-6.5547,-6.5234,-6.4961,-6.4961,-6.3706,-6.2117,-6.0208,-5.8484,0.0,0.0,0.0,0.0,0.0,0.0,0.0,0.0,0.0,0.0,0.0,0.0,0.0,0.0,0.0,0.0,0.0,0.0,0.0,0.0,0.0,0.0,0.0,0.0,0.0,0.0,0.0,0.0,0.0,0.0,0.0,0.0,0.0,0.0,0.0,0.0,0.0,0.0,0.0,0.0,0.0,0.0,0.0,0.0,0.0,0.0,0.0,0.0,0.0,0.0,0.0,0.0,0.0,-6.8013,-6.8436,-6.8859,-6.9013,-6.9052,-6.9001,-6.789,-6.7145,-6.6645,-6.5826,0.0,0.0,0.0,0.0,0.0,0.0,0.0,0.0,0.0,0.0,0.0,0.0,0.0,0.0,0.0,0.0,0.0,0.0,0.0,0.0,0.0,0.0,-6.2708,-6.2704,-6.2829,-6.2395,-6.0266,0.0,0.0,0.0,0.0,0.0,0.0,0.0,0.0,0.0,0.0,0.0,-5.9677,-6.1473,-6.3005,-6.3704,-6.3781,-6.3781,-6.3781,-6.3003,-6.1798,-6.0077,-5.8348,-5.6673,0.0,0.0,0.0,0.0,0.0,0.0,0.0,0.0,0.0,0.0,0.0,0.0,0.0,0.0,0.0,0.0,0.0,0.0,0.0,0.0,0.0,0.0,0.0,0.0,0.0,0.0,0.0,0.0,0.0,0.0,0.0,0.0,-6.5086,-6.4574,0.0,0.0,0.0,0.0,0.0,0.0,0.0,0.0,0.0,0.0,0.0,0.0,0.0,-6.8013,-6.7898,-7.0206,-7.0706,-6.9398,-7.1591,-7.1937,-7.0591,-7.136,-7.1706,-7.1681,-7.1492,0.0,-6.821,-6.6754,0.0,0.0,0.0,0.0,0.0,0.0,0.0,0.0,0.0,0.0,0.0,0.0,0.0,0.0,0.0,0.0,0.0,0.0,0.0,0.0,0.0,0.0,-6.2538,-6.3279,-6.3549,-6.3408,-6.2509,-6.132,-6.0266,-5.9797,-5.8687,-5.7683,0.0,0.0,0.0,0.0,0.0,0.0,-5.8707,-6.0468,-6.1687,-6.171,-6.1695,-6.1695,-6.1695,-6.1562,-6.1019,-5.991,-5.8188,-5.7082,-5.6701,-5.3752,0.0,0.0,0.0,0.0,0.0,0.0,0.0,0.0,0.0,0.0,0.0,0.0,0.0,0.0,0.0,0.0,0.0,0.0,0.0,0.0,0.0,0.0,0.0,0.0,0.0,0.0,0.0,0.0,0.0,-6.3304,-6.4678,-6.3031,-6.4973,-6.5183,0.0,0.0,0.0,0.0,0.0,0.0,0.0,0.0,0.0,-6.9898,-7.0821,-7.1269,-7.1269,-7.2822,-7.3245,-7.2514,-7.363,-7.4014,-7.3783,-7.4168,-7.4322,-7.4322,-7.4322,-7.3443,-7.1851,-6.9343,-6.7545,-6.6259,0.0,0.0,0.0,0.0,-6.2771,-6.2844,-6.3292,-6.3112,-6.2846,-6.3663,0.0,0.0,0.0,0.0,0.0,0.0,0.0,-6.2018,-6.2241,-6.2993,-6.3652,-6.3471,-6.43,-6.4908,-6.4232,-6.3482,-6.243,-6.0643,-6.0835,-6.0495,-5.7981,-5.7272,0.0,0.0,0.0,-5.8898,-5.9188,-6.0475,-6.1359,-6.1295,-6.1283,-6.1283,-6.1283,-6.12,-6.095,-6.0502,-5.8326,-5.7071,-5.6983,-5.4699,-5.3623,0.0,0.0,0.0,0.0,0.0,0.0,0.0,0.0,0.0,0.0,0.0,0.0,0.0,0.0,0.0,0.0,0.0,0.0,0.0,0.0,0.0,0.0,0.0,0.0,0.0,0.0,0.0,0.0,-6.3698,-6.4916,-6.2358,-6.5801,-6.6553,0.0,0.0,0.0,0.0,0.0,0.0,-6.9629,-7.0514,-7.1745,-7.3437,-7.4322,-7.4784,-7.4784,-7.5592,-7.5784,-7.5361,-7.5361,-7.5592,-7.6015,-7.6015,-7.5861,-7.5668,-7.5668,-7.5168,-7.4182,-7.1323,-6.9292,-6.7817,-6.6049,-6.4969,-6.4386,-6.4386,-6.4238,-6.4153,-6.4769,-6.4404,-6.3759,-6.4293,-6.4207,-6.3545,-6.185,0.0,0.0,0.0,0.0,-6.2803,-6.2887,-6.3631,-6.4296,-6.3808,-6.4552,-6.5286,-6.4863,-6.4922,-6.4348,-6.2035,-6.2594,-6.2415,-5.9104,-5.8164,0.0,-5.7552,-5.8341,-5.9145,-5.9666,-6.0608,-6.1207,-6.1196,-6.115,-6.115,-6.115,-6.1044,-6.0944,-6.0944,-5.868,-5.7319,-5.7319,-5.5511,-5.4342,-5.3992,0.0,0.0,0.0,0.0,0.0,0.0,0.0,0.0,0.0,0.0,0.0,0.0,0.0,0.0,0.0,0.0,0.0,0.0,0.0,0.0,0.0,0.0,0.0,0.0,0.0,0.0,0.0,0.0,0.0,-6.5024,-6.9556,0.0,0.0,0.0,0.0,-6.8515,-6.9841,-7.1398,-7.3154,-7.4014,-7.5245,-7.6976,-7.7823,-7.8246,-7.8246,-7.9131,-7.8746,-7.7169,-7.7169,-7.6746,-7.6015,-7.6015,-7.5553,-7.4784,-7.4784,-7.4322,-7.3437,-7.1604,-7.0348,-6.9335,-6.6966,-6.6022,-6.5983,-6.5983,-6.5441,-6.4754,-6.4656,-6.4061,-6.3653,-6.563,-6.645,-6.6053,-6.2535,-6.2665,0.0,0.0,-6.2856,-6.369,-6.4301,-6.3921,-6.3596,-6.4502,-6.4067,-6.3505,-6.3779,-6.4381,-6.4812,-6.4863,-6.2871,-6.1103,-6.0885,0.0,-5.8315,-5.8424,-5.9194,-5.9696,-5.9529,-6.0403,-6.0973,-6.0823,-6.0827,-6.0827,-6.0827,-6.0816,-6.0804,-6.0804,-5.9177,-5.8242,-5.8242,-5.5818,-5.4829,-5.557,-5.3184,0.0,0.0,0.0,0.0,0.0,0.0,0.0,0.0,0.0,0.0,0.0,0.0,0.0,0.0,0.0,0.0,0.0,0.0,0.0,0.0,0.0,0.0,0.0,0.0,0.0,0.0,0.0,0.0,-6.7661,-7.1028,0.0,-6.8502,-6.97,-7.0821,-7.1152,-7.3047,-7.4938,-7.663,-7.7515,-7.8515,-7.9708,-8.0015,-7.9631,-7.8515,-7.8823,-7.813,-7.6476,-7.6476,-7.6284,-7.6015,-7.6015,-7.5822,-7.5553,-7.5553,-7.5053,-7.4168,-7.3053,-7.1745,-7.0335,-6.8937,-6.8061,-6.7598,-6.7598,-6.702,-6.6275,-6.6243,-6.5667,-6.5045,-6.5452,-6.526,-6.4665,-6.3366,-6.3364,-6.365,-6.3088,-6.3549,-6.4182,-6.3844,-6.3935,-6.3969,-6.3323,-6.3748,-6.4174,-6.3884,-6.4856,-6.5654,-6.5009,-6.3767,-6.2415,-6.1225,-6.0044,-5.9225,-5.9145,-5.9405,-5.9787,-6.0254,-6.0652,-6.0867,-6.0793,-6.0781,-6.0781,-6.0781,-6.0281,-5.9973,-5.9973,-5.8396,-5.7473,-5.7473,-5.6049,-5.4895,-5.4126,-5.2654,-5.1664,0.0,0.0,0.0,0.0,0.0,0.0,0.0,0.0,0.0,0.0,0.0,0.0,0.0,0.0,0.0,0.0,0.0,0.0,0.0,0.0,0.0,0.0,0.0,0.0,0.0,-6.7797,-7.011,-6.9045,-7.2459,-7.3668,-7.0465,-7.2208,-7.3791,-7.4332,-7.5994,-7.7668,-7.9285,-7.9939,-8.0516,-8.1093,-8.1093,-8.0554,-7.94,-7.9092,-7.8361,-7.7284,-7.6707,-7.6438,-7.6438,-7.613,-7.5822,-7.5553,-7.5284,-7.4668,-7.3783,-7.2976,-7.1937,-7.086,-7.0321,-6.9744,-6.9244,-6.9244,-6.8513,-6.7475,-6.6898,-6.6396,-6.5854,-6.5217,-6.4856,-6.4564,-6.3974,-6.4116,-6.43,-6.3615,-6.3981,-6.4397,-6.3551,-6.3551,-6.3619,-6.2969,-6.318,-6.3585,-6.3742,-6.4435,-6.4878,-6.4406,-6.3973,-6.3223,-6.1682,-6.074,-6.0229,-6.0408,-6.0157,-6.0242,-6.1127,-6.0973,-6.0781,-6.0781,-6.0781,-6.0781,-6.0781,-6.0281,-5.9819,-5.9511,-5.7934,-5.6868,-5.656,-5.5472,-5.4472,-5.3664,-5.25,-5.151,-5.0712,0.0,0.0,0.0,0.0,0.0,0.0,0.0,0.0,0.0,0.0,0.0,0.0,0.0,0.0,0.0,0.0,0.0,0.0,0.0,0.0,0.0,0.0,0.0,-6.6769,-6.9412,-7.0881,-6.9339,-7.4001,-7.5769,-7.188,-7.4875,-7.734,-7.8006,-7.8608,-7.9586,-8.1038,-8.1093,-8.1093,-8.1093,-8.1093,-8.1093,-8.1054,-8.0208,-7.9785,-7.9708,-7.8092,-7.7284,-7.7207,-7.6399,-7.5553,-7.4707,-7.3899,-7.3053,-7.2168,-7.1283,-7.0937,-7.0898,-7.0898,-7.0898,-7.0898,-7.086,-6.9821,-6.8129,-6.6474,-6.5997,-6.5954,-6.5083,-6.5522,-6.6037,-6.4357,-6.4846,-6.5683,-6.4095,-6.4089,-6.4359,-6.3512,-6.2704,-6.2403,-6.3493,-6.2393,-6.1569,-6.3385,-6.3045,-6.254,-6.3149,-6.3405,-6.3273,-6.2451,-6.1471,-6.1114,-6.2104,-6.1422,0.0,-6.1947,-6.132,-6.0781,-6.0781,-6.0781,-6.0781,-6.0781,-6.0742,-6.0358,-5.9473,-5.7857,-5.656,-5.5703,-5.4087,-5.3626,-5.4434,-5.2741,-5.1471,-5.0712,0.0,0.0,0.0,0.0,0.0,0.0,0.0,0.0,0.0,0.0,0.0,0.0,0.0,0.0,0.0,0.0,0.0,0.0,0.0,0.0,0.0,-6.7834,-7.0257,-7.0036,-7.2275,-7.4184,-7.4888,-7.6356,-7.709,-7.6644,-7.7422,-7.8226,-7.8812,-7.9443,-8.0141,-8.1038,-8.1093,-8.1093,-8.1093,-8.1093,-8.0785,-8.0169,-7.9939,-7.9208,-7.7977,-7.7515,-7.6976,-7.6361,-7.6092,-7.5861,-7.5592,-7.4745,-7.3899,-7.3091,-7.2206,-7.1475,-7.0898,-7.0898,-7.0898,-7.0821,-7.0244,-6.8936,-6.7321,-6.6244,-6.5997,-6.5954,-6.5063,-6.5103,-6.5356,-6.4706,-6.442,-6.43,-6.4326,-6.3996,-6.3474,-6.2627,-6.2704,-6.2914,-6.2758,-6.2784,-6.3038,-6.3546,-6.3443,-6.3091,-6.2544,-6.2479,-6.2458,-6.2216,-6.1416,-6.0893,-6.1164,-6.0993,-6.0896,-6.1127,-6.0935,-6.0781,-6.0781,-6.0781,-6.0781,-6.0781,-5.9704,-5.8627,-5.7742,-5.6088,-5.5088,-5.4857,-5.4395,-5.3972,-5.3587,-5.1895,-5.0933,0.0,0.0,0.0,0.0,0.0,0.0,0.0,0.0,0.0,0.0,0.0,0.0,0.0,0.0,0.0,0.0,0.0,0.0,0.0,0.0,0.0,0.0,-7.1064,-7.3193,-7.4221,-7.4955,-7.5873,-7.7127,-7.7273,-7.7494,-7.8002,-7.7946,-7.8245,-7.9128,-7.9513,-8.0125,-8.1061,-8.1093,-8.1093,-8.1093,-8.1093,-8.0862,-8.0362,-7.9977,-7.9323,-7.8323,-7.763,-7.7015,-7.6515,-7.6169,-7.6015,-7.5938,-7.4707,-7.3937,-7.3399,-7.2168,-7.136,-7.086,0.0,0.0,0.0,0.0,-6.7975,-6.6974,-6.6167,-6.5943,-6.5859,-6.5009,-6.4812,-6.4886,-6.4811,-6.4184,-6.358,-6.4067,-6.3504,-6.2589,-6.1781,-6.1897,-6.2248,-6.2297,-6.24,-6.271,-6.3437,-6.3011,-6.2443,-6.2159,-6.1831,0.0,-6.1562,-6.1127,-6.0935,-6.1281,-6.1012,-6.0935,-6.1281,-6.1012,-6.0781,-6.0781,-6.0781,-6.0781,-6.0781,-5.9588,0.0,0.0,0.0,-5.4511,-5.3433,-5.3395,0.0,0.0,0.0,-5.1048,-5.0712,-5.0712,0.0,0.0,-5.151,-5.1933,0.0,0.0,0.0,0.0,0.0,0.0,0.0,0.0,0.0,0.0,0.0,0.0,0.0,0.0,0.0,0.0,-7.4625,-7.6093,-7.8295,-7.7304,-7.6607,-7.7237,-7.7273,-7.7273,-7.7273,-7.7273,-7.7846,-7.9105,-7.9198,-7.9765,-8.1045,-8.1093,0.0,0.0,0.0,-8.1093,-8.1093,-8.0323,-7.99,-7.9785,-7.8207,-7.74,-7.7284,-7.6399,-7.6015,-7.5899,-7.4322,-7.3591,-7.3346,-7.1706,-7.0937,-7.0706,-6.9975,-6.9629,-6.936,-6.7705,-6.7051,-6.6859,-6.6128,0.0,0.0,-6.4782,-6.4436,-6.4446,-6.4492,-6.3885,-6.3226,-6.3487,-6.292,-6.2062,-6.1166,-6.1012,-6.1285,-6.2085,-6.1706,-6.1542,-6.309,-6.2123,-6.1167,-6.184,-6.132,-6.0781,-6.0781,-6.0781,-6.105,-6.1831,-6.1281,-6.1089,-6.187,-6.1293,-6.0781,-6.0781,-6.0781,0.0,-6.0781,-5.9935,-5.9011,-5.8204,-5.6511,-5.4549,-5.2269,-5.2115,-5.1702,-5.102,-5.151,-5.1395,-5.0712,-5.0712,-5.075,-5.0856,-5.1471,-5.2231,0.0,0.0,0.0,0.0,0.0,0.0,0.0,0.0,0.0,0.0,0.0,0.0,0.0,0.0,0.0,-7.334,-7.6056,-7.8038,-7.8516,-7.8332,-7.7928,-7.7347,-7.7273,-7.7273,-7.7273,-7.7273,-7.7846,-7.9105,-7.9198,-7.9765,-8.1045,-8.1093,-8.1093,-8.1093,-8.1093,-8.1093,-8.1093,-8.0939,-8.0516,-7.9785,-7.8746,0.0,-7.7284,-7.6399,-7.6015,-7.5938,-7.4899,-7.4091,-7.3437,-7.236,-7.1129,-6.9937,-6.9744,-6.9283,-6.8552,-6.7475,-6.6667,-6.609,-6.5936,-6.5897,-6.5628,-6.4051,-6.3551,-6.3447,-6.2826,-6.2494,0.0,-6.3161,-6.3214,-6.2897,-6.205,-6.232,-6.2716,-6.2248,-6.2001,-6.1989,-6.2309,-6.1566,-6.09,-6.1023,-6.0935,-6.0781,-6.0781,-6.0781,-6.0858,-6.1012,-6.0896,-6.0858,-6.1012,-6.0896,-6.0781,-6.0781,-6.0781,-6.0781,-6.0781,-5.9396,-5.8165,-5.733,-5.5665,-5.4511,-5.401,-5.3318,-5.2895,-5.2702,-5.1548,-5.0866,-5.0712,-5.0712,-5.101,-5.1654,-5.1164,-5.1356,0.0,0.0,0.0,0.0,0.0,0.0,0.0,0.0,0.0,0.0,0.0,-6.5878,-6.716,0.0,-7.3927,-7.635,-7.8112,-7.9176,-7.9176,-7.8846,-7.8295,-7.7384,-7.7273,-7.7273,-7.7273,-7.7273,-7.7994,-7.9731,-7.9863,-8.0372,-8.1622,-8.1708,-8.1516,-8.1093,-8.1093,-8.1093,-8.1093,-8.1093,-8.0669,-7.9785,-7.89,-7.8092,-7.7284,-7.6399,-7.6015,-7.5938,-7.5091,-7.4476,-7.4014,-7.2745,-7.1706,-7.086,-7.0014,-6.8898,-6.7705,-6.7244,-6.659,-6.5897,-6.5897,-6.5897,-6.559,-6.3858,-6.3308,-6.3243,-6.282,-6.2397,-6.2293,-6.3089,-6.3012,-6.2512,-6.1666,-6.1743,-6.1935,-6.155,-6.1447,-6.1447,-6.1447,-6.1089,-6.0781,-6.0781,-6.0781,-6.0781,-6.0781,-6.0781,-6.0781,-6.0781,-6.0781,-6.0781,-6.0781,-6.0781,-6.0781,-6.0781,-6.0781,-6.0781,-6.0781,-5.9242,-5.7742,-5.6445,-5.5203,-5.4318,-5.3857,-5.301,-5.2356,-5.1972,-5.1135,-5.0712,-5.0712,-5.0712,-5.0894,-5.1279,-5.0894,-5.1587,0.0,0.0,0.0,0.0,0.0,0.0,0.0,-6.3457,-6.3283,-6.4132,-6.6069,-6.8253,-7.0112,-7.317,-7.635,-7.9323,-7.991,-8.0021,-8.0021,-7.947,-7.8699,-7.764,-7.7384,-7.7273,-7.7273,-7.7426,-7.8313,-8.0358,-8.0583,-8.1144,-8.2253,-8.2285,-8.1939,-8.1131,-8.1093,-8.1093,-8.1093,-8.1093,-8.0746,-8.0054,-7.9169,-7.84,-7.7746,-7.6861,-7.6399,-7.6207,-7.5168,-7.463,-7.4361,-7.2822,-7.2091,-7.1822,-7.0475,-6.8898,-6.7321,-6.7167,-6.659,-6.5897,-6.5897,-6.5897,-6.5628,-6.4051,-6.3551,-6.3512,-6.3166,-6.2704,-6.2435,-6.2935,-6.2704,-6.2139,-6.1281,-6.105,-6.1012,-6.0819,-6.0781,-6.0781,-6.0781,-6.0781,-6.0781,-6.0781,-6.0781,-6.0781,-6.0781,-6.0781,-6.0781,-6.0781,-6.0781,-6.0781,-6.0781,-6.0781,-6.0781,-6.0781,-6.0781,-6.0666,-6.0319,-5.8934,-5.7396,-5.578,-5.5088,-5.4357,-5.351,-5.2615,-5.1779,-5.0933,-5.0789,-5.0712,-5.0712,-5.0712,-5.0712,-5.0712,-5.0856,-5.201,-6.0402,-6.0724,-6.2012,-6.4782,-6.4397,-6.4508,0.0,-6.8274,-6.6923,-6.8254,-6.9921,-7.1313,-7.1802,-7.4699,-7.7671,-7.9507,-8.0388,-8.0865,-8.0865,-8.0791,-8.0167,-7.8626,-7.7781,-7.7273,-7.7273,-7.7817,-7.882,-8.0382,-8.0997,-8.1595,-8.2269,-8.2285,-8.1939,-8.1131,-8.1093,-8.1093,-8.1093,-8.1093,-8.1054,-8.0939,-8.0054,-7.9631,-7.9477,-7.8631,-7.7823,-7.7053,-7.5399,-7.4284,-7.3553,-7.2591,-7.1745,-7.1014,-7.0821,-6.9744,-6.8167,-6.7398,-6.659,-6.5897,-6.5897,-6.5897,-6.5743,-6.4782,-6.4436,-6.4166,-6.2666,-6.2666,-6.3051,-6.2397,-6.2666,-6.2974,-6.2166,-6.1947,-6.1755,-6.0973,-6.0781,-6.0781,-6.0781,-6.0781,-6.0781,-6.0781,-6.0781,-6.0781,-6.0781,-6.0781,-6.0781,-6.0781,-6.0781,-6.0781,-6.0781,-6.0781,-6.0781,-6.0781,-6.0781,-6.0204,-5.8704,-5.7703,-5.6753,-5.5742,-5.5626,-5.5203,-5.4395,-5.351,-5.2664,-5.1769,-5.1048,-5.0712,-5.0712,-5.0712,-5.0712,-5.0712,-5.1433,-5.1923,-6.3753,-6.3571,-6.3893,-6.6051,-6.6821,-6.764,-6.998,-6.9611,-6.9131,-7.0401,-7.2045,-7.3456,-7.4138,-7.6741,-7.914,-8.0314,-8.1158,-8.1525,-8.1085,-8.1012,-8.0509,-7.9261,-7.88,-7.8393,-7.7949,-7.8555,-7.9779,-8.1659,-8.2426,-8.2931,-8.3038,-8.3054,-8.2439,-8.1131,-8.1093,-8.1093,-8.1093,-8.1093,-8.1093,-8.1093,-8.0208,-7.9823,-7.9746,-7.84,-7.7323,-7.6515,-7.5784,-7.4976,-7.413,-7.3283,-7.2437,-7.1552,-7.0591,-6.9475,-6.8359,-6.7975,-6.7013,-6.5897,-6.5897,-6.5551,-6.5013,-6.4128,-6.3512,-6.3012,-6.2332,-6.232,-6.2512,-6.2178,-6.232,-6.2397,-6.155,-6.1331,-6.1243,-6.0896,-6.0781,-6.0781,-6.0781,-6.0781,-6.0781,-6.0781,-6.0781,-6.0781,-6.0781,-6.0781,-6.0781,-6.0781,-6.0781,-6.0781,-6.0781,-6.0781,-6.0589,-6.0089,-6.005,-5.9358,-5.7703,-5.7214,-5.6637,-5.5742,-5.5241,-5.4626,-5.378,-5.2933,-5.2049,-5.1202,-5.0856,-5.0712,-5.0712,-5.0712,-5.0712,-5.0712,-5.1048,-5.1202,-6.4926,-6.4991,-6.5238,-6.7011,-6.8783,-7.0216,-7.068,-7.0938,-7.1349,-7.2148,-7.3759,-7.5133,-7.5593,-7.8062,-8.0235,-8.0897,-8.1856,-8.2333,-8.1746,-8.1489,-8.096,-7.9949,-7.9623,-7.9301,-7.8829,-7.9317,-8.0495,-8.2545,-8.3372,-8.3768,-8.3615,-8.3593,-8.2824,-8.1131,-8.1093,-8.1093,-8.1093,-8.1093,-8.1093,-8.1093,-8.0477,-8.0169,-8.0092,-7.84,-7.7169,-7.6361,-7.6092,-7.5399,-7.4322,-7.3745,-7.286,-7.1706,-7.0514,-6.936,-6.8385,-6.8385,-6.7359,-6.5897,-6.5897,-6.5474,-6.4859,-6.4205,-6.3628,-6.3063,-6.2589,-6.2435,-6.232,-6.187,-6.1755,-6.1601,-6.0973,-6.0781,-6.0781,-6.0781,-6.0781,-6.0781,-6.0781,-6.0781,-6.0781,-6.0781,-6.0781,-6.0781,-6.0781,-6.0781,-6.0781,-6.0781,-6.0781,-6.0781,-6.0781,-6.0781,-6.0473,-5.9588,-5.9319,-5.8588,-5.7137,-5.6791,-5.6291,-5.5434,-5.5011,-5.4357,-5.3241,-5.2577,-5.1856,-5.1048,-5.0827,-5.0712,-5.0712,-5.0712,-5.0712,-5.0712,-5.0712,-5.0712,-6.1594,-6.2959,-6.4664,-6.7626,-6.9776,-7.1417,-7.2492,-7.3314,-7.3897,-7.3922,-7.5326,-7.6317,-7.555,-7.8277,-8.0753,-8.0956,-8.2333,-8.3361,-8.3361,-8.2663,-8.1776,-8.0776,-7.9958,-7.9654,-8.0005,-8.0066,-8.081,-8.2547,-8.3264,-8.3632,-8.3593,-8.3593,-8.2824,-8.1131,-8.1093,-8.1093,-8.1093,-8.1093,-8.1093,-8.1093,-8.1054,-8.1054,-8.1016,-7.9246,-7.8015,-7.7207,-7.6361,-7.5053,-7.3538,-7.3514,-7.2476,-7.0937,-7.0898,-6.986,-6.8385,-6.8385,-6.7359,-6.5897,-6.5897,-6.5859,-6.5859,-6.582,-6.5782,-6.5474,-6.3782,-6.3281,-6.2935,-6.1281,-6.0819,-6.0819,-6.0819,-6.0781,-6.0781,-6.0781,-6.0781,-6.0781,-6.0781,-6.0781,-6.0781,-6.0781,-6.0781,-6.0781,-6.0781,-6.0781,-6.0781,-6.0781,-6.0781,-6.0781,-6.0781,-6.0781,-6.0473,-5.9588,-5.8819,-5.7973,-5.7099,-5.6252,-5.5395,-5.4587,-5.5241,-5.4934,-5.328,-5.3164,-5.2741,-5.1885,-5.1087,-5.0712,-5.0712,-5.0712,-5.0712,-5.0712,-5.0712,-5.0712,-6.2371,-6.4705,-6.7397,-7.022,-7.2324,-7.4014,-7.5059,-7.5624,-7.5902,-7.5754,-7.5857,-7.5999,-7.6008,-7.7225,-7.8601,-7.9755,-8.1408,-8.259,-8.259,-8.2847,-8.2402,-8.0888,-8.081,-8.0684,-8.0161,-8.0621,-8.1385,-8.2361,-8.3166,-8.3362,-8.2747,-8.2747,-8.2247,-8.1131,-8.1093,-8.1093,-8.1093,-8.1093,-8.1093,-8.1093,-8.0516,-7.9939,-7.9323,-7.8207,-7.7246,-7.6399,-7.5515,-7.4514,-7.3399,-7.2245,-7.1129,-6.9975,-6.8821,-6.8013,-6.7475,-6.6936,-6.6397,-6.5897,-6.5897,-6.5128,-6.4282,-6.4859,-6.4282,-6.3294,-6.2666,-6.2512,-6.2281,-6.1127,-6.0781,-6.0781,-6.0781,-6.0781,-6.0781,-6.0781,-6.0781,-6.0781,-6.0781,-6.0781,-6.0781,-6.0781,-6.0781,-6.0781,-6.0781,-6.0781,-6.0781,-6.0781,-6.0781,-6.0781,-6.0781,-6.0781,-6.0242,-5.8858,-5.8473,-5.7703,-5.6242,-5.5857,-5.5588,-5.5318,-5.5049,-5.4395,-5.3241,-5.2654,-5.1972,-5.1125,-5.0827,-5.0712,-5.0712,-5.0712,-5.0712,-5.0712,-5.0712,-5.0712,-6.3898,-6.6541,-6.936,-7.234,-7.434,-7.5749,-7.6436,-7.6755,-7.6847,-7.6624,-7.6244,-7.5916,-7.5886,-7.6421,-7.7375,-7.8721,-8.0302,-8.1636,-8.2517,-8.259,-8.2292,-8.1632,-8.1383,-8.1075,-8.056,-8.102,-8.1632,-8.2253,-8.2824,-8.2901,-8.2324,-8.2285,-8.1939,-8.1131,-8.1093,-8.1093,-8.1093,-8.1093,-8.0939,-8.0631,-8.0092,-7.9208,-7.8054,-7.7553,-7.663,-7.5515,-7.4938,-7.4091,-7.2937,-7.1475,-7.0437,-6.9552,-6.8129,-6.7359,-6.7051,-6.6513,-6.5936,-6.5436,-6.5436,-6.4705,-6.3858,-6.4436,-6.3666,-6.2512,-6.2512,-6.232,-6.1908,-6.105,-6.0781,-6.0781,-6.0781,-6.0781,-6.0781,-6.0781,-6.0781,-6.0781,-6.0781,-6.0781,-6.0781,-6.0781,-6.0781,-6.0781,-6.0781,-6.0781,-6.0781,-6.0781,-6.0781,-6.0781,-6.0781,-6.0512,-5.9819,-5.8434,-5.8011,-5.728,-5.5818,-5.5703,-5.5434,-5.4857,-5.4626,-5.3972,-5.2779,-5.2192,-5.1654,-5.1125,-5.0866,-5.0712,-5.0712,-5.0712,-5.0712,-5.0712,-5.0712,-5.0712,-6.5934,-6.8261,-7.0422,-7.3837,-7.5636,-7.6582,-7.6582,-7.6755,-7.6813,-7.6586,-7.6292,-7.5876,-7.5021,-7.5787,-7.6893,-7.7814,-7.9069,-8.0708,-8.2957,-8.2039,-8.1592,-8.2838,-8.1652,-8.0903,-8.1202,-8.1286,-8.1575,-8.2176,-8.2247,-8.2247,-8.2247,-8.2247,-8.19,-8.1131,-8.1093,-8.1093,-8.1093,-8.1093,-8.0669,-7.9823,-7.9746,-7.8861,-7.7284,-7.7246,-7.6322,-7.4707,-7.4668,-7.3707,-7.2052,-7.1168,-7.0283,-6.9475,-6.8629,-6.7782,-6.7013,-6.6974,-6.5974,-6.4589,-6.4512,-6.4474,-6.4474,-6.4512,-6.3935,-6.3243,-6.3243,-6.2704,-6.1908,-6.105,-6.0781,-6.0781,-6.0781,-6.0781,-6.0781,-6.0781,-6.0781,-6.0781,-6.0781,-6.0781,-6.0781,-6.0781,-6.0781,-6.0781,-6.0781,-6.0781,-6.0781,-6.0781,-6.0781,-6.0781,-6.0742,-6.0012,-5.9165,-5.8319,-5.75,-5.6665,-5.578,-5.5703,-5.5011,-5.3433,-5.4087,-5.3741,-5.2038,-5.1923,-5.1885,-5.1846,-5.1087,-5.0712,-5.0712,-5.0712,-5.0712,-5.0712,-5.0712,-5.0712,-6.7208,-6.9939,-7.2525,-7.4282,-7.5636,-7.6582,-7.6582,-7.6755,-7.6657,-7.5807,-7.4476,-7.3176,-7.2174,-7.3386,-7.4687,-7.5056,-7.865,-8.1437,-8.159,-8.2296,-8.2472,-8.1629,-8.1556,-8.1329,-8.0673,-8.1022,-8.1346,-8.1407,-8.14,-8.14,-8.14,-8.14,-8.1323,-8.1093,-8.1093,-8.1093,-8.1093,-8.1093,-8.0669,-7.9785,-7.9131,-7.8284,-7.7284,-7.663,-7.5745,-7.4668,-7.4091,-7.2822,-7.1129,-6.9629,-6.8513,-6.7667,-6.6859,-6.6397,-6.6128,-6.5474,-6.4974,-6.4436,-6.3166,-6.2743,-6.282,-6.3435,-6.3089,-6.2397,-6.2397,-6.2255,-6.1908,-6.105,-6.0781,-6.0781,-6.0781,-6.0781,-6.0781,-6.0781,-6.0781,-6.0781,-6.0781,-6.0781,-6.0781,-6.0781,-6.0781,-6.0781,-6.0781,-6.0781,-6.0781,-6.0781,-6.0781,-6.055,-5.9935,-5.9627,-5.8934,-5.7473,-5.7126,-5.6665,-5.578,-5.5703,-5.5511,-5.5088,-5.4703,-5.401,-5.2933,-5.2231,-5.1625,-5.101,-5.0789,-5.0712,-5.0712,-5.0712,-5.0712,-5.0712,-5.0712,-5.0712,-6.8773,-7.1202,-7.3391,-7.5034,-7.5979,-7.6385,-7.6086,-7.6052,-7.5605,-7.3982,-7.2638,-7.1528,-7.0554,-7.1963,-7.342,-7.3889,-7.7541,-8.0562,-8.1309,-8.1934,-8.2296,-8.2076,-8.1723,-8.1363,-8.0941,-8.0908,-8.0943,-8.1084,-8.1093,-8.1093,-8.1093,-8.1093,-8.1093,-8.1093,-8.1093,-8.1093,-8.1093,-8.0708,-8.0092,-7.9208,-7.8361,-7.7323,-7.613,-7.5668,-7.4745,-7.3591,-7.3129,-7.1975,-7.0283,-6.8936,-6.7898,-6.7013,-6.6205,-6.5667,-6.5282,-6.4782,-6.4128,-6.3358,-6.2447,-6.187,-6.1666,-6.2512,-6.2204,-6.1601,-6.1985,-6.1831,-6.1435,-6.0935,-6.0781,-6.0781,-6.0781,-6.0781,-6.0781,-6.0781,-6.0781,-6.0781,-6.0781,-6.0781,-6.0781,-6.0781,-6.0781,-6.0781,-6.0781,-6.0781,-6.0781,-6.0781,-6.0781,-6.0358,-5.9127,-5.8973,-5.8473,-5.7137,-5.6676,-5.6252,-5.5742,-5.5703,-5.5549,-5.5203,-5.4395,-5.3549,-5.2654,-5.1818,-5.1164,-5.0712,-5.0712,-5.0712,-5.0712,-5.0712,-5.0712,-5.0712,-5.0712,-5.0712,-7.0461,-7.226,-7.3821,-7.5969,-7.6597,-7.6397,-7.5469,-7.5139,-7.4314,-7.1801,-7.0898,-7.0321,-6.9513,-7.103,-7.2647,-7.3491,-7.6218,-7.9061,-8.141,-8.1292,-8.1525,-8.292,-8.1916,-8.12,-8.1406,-8.0882,-8.0697,-8.1068,-8.1093,-8.1093,-8.1093,-8.1093,-8.1093,-8.1093,-8.1093,-8.1093,-8.1093,-8.0362,-7.9477,-7.8477,-7.7784,-7.6553,-7.4861,-7.4745,-7.386,-7.236,-7.2245,-7.1168,-6.9475,-6.8706,-6.7821,-6.6859,-6.6167,-6.5436,-6.4743,-6.4512,-6.3512,-6.2216,-6.1985,-6.1435,-6.0935,-6.1678,-6.1408,-6.0935,-6.1716,-6.1408,-6.0781,-6.0781,-6.0781,-6.0781,-6.0781,-6.0781,-6.0781,-6.0781,-6.0781,-6.0781,-6.0781,-6.0781,-6.0781,-6.0781,-6.0781,-6.0781,-6.0781,-6.0781,-6.0781,-6.0781,-6.0781,-6.0242,-5.8665,-5.8357,-5.7934,-5.6945,-5.6137,-5.5703,-5.5703,-5.5703,-5.5395,-5.4703,-5.3857,-5.2972,-5.2115,-5.1279,-5.0827,-5.0712,-5.0712,-5.0712,-5.0712,-5.0712,-5.0712,-5.0712,-5.0712,-5.0712,-7.2011,-7.3835,-7.5401,-7.6794,-7.7742,-7.7766,-7.5545,-7.502,-7.4119,-7.0922,-6.949,-6.859,-6.7705,-6.9536,-7.1528,-7.2574,-7.5658,-7.8654,-8.0609,-8.096,-8.1122,-8.1379,-8.1642,-8.1438,-8.0664,-8.0927,-8.1137,-8.1084,-8.1093,-8.1093,-8.1093,-8.1093,-8.1093,-8.1093,-8.1093,-8.1093,-8.1093,-8.0939,-8.0092,-7.8477,-7.8361,-7.74,-7.5745,-7.5014,-7.4168,-7.3245,-7.2514,-7.0821,-6.8629,-6.8462,-6.7475,-6.609,-6.5936,-6.582,-6.5513,-6.4051,-6.3358,-6.2897,-6.1512,-6.0935,-6.0819,-6.0973,-6.0935,-6.0819,-6.0973,-6.0935,-6.0781,-6.0781,-6.0781,-6.0781,-6.0781,-6.0781,-6.0781,-6.0781,-6.0781,-6.0781,-6.0781,-6.0781,-6.0781,-6.0781,-6.0781,-6.0781,-6.0781,-6.0781,-6.0781,-6.0781,-6.0781,-6.0435,-5.9435,-5.8704,-5.7703,-5.6088,-5.578,-5.5703,-5.5703,-5.5703,-5.5626,-5.5511,-5.4741,-5.3895,-5.301,-5.2154,-5.1395,-5.0712,-5.0712,-5.0712,-5.0712,-5.0712,-5.0712,-5.0712,-5.0712,-5.0712,-7.2585,-7.4451,-7.6235,-7.7249,-7.7784,-7.7357,-7.4884,-7.4274,-7.316,-6.942,-6.8865,-6.8667,-6.7321,-6.9167,-7.0944,-7.1046,-7.4048,-7.6879,-7.8341,-7.9484,-8.0204,-8.0346,-8.0622,-8.0711,-8.0414,-8.028,-8.0466,-8.1045,-8.1093,-8.1093,-8.1093,-8.1093,-8.1093,-8.1093,-8.1093,-8.1093,-8.1093,-8.0669,-7.9785,-7.8477,-7.8092,-7.6976,-7.5284,-7.4476,-7.363,-7.2783,-7.1898,-7.036,-6.8385,-6.8385,-6.7398,-6.5897,-6.5897,-6.5628,-6.5051,-6.3782,-6.3051,-6.2512,-6.1243,-6.0781,-6.0781,-6.0781,-6.0781,-6.0781,-6.0781,-6.0781,-6.0781,-6.0781,-6.0781,-6.0781,-6.0781,-6.0781,-6.0781,-6.0781,-6.0781,-6.0781,-6.0781,-6.0781,-6.0781,-6.0781,-6.0781,-6.0781,-6.0781,-6.0781,-6.0781,-6.0781,-6.0781,-6.0473,-5.9627,-5.9165,-5.828,-5.656,-5.6368,-5.6214,-5.5742,-5.5703,-5.5703,-5.5703,-5.4934,-5.4126,-5.3241,-5.2346,-5.151,-5.0712,-5.0712,-5.0712,-5.0712,-5.0712,-5.0712,-5.0712,-5.0712,-5.0712,-7.3178,-7.5017,-7.692,-7.7908,-7.8125,-7.7396,-7.4562,-7.3806,-7.2583,-6.8442,-6.8574,-6.9013,-6.7628,-6.9013,-7.0283,-7.0014,-7.2352,-7.4809,-7.656,-7.7991,-7.9149,-7.9838,-7.9919,-8.0033,-8.0301,-7.987,-8.0027,-8.1007,-8.1093,-8.1093,-8.1093,-8.1093,-8.1093,-8.1093,-8.1093,-8.1093,-8.1093,-8.0439,-7.9554,-7.8477,-7.7861,-7.663,-7.4938,-7.3937,-7.3129,-7.2399,-7.136,-7.0052,-6.8667,-6.8475,-6.7513,-6.6128,-6.5974,-6.5474,-6.4743,-6.3705,-6.2897,-6.2204,-6.1166,-6.0781,-6.0781,-6.0781,-6.0781,-6.0781,-6.0781,-6.0781,-6.0781,-6.0781,-6.0781,-6.0781,-6.0781,-6.0781,-6.0781,-6.0781,-6.0781,-6.0781,-6.0781,-6.0781,-6.0781,-6.0781,-6.0781,-6.0781,-6.0781,-6.0781,-6.0781,-6.0781,-6.0781,-6.055,-5.9858,-5.9781,-5.9204,-5.7715,-5.7214,-5.6637,-5.578,-5.5703,-5.5703,-5.5703,-5.5126,-5.4357,-5.351,-5.2654,-5.1779,-5.0971,-5.0789,-5.0712,-5.0712,-5.0712,-5.0712,-5.0712,-5.0712,-5.0712,-7.4446,-7.6216,-7.7928,-7.9281,-8.0177,-7.9685,-7.5543,-7.4606,-7.3399,-6.9168,-6.8411,-6.8475,-6.8321,-6.8475,-6.909,-7.0552,-7.1296,-7.298,-7.6865,-7.7297,-7.8006,-8.0079,-8.0341,-8.0287,-8.0139,-8.0611,-8.0975,-8.1093,-8.1093,-8.1093,-8.1093,-8.1093,-8.1093,-8.1093,-8.1093,-8.1093,-8.1093,-8.1016,-8.0131,-7.8477,-7.8438,-7.7515,-7.5822,-7.4245,-7.3476,-7.3283,-7.1629,-7.0398,-6.9513,-6.8744,-6.7859,-6.6898,-6.6205,-6.5859,-6.559,-6.3897,-6.3231,-6.2974,-6.1358,-6.0781,-6.0781,-6.0781,-6.0781,-6.0781,-6.0781,-6.0781,-6.0781,-6.0781,-6.0781,-6.0781,-6.0781,-6.0781,-6.0781,-6.0781,-6.0781,-6.0781,-6.0781,-6.0781,-6.0781,-6.0781,-6.0781,-6.0781,-6.0781,-6.0781,-6.0781,-6.0781,-6.0781,-6.0781,-6.0704,-6.0666,-6.0319,-5.9358,-5.7896,-5.6637,-5.578,-5.5703,-5.5703,-5.5703,-5.5626,-5.5241,-5.4395,-5.3549,-5.2664,-5.1808,-5.1087,-5.0712,-5.0712,-5.0712,-5.0712,-5.0712,-5.0712,-5.0712,-7.4566,-7.6881,-7.9117,-7.9661,-7.9669,-7.8669,-7.5438,-7.4322,-7.3091,-6.986,-6.959,-6.959,-6.859,-6.8385,-6.8436,-6.859,-6.8723,-6.9766,-7.2597,-7.3283,-7.446,-7.7093,-7.7823,-7.8662,-7.999,-8.0333,-8.0643,-8.1077,-8.1093,-8.1093,-8.1093,-8.1093,-8.1093,-8.1093,-8.1093,-8.1093,-8.1093,-8.0592,-7.9708,-7.8477,-7.8015,-7.713,-7.5938,-7.4245,-7.3514,-7.3399,-7.1668,-7.0437,-6.9629,-6.8783,-6.7898,-6.7013,-6.6205,-6.559,-6.4974,-6.3743,-6.2974,-6.2397,-6.1204,-6.0781,-6.0781,-6.0781,-6.0781,-6.0781,-6.0781,-6.0781,-6.0781,-6.0781,-6.0781,-6.0781,-6.0781,-6.0781,-6.0781,-6.0781,-6.0781,-6.0781,-6.0781,-6.0781,-6.0781,-6.0781,-6.0781,-6.0781,-6.0781,-6.0781,-6.0781,-6.0781,-6.0781,-6.0781,-6.0781,-6.0781,-6.0473,-5.9588,-5.8473,-5.7434,-5.656,-5.6011,-5.5703,-5.5703,-5.5703,-5.5318,-5.4511,-5.3664,-5.2779,-5.1923,-5.1125,-5.0712,-5.0712,-5.0712,-5.0712,-5.0712,-5.0712,-5.0971,-7.4445,-7.7015,-7.9554,-8.0054,-7.9515,-7.8207,-7.5668,-7.4437,-7.3129,-7.0591,-7.0514,-7.0475,-6.9052,-6.8577,-6.8129,-6.7244,-6.709,-6.7752,-6.9649,-7.0459,-7.1843,-7.454,-7.5153,-7.6414,-7.9016,-7.995,-8.0591,-8.1077,-8.1093,-8.1093,-8.1093,-8.0862,-8.0823,-8.1093,-8.0862,-8.0708,-8.0708,-7.9862,-7.8977,-7.813,-7.7323,-7.6476,-7.5553,-7.3899,-7.3129,-7.3053,-7.1552,-7.0591,-6.9975,-6.8859,-6.8052,-6.7359,-6.632,-6.5513,-6.4859,-6.3743,-6.2935,-6.2281,-6.1166,-6.0781,-6.0781,-6.0781,-6.0781,-6.0781,-6.0781,-6.0781,-6.0781,-6.0781,-6.0781,-6.0781,-6.0781,-6.0781,-6.0781,-6.0781,-6.0781,-6.0781,-6.0781,-6.0781,-6.0781,-6.0781,-6.0781,-6.0781,-6.0781,-6.0781,-6.0781,-6.0781,-6.0781,-6.0781,-6.0781,-6.0781,-6.055,-5.9935,-5.8934,-5.7934,-5.706,-5.6214,-5.5703,-5.5703,-5.5703,-5.5434,-5.4895,-5.4049,-5.3164,-5.2308,-5.1471,-5.0933,-5.0712,-5.0712,-5.0712,-5.0712,-5.0712,-5.101,-7.4291,-7.6553,-7.8938,-8.0669,-8.0439,-7.9131,-7.6553,-7.5322,-7.3976,-7.1398,-7.0898,-7.0667,-6.986,-6.8975,-6.8129,-6.7244,-6.709,-6.7705,-6.9462,-6.9887,-7.0866,-7.325,-7.2948,-7.3819,-7.7008,-7.9631,-8.1093,-8.1093,-8.1093,-8.1093,-8.1093,-8.0285,-8.0208,-8.1054,-8.0246,-7.9823,-7.9823,-7.8938,-7.8092,-7.7284,-7.6438,-7.5553,-7.4668,-7.2976,-7.2206,-7.2168,-7.1283,-7.0898,-7.0744,-6.909,-6.8385,-6.8244,-6.6551,-6.5897,-6.5667,-6.3935,-6.3269,-6.3051,-6.1396,-6.0781,-6.0781,-6.0781,-6.0781,-6.0781,-6.0781,-6.0781,-6.0781,-6.0781,-6.0781,-6.0781,-6.0781,-6.0781,-6.0781,-6.0781,-6.0781,-6.0781,-6.0781,-6.0781,-6.0781,-6.0781,-6.0781,-6.0781,-6.0781,-6.0781,-6.0781,-6.0781,-6.0781,-6.0781,-6.0781,-6.0781,-6.0781,-6.0781,-5.9281,-5.7934,-5.706,-5.6214,-5.5703,-5.5703,-5.5703,-5.5703,-5.5703,-5.4895,-5.4087,-5.3203,-5.2308,-5.151,-5.0712,-5.0712,-5.0712,-5.0712,-5.0712,-5.0712,-7.222,-7.4487,-7.6784,-7.6746,-7.6976,-7.6707,-7.4745,-7.4091,-7.3322,-7.1321,-7.0898,-7.0475,-6.909,-6.859,-6.8321,-6.8052,-6.7475,-6.7513,-6.8667,-6.939,-7.0705,-7.3178,-7.6394,-7.8798,-7.9808,-8.0631,-8.1093,-8.1093,-8.1093,-8.1093,-8.1093,-8.0285,-7.9939,-8.0208,-7.9361,-7.89,-7.89,-7.8092,-7.7246,-7.6399,-7.5515,-7.4668,-7.386,-7.2706,-7.2206,-7.2129,-7.1283,-7.0898,-7.0783,-6.909,-6.8385,-6.8231,-6.6551,-6.5166,-6.4051,-6.3512,-6.2589,-6.1512,-6.0973,-6.0781,-6.0781,-6.0781,-6.0781,-6.0781,-6.0781,-6.0781,-6.0781,-6.0781,-6.0781,-6.0781,-6.0781,-6.0781,-6.0781,-6.0781,-6.0781,-6.0781,-6.0781,-6.0781,-6.0781,-6.0781,-6.0781,-6.0781,-6.0781,-6.0781,-6.0781,-6.0781,-6.0781,-6.0781,-6.0781,-6.0781,-6.0781,-6.0781,-5.9319,-5.8204,-5.7896,-5.6549,-5.5703,-5.5703,-5.5703,-5.5703,-5.5703,-5.4934,-5.4357,-5.4087,-5.2654,-5.1769,-5.151,-5.0971,-5.0712,-5.0712,-5.1279,-5.151,-7.099,-7.3098,-7.5091,-7.5168,-7.5361,-7.5168,-7.3822,-7.3245,-7.2629,-7.1206,-7.0667,-7.0014,-6.8667,-6.8129,-6.7821,-6.7513,-6.7013,-6.6936,-6.7782,-6.8667,-7.0167,-7.2706,-7.6455,-7.9073,-7.9615,-8.0295,-8.0838,-8.1077,-8.1093,-8.0977,-8.0631,-7.9785,-7.9169,-7.8861,-7.8323,-7.8054,-7.8054,-7.6899,-7.6053,-7.5515,-7.4322,-7.3476,-7.2976,-7.2091,-7.1706,-7.1668,-7.1129,-7.0744,0.0,-6.8975,-6.8205,-6.7782,-6.6436,-6.5051,-6.3743,-6.3423,-6.2435,-6.1243,-6.0896,-6.0781,-6.0781,-6.0781,-6.0781,-6.0781,-6.0781,-6.0781,-6.0781,-6.0781,-6.0781,-6.0781,-6.0781,-6.0781,-6.0781,-6.0781,-6.0781,-6.0781,-6.0781,-6.0781,-6.0781,-6.0781,-6.0781,-6.0781,-6.0781,-6.0781,-6.0781,-6.0781,-6.0781,-6.0781,-6.0781,-6.0781,-6.0781,-6.0781,-5.9319,-5.8319,-5.8319,-5.6703,-5.5703,-5.5703,-5.5703,-5.5703,-5.5703,-5.5203,-5.4818,-5.4511,-5.3126,-5.2385,-5.2385,-5.1895,-5.1471,-5.1164,-5.1654,-5.1885,0.0,-7.2081,-7.3591,-7.5168,-7.5014,-7.4322,-7.3514,-7.2706,0.0,-7.0975,-7.0167,-6.936,-6.8552,-6.7628,-6.6782,-6.609,-6.5936,-6.6167,-6.6898,-6.7948,-6.955,-7.2024,-7.404,-7.5715,-7.7047,-7.8838,-8.0199,-8.0821,-8.0885,-8.0554,-7.9746,-7.89,-7.8015,-7.7207,-7.713,-7.713,-7.713,-7.5438,-7.4591,-7.4514,-7.2937,-7.2168,-7.2091,-7.1283,-7.0898,-7.0898,-7.0898,-7.0437,-6.9629,-6.8783,-6.7898,-6.7013,-6.6128,-6.5282,-6.4397,-6.3551,-6.2704,-6.1908,-6.1089,-6.0781,-6.0781,-6.0781,-6.0781,-6.0781,-6.0781,-6.0781,-6.0781,-6.0781,-6.0781,-6.0781,-6.0781,-6.0781,-6.0781,-6.0781,-6.0781,-6.0781,-6.0781,-6.0781,-6.0781,-6.0781,-6.0781,-6.0781,-6.0781,-6.0781,-6.0781,-6.0781,-6.0781,-6.0781,-6.0781,-6.0781,-6.0781,-6.0781,-5.9319,-5.8319,-5.8319,-5.6703,-5.5703,-5.5703,-5.5703,-5.5703,-5.5703,-5.5703,-5.5357,-5.4587,-5.3741,-5.328,-5.3203,-5.3126,-5.2692,-5.1885,-5.1885,-5.1885,-6.8115,0.0,-7.0706,-7.1091,-7.1975,-7.2552,0.0,-7.136,-7.0975,-7.0167,-6.9321,-6.8629,-6.8423,-6.7167,-6.632,-6.6744,-6.6282,-6.5974,-6.6167,-6.8746,-7.1336,-7.3259,-7.5227,-7.6293,-7.602,-7.7379,-7.8331,-7.8479,-7.8881,-7.9015,-7.8823,-7.8015,-7.7169,-7.6322,-7.5668,-7.5322,-7.5322,-7.4284,-7.3437,-7.2783,-7.2399,-7.186,-7.1206,-7.0975,-7.0898,-7.0898,-7.0898,-7.0437,-6.9629,-6.8783,-6.7898,-6.6936,-6.5474,-6.4359,-6.3512,-6.2666,-6.182,-6.1089,-6.0858,-6.0781,-6.0781,-6.0781,-6.0781,-6.0781,-6.0781,-6.0781,-6.0781,-6.0781,-6.0781,-6.0781,-6.0781,-6.0781,-6.0781,-6.0781,-6.0781,-6.0781,-6.0781,-6.0781,-6.0781,-6.0781,-6.0781,-6.0781,-6.0781,-6.0781,-6.0781,-6.0781,-6.0781,-6.0781,-6.0781,-6.0781,-6.0781,-6.0781,-5.9319,-5.8319,-5.8319,-5.6703,-5.5703,-5.5703,-5.5703,-5.5703,-5.5703,-5.5703,-5.5588,-5.5434,-5.4626,-5.3857,-5.3203,-5.2538,-5.2115,-5.1885,-5.1885,-5.1885,-6.7392,-6.8617,-6.9783,-7.0167,-7.1245,-7.1975,-7.1091,-7.0591,-7.0129,-6.9283,-6.8398,-6.7705,-6.7321,-6.6513,-6.5897,-6.5936,-6.5936,-6.6167,-6.6936,-6.9088,-7.1417,-7.3639,-7.4553,-7.5296,-7.6057,-7.657,-7.711,-7.7684,-7.7594,-7.7675,-7.7938,-7.6784,-7.5899,-7.5438,-7.4207,-7.3745,-7.4168,-7.3322,-7.2544,-7.1827,-7.166,-7.1007,-6.9949,-7.02,-7.0129,-6.9744,-6.9744,-6.9283,-6.8475,-6.8013,-6.7051,-6.5859,-6.4936,-6.3858,-6.2704,-6.2255,-6.155,-6.0781,-6.0781,-6.0781,-6.0781,-6.0781,-6.0781,-6.0781,-6.0781,-6.0781,-6.0781,-6.0781,-6.0781,-6.0781,-6.0781,-6.0781,-6.0781,-6.0781,-6.0781,-6.0781,-6.0781,-6.0781,-6.0781,-6.0781,-6.0781,-6.0781,-6.0781,-6.0781,-6.0781,-6.0781,-6.0781,-6.0781,-6.0781,-6.0781,-6.0781,-6.0781,-5.9319,-5.8319,-5.8319,-5.6703,-5.5703,-5.5703,-5.5703,-5.5703,-5.5703,-5.5703,-5.5511,-5.5164,-5.5088,-5.4626,-5.3818,-5.3703,-5.3472,-5.3087,-5.3087,-5.3087,-6.7392,-6.881,-7.0167,-7.0591,-7.136,-7.1783,-7.0898,-6.9975,-6.909,-6.8359,-6.7398,-6.659,-6.6167,-6.5782,-6.5359,-6.4897,-6.5436,-6.6513,-6.8359,-6.9267,-7.0654,-7.3092,-7.2913,-7.3432,-7.5562,-7.5396,-7.5614,-7.6731,-7.6178,-7.6067,-7.6692,-7.5322,-7.4476,-7.4322,-7.2937,-7.2447,-7.2967,-7.2237,-7.1651,-7.1218,-7.0708,-6.9889,-6.8798,-6.9212,-6.9036,-6.8385,-6.8385,-6.7898,-6.709,-6.6974,-6.6013,-6.4589,-6.432,-6.3358,-6.2101,-6.1947,-6.1435,-6.0781,-6.0781,-6.0781,-6.0781,-6.0781,-6.0781,-6.0781,-6.0781,-6.0781,-6.0781,-6.0781,-6.0781,-6.0781,-6.0781,-6.0781,-6.0781,-6.0781,-6.0781,-6.0781,-6.0781,-6.0781,-6.0781,-6.0781,-6.0781,-6.0781,-6.0781,-6.0781,-6.0781,-6.0781,-6.0781,-6.0781,-6.0781,-6.0781,-6.0742,-6.0627,-5.9204,-5.8242,-5.8127,-5.6626,-5.5703,-5.5703,-5.5703,-5.5703,-5.5703,-5.5703,-5.5395,-5.4703,-5.5241,-5.5164,-5.4511,-5.4934,-5.478,-5.4126,-5.4241,-5.428,-6.7392,-6.9662,-7.1514,-7.0206,-7.0514,-7.0898,-7.0052,-6.8667,-6.7475,-6.7321,-6.6051,-6.5397,-6.6667,-6.5166,-6.4128,-6.5474,-6.582,-6.6744,-6.9167,-6.9827,-7.0296,-7.0947,-7.1126,-7.1206,-7.1135,-7.1501,-7.2014,-7.2662,-7.3003,-7.3428,-7.4063,-7.3822,-7.336,-7.2591,-7.2322,-7.1679,-7.0632,-7.0479,-7.0369,-7.0286,-6.9111,-6.8617,-6.8798,-6.8193,-6.8104,-6.8385,-6.8385,-6.7898,-6.7051,-6.6359,-6.5513,-6.4474,-6.3051,-6.2332,-6.2024,-6.1281,-6.0896,-6.0781,-6.0781,-6.0781,-6.0781,-6.0781,-6.0781,-6.0781,-6.0781,-6.0781,-6.0781,-6.0781,-6.0781,-6.0781,-6.0781,-6.0781,-6.0781,-6.0781,-6.0781,-6.0781,-6.0781,-6.0781,-6.0781,-6.0781,-6.0781,-6.0781,-6.0781,-6.0781,-6.0781,-6.0781,-6.0781,-6.0781,-6.0781,-6.0781,-6.0512,-5.9781,-5.8858,-5.8011,-5.7253,-5.628,-5.5703,-5.5703,-5.5703,-5.5703,-5.5703,-5.5703,-5.5626,-5.5511,-5.4972,-5.4626,-5.4511,-5.3126,-5.2423,-5.2308,-5.3049,-5.3395,-6.6854,-6.85,-7.0052,-6.9783,-7.136,-7.2399,-7.0206,-6.8706,-6.7398,-6.6013,-6.5128,-6.4705,-6.4974,-6.4859,-6.5243,-6.6974,-6.7244,-6.7513,-6.8205,-6.8541,-6.8841,-6.9124,-6.9394,-6.9706,-7.0083,-7.0364,-7.0759,-7.1335,-7.1412,-7.1899,-7.2936,-7.2438,-7.1992,-7.1781,-7.1321,-7.0615,-6.9683,-6.8959,-6.8573,-6.8593,-6.7823,-6.7316,-6.7085,-6.6983,-6.6972,-6.7051,-6.7051,-6.6551,-6.5705,-6.5359,-6.4436,-6.3166,-6.2409,-6.1831,-6.137,-6.0935,-6.0781,-6.0781,-6.0781,-6.0781,-6.0781,-6.0781,-6.0781,-6.0781,-6.0781,-6.0781,-6.0781,-6.0781,-6.0781,-6.0781,-6.0781,-6.0781,-6.0781,-6.0781,-6.0781,-6.0781,-6.0781,-6.0781,-6.0781,-6.0781,-6.0781,-6.0781,-6.0781,-6.0781,-6.0781,-6.0781,-6.0781,-6.0781,-6.0781,-6.0781,-6.0666,-6.0242,-5.905,-5.8127,-5.7742,-5.6472,-5.5703,-5.5703,-5.5703,-5.5703,-5.5703,-5.5703,-5.5703,-5.5703,-5.5318,-5.5164,-5.5164,-5.3895,-5.3549,-5.3933,-5.3933,-5.4126,-6.662,-6.7658,-6.8783,-6.9013,-7.1014,-7.2476,-7.0706,-6.9013,-6.7359,-6.582,-6.5166,-6.4705,-6.4051,-6.5013,-6.632,-6.7628,-6.7975,-6.791,-6.7291,-6.7439,-6.7645,-6.781,-6.8032,-6.8519,-6.9458,-6.9522,-6.9674,-7.0089,-6.9992,-7.0363,-7.1391,-7.0737,-7.046,-7.0798,-6.9942,-6.9281,-6.8826,-6.7457,-6.6932,-6.7282,-6.6593,-6.6039,-6.5596,-6.5811,-6.5925,-6.5897,-6.5667,-6.5205,-6.4589,-6.4166,-6.3243,-6.2101,-6.187,-6.1408,-6.0781,-6.0781,-6.0781,-6.0781,-6.0781,-6.0781,-6.0781,-6.0781,-6.0781,-6.0781,-6.0781,-6.0781,-6.0781,-6.0781,-6.0781,-6.0781,-6.0781,-6.0781,-6.0781,-6.0781,-6.0781,-6.0781,-6.0781,-6.0781,-6.0781,-6.0781,-6.0781,-6.0781,-6.0781,-6.0781,-6.0781,-6.0781,-6.0781,-6.0781,-6.0781,-6.0781,-6.0666,-6.0242,-5.9088,-5.8127,-5.7742,-5.6472,-5.578,-5.5972,-5.5818,-5.5703,-5.5703,-5.5703,-5.5703,-5.5703,-5.5511,-5.5434,-5.5434,-5.4587,-5.4511,-5.5088,-5.4703,-5.4818,-6.7314,-6.8539,-6.9244,-6.7667,-6.7475,-6.8398,-7.136,-6.8936,-6.6474,-6.7859,-6.6898,-6.5782,-6.5705,-6.582,-6.5936,-6.6051,-6.6705,-6.7291,-6.7537,-6.7572,-6.7519,-6.7375,-6.7379,-6.7505,-6.7841,-6.7898,-6.7793,-6.757,-6.7926,-6.813,-6.7959,-6.8345,-6.8719,-6.8989,-6.8204,-6.7693,-6.7448,-6.5874,-6.5814,-6.7282,-6.5275,-6.4753,-6.5596,-6.486,-6.5047,-6.5859,-6.5051,-6.4666,-6.4474,-6.2897,-6.2216,-6.2024,-6.1204,-6.0858,-6.0781,-6.0781,-6.0781,-6.0781,-6.0781,-6.0781,-6.0781,-6.0781,-6.0781,-6.0781,-6.0781,-6.0781,-6.0781,-6.0781,-6.0781,-6.0781,-6.0781,-6.0781,-6.0781,-6.0781,-6.0781,-6.0781,-6.0781,-6.0781,-6.0781,-6.0781,-6.0781,-6.0781,-6.0781,-6.0781,-6.0781,-6.0781,-6.0781,-6.0781,-6.0781,-6.0781,-6.0204,-5.8665,-5.8357,-5.7665,-5.6011,-5.578,-5.6049,-5.6868,-5.6137,-5.5703,-5.5703,-5.5703,-5.5703,-5.5703,-5.4972,-5.4587,-5.4587,-5.3703,-5.3318,-5.3395,-5.4164,-5.4511,-6.6114,-6.7039,-6.7936,-6.7244,-6.632,-6.6167,-6.8513,-6.7782,-6.6667,-6.6821,-6.632,-6.5743,-6.5205,-6.5089,-6.5436,-6.6474,-6.6474,-6.6397,-6.6532,-6.6445,-6.6125,-6.5506,-6.5803,-6.6282,-6.6906,-6.6512,-6.636,-6.6764,-6.6797,-6.69,-6.7088,-6.7341,-6.7511,-6.7561,-6.6973,-6.6453,-6.605,-6.4967,-6.4709,-6.53,-6.3959,-6.3672,-6.4362,-6.4387,-6.4465,-6.4575,-6.4616,-6.4012,-6.3012,-6.237,-6.1793,-6.1243,-6.0935,-6.0781,-6.0781,-6.0781,-6.0781,-6.0781,-6.0781,-6.0781,-6.0781,-6.0781,-6.0781,-6.0781,-6.0781,-6.0781,-6.0781,-6.0781,-6.0781,-6.0781,-6.0781,-6.0781,-6.0781,-6.0781,-6.0781,-6.0781,-6.0781,-6.0781,-6.0781,-6.0781,-6.0781,-6.0781,-6.0781,-6.0781,-6.0781,-6.0781,-6.0781,-6.0781,-6.0781,-6.0781,-6.0358,-5.9165,-5.8127,-5.7203,-5.656,-5.6011,-5.6049,-5.6945,-5.6175,-5.5934,-5.6483,-5.5972,-5.5703,-5.5703,-5.5395,-5.5241,-5.5241,-5.4395,-5.428,-5.4741,-5.4587,-5.478,-6.5336,-6.5692,-6.632,-6.632,-6.5243,-6.4628,-6.632,-6.6705,-6.6705,-6.6705,-6.6051,-6.5205,-6.4359,-6.4205,-6.4474,-6.5359,-6.5282,-6.5013,-6.487,-6.46,-6.4237,-6.3723,-6.4146,-6.4861,-6.5668,-6.5485,-6.5301,-6.5338,-6.5554,-6.5618,-6.5434,-6.5859,-6.6142,-6.6169,-6.5603,-6.518,-6.4934,-6.409,-6.3686,-6.3686,-6.3099,-6.3086,-6.3593,-6.3875,-6.3906,-6.3818,-6.3821,-6.3166,-6.2101,-6.1793,-6.1331,-6.0781,-6.0781,-6.0781,-6.0781,-6.0781,-6.0781,-6.0781,-6.0781,-6.0781,-6.0781,-6.0781,-6.0781,-6.0781,-6.0781,-6.0781,-6.0781,-6.0781,-6.0781,-6.0742,-6.0473,-6.0589,-6.0781,-6.0781,-6.0781,-6.0781,-6.0781,-6.0781,-6.0781,-6.0781,-6.0781,-6.0781,-6.0781,-6.0781,-6.0746,-6.061,-6.0597,-6.0597,-6.0597,-6.0597,-6.0212,-5.9231,-5.7857,-5.6983,-5.6983,-5.6445,-5.6472,-5.7368,-5.6319,-5.5972,-5.656,-5.6011,-5.5703,-5.5703,-5.5703,-5.5703,-5.5703,-5.5164,-5.5164,-5.5703,-5.5126,-5.5164,-6.533,-6.4831,-6.4589,-6.4589,-6.3935,-6.3782,-6.5513,-6.5897,-6.6359,-6.8052,-6.6359,-6.432,-6.3474,-6.3269,-6.3012,-6.2216,-6.2743,-6.3118,-6.2665,-6.2197,-6.1977,-6.2258,-6.258,-6.3135,-6.398,-6.4787,-6.4604,-6.289,-6.4012,-6.4056,-6.246,-6.3648,-6.4495,-6.4786,-6.4018,-6.3725,-6.4079,-6.3246,-6.278,-6.278,-6.278,-6.3049,-6.3556,-6.3235,-6.332,-6.3688,-6.2593,-6.2101,-6.2024,-6.1166,-6.0781,-6.0781,-6.0781,-6.0781,-6.0781,-6.0781,-6.0781,-6.0781,-6.0781,-6.0781,-6.0781,-6.0781,-6.0781,-6.0781,-6.0781,-6.0781,-6.0781,-6.0781,-6.0781,-6.0589,-5.9704,-6.0127,-6.0781,-6.0781,-6.0781,-6.0781,-6.0781,-6.0781,-6.0781,-6.0781,-6.0781,-6.0781,-6.0781,-6.0781,-6.0634,-6.0161,-6.0103,-6.0103,-6.0103,-6.0103,-5.9633,-5.8427,-5.755,-5.7011,-5.7011,-5.7011,-5.7396,-5.8231,-5.6665,-5.5703,-5.5703,-5.5703,-5.5703,-5.5703,-5.5703,-5.5703,-5.5703,-5.5703,-5.5703,-5.5703,-5.5703,-5.5703,-6.3902,-6.394,-6.4436,-6.3858,-6.3935,-6.4512,-6.5628,-6.5897,-6.6205,-6.7282,-6.5474,-6.3628,-6.3346,-6.2358,-6.1666,-6.2062,-6.1781,-6.1707,-6.2183,-6.152,-6.1035,-6.1112,-6.1612,-6.2291,-6.3099,-6.2879,-6.2732,-6.278,-6.2131,-6.1661,-6.1544,-6.2109,-6.2643,-6.3109,-6.3053,-6.3113,-6.3172,-6.2952,-6.278,-6.278,-6.2218,-6.2022,-6.2201,-6.2476,-6.222,-6.1561,-6.1605,-6.1454,-6.1166,-6.0896,-6.0781,-6.0781,-6.0781,-6.0781,-6.0781,-6.0781,-6.0781,-6.0781,-6.0781,-6.0396,-5.9973,-6.0589,-6.0012,-5.9165,-5.9704,-5.9896,-5.9896,-5.9896,-5.9896,-5.9819,-5.9588,-5.9281,-5.9165,-5.9742,-5.9896,-6.005,-6.0666,-6.0781,-6.0781,-6.0781,-6.0781,-6.0781,-6.0781,-6.0521,-6.0283,-6.0132,-5.9823,-5.9744,-6.0074,-5.9569,-5.9026,-5.8678,-5.7926,-5.7513,-5.7757,-5.7572,-5.7773,-5.8615,-5.7347,-5.6599,-5.6599,-5.6011,-5.5703,-5.5703,-5.5703,-5.5703,-5.5703,-5.5703,-5.5703,-5.5703,-5.5703,-5.5703,-6.4331,-6.4104,-6.4128,-6.4282,-6.4474,-6.4743,-6.5243,-6.5397,-6.5513,-6.6013,-6.4359,-6.282,-6.282,-6.1704,-6.0973,-6.1512,-6.1127,-6.0973,-6.1524,-6.0723,-6.0222,-6.0561,-6.0608,-6.097,-6.1777,-6.141,-6.119,-6.1349,-6.0786,-6.0401,-6.0418,-6.1148,-6.175,-6.2048,-6.256,-6.278,-6.278,-6.2475,-6.2328,-6.2328,-6.152,-6.097,-6.0663,-6.1174,-6.1122,-6.0634,-6.1004,-6.1032,-6.0781,-6.0781,-6.0781,-6.0781,-6.0781,-6.0781,-6.0781,-6.0781,-6.0781,-6.0742,-6.0396,-5.9935,-5.9511,-5.9742,-5.9127,-5.8396,-5.8896,-5.9011,-5.9011,-5.9011,-5.9011,-5.8934,-5.8588,-5.8165,-5.805,-5.9242,-5.9511,-5.9742,-6.0589,-6.0781,-6.0781,-6.0781,-6.0647,-6.0597,-6.0757,-6.0391,-6.0103,-6.0103,-5.969,-5.9424,-5.9526,-5.8954,-5.8517,-5.8517,-5.8084,-5.7861,-5.8089,-5.7905,-5.8083,-5.874,-5.7468,-5.681,-5.6973,-5.6165,-5.5703,-5.5703,-5.5703,-5.5703,-5.5703,-5.5703,-5.5703,-5.5703,-5.5703,-5.5703,-6.5725,-6.4763,-6.3743,-6.5551,-6.5397,-6.4782,-6.4551,-6.4474,-6.4474,-6.4474,-6.3205,-6.2101,-6.2101,-6.1408,-6.0781,-6.0781,-6.0781,-6.0781,-6.0781,-5.9977,-5.9691,-6.041,-5.9717,-5.9478,-6.0236,-6.0309,-6.0015,-5.9258,-5.9832,-5.9869,-5.9111,-6.0566,-6.1374,-6.1374,-6.2181,-6.256,-6.256,-6.1851,-6.1484,-6.1484,-6.0676,-5.9905,-5.9208,-5.9641,-6.009,-6.0501,-6.0709,-6.0781,-6.0781,-6.0781,-6.0742,-6.0704,-6.0781,-6.0704,-6.0589,-6.0666,-6.0627,-6.0473,-5.9665,-5.9358,-5.9165,-5.8511,-5.8204,-5.8088,-5.8165,-5.8165,-5.8165,-5.8165,-5.8165,-5.8011,-5.7214,-5.6945,-5.733,-5.8973,-5.9396,-5.9627,-6.0473,-6.0742,-6.0781,-6.0781,-6.0443,-6.0255,-6.0647,-6.0324,-5.9946,-5.9916,-5.9576,-5.9176,-5.8736,-5.8427,-5.8206,-5.8171,-5.8154,-5.8154,-5.8101,-5.8136,-5.8358,-5.8834,-5.7392,-5.6703,-5.7088,-5.6203,-5.5703,-5.5703,-5.5703,-5.5703,-5.5703,-5.5703,-5.5703,-5.5703,-5.5703,-5.5703,-6.4273,-6.3854,-6.3858,-6.6244,-6.6705,-6.6051,-6.4051,-6.3589,-6.3589,-6.3589,-6.2781,-6.2101,-6.2101,-6.1408,-6.0781,-6.0781,-6.0781,-6.0781,-6.0781,-5.9977,-5.9465,-5.9653,-5.9404,-5.9258,-5.9441,-5.9441,-5.9368,-5.9184,-5.8767,-5.8437,-5.8253,-5.9208,-5.9722,-5.9722,-6.0493,-6.0933,-6.0933,-6.075,-6.0676,-6.0639,-5.9832,-5.9368,-5.9184,-5.9288,-5.9483,-5.9705,-6.0455,-6.0781,-6.0781,-6.0781,-6.0396,-5.9858,-6.0512,-6.0012,-5.8896,-5.955,-5.9396,-5.8819,-5.8627,-5.8127,-5.7627,-5.8127,-5.7357,-5.6395,-5.706,-5.7291,-5.7291,-5.7291,-5.7291,-5.7253,-5.706,-5.6483,-5.6434,-5.8165,-5.855,-5.8781,-5.9588,-6.0319,-6.0781,-6.0781,-6.0443,-6.0132,-6.0217,-5.9543,-5.8874,-5.8524,-5.8693,-5.8815,-5.8696,-5.8934,-5.8985,-5.8612,-5.8574,-5.8415,-5.803,-5.8371,-5.8765,-5.9244,-5.8616,-5.8194,-5.8038,-5.6511,-5.5703,-5.5703,-5.5703,-5.5703,-5.5703,-5.5703,-5.5703,-5.5703,-5.5703,-5.5703,-6.4609,-6.4524,-6.4497,-6.6589,-6.6821,-6.5974,-6.3782,-6.3012,-6.2627,-6.2204,-6.1781,-6.1485,-6.1485,-6.0781,-6.0319,-6.0742,-6.0435,-6.0319,-6.0742,-5.9977,-5.9389,-5.9389,-5.8921,-5.8621,-5.8621,-5.8621,-5.8621,-5.8621,-5.8253,-5.7997,-5.7997,-5.8767,-5.9184,-5.9184,-5.9979,-6.0419,-6.0419,-6.0015,-5.9832,-5.9832,-5.9024,-5.8722,-5.8976,-5.9181,-5.9478,-5.9792,-6.0495,-6.0781,-6.0781,-6.0781,-6.0281,-5.955,-6.0012,-5.9396,-5.8357,-5.8781,-5.8665,-5.8242,-5.7819,-5.7357,-5.7022,-5.7049,-5.6434,-5.578,-5.6252,-5.6368,-5.6368,-5.6368,-5.6368,-5.6368,-5.6368,-5.6049,-5.6011,-5.7357,-5.7665,-5.8127,-5.9781,-5.9969,-5.9971,-6.0393,-5.9901,-5.9492,-5.9744,-5.9354,-5.8874,-5.8397,-5.8528,-5.8611,-5.8397,-5.857,-5.8632,-5.8375,-5.8354,-5.826,-5.802,-5.8216,-5.8673,-5.9354,-5.8797,-5.842,-5.8296,-5.7011,-5.6126,-5.5703,-5.5703,-5.5703,-5.5703,-5.5703,-5.5703,-5.5703,-5.5703,-5.5703,-6.5172,-6.563,-6.5587,-6.6827,-6.6639,-6.5664,-6.3755,-6.2781,-6.2024,-6.1012,-6.0781,-6.0781,-6.0781,-6.0211,-5.9991,-6.0677,-6.0096,-5.9837,-6.0677,-5.9921,-5.9324,-5.9407,-5.8652,-5.8074,-5.802,-5.7997,-5.7997,-5.7997,-5.7997,-5.7997,-5.7997,-5.8621,-5.8964,-5.8964,-5.9648,-5.9979,-5.9979,-5.9355,-5.8964,-5.8964,-5.8327,-5.8304,-5.8835,-5.9212,-5.968,-6.0132,-6.0456,-6.0666,-6.0781,-6.0473,-5.9935,-5.9281,-5.9281,-5.8704,-5.7857,-5.8011,-5.7973,-5.7742,-5.7022,-5.6791,-5.6676,-5.5934,-5.5703,-5.5703,-5.5703,-5.5818,-5.5895,-5.5742,-5.5818,-5.5895,-5.5742,-5.5703,-5.5972,-5.6983,-5.7099,-5.7676,-6.005,-5.9753,-5.925,-5.9951,-5.9337,-5.8796,-5.9084,-5.9139,-5.9047,-5.8652,-5.8652,-5.8508,-5.8088,-5.8051,-5.8074,-5.802,-5.7997,-5.7997,-5.7997,-5.7997,-5.8354,-5.9212,-5.8528,-5.8129,-5.8165,-5.7412,-5.6676,-5.5934,-5.5934,-5.5857,-5.5703,-5.5857,-5.5857,-5.5703,-5.5703,-5.5703,-6.3819,-6.5745,-6.7247,-6.7348,-6.7289,-6.6503,-6.388,-6.3243,-6.2704,-6.1127,-6.0781,-6.0781,-6.0781,-6.0797,-6.08,-6.0789,-6.0228,-5.9988,-6.0712,-5.9687,-5.9003,-5.9365,-5.8932,-5.8461,-5.8042,-5.7997,-5.7997,-5.7997,-5.7997,-5.7997,-5.7997,-5.8107,-5.8143,-5.8143,-5.8253,-5.8327,-5.8327,-5.8217,-5.8143,-5.8143,-5.8033,-5.8461,-5.9302,-5.9372,-5.968,-6.0094,-5.9791,-6.0089,-6.0704,-5.9242,-5.8588,-5.8473,-5.8473,-5.7473,-5.6126,-5.6907,-5.6703,-5.6011,-5.5895,-5.5857,-5.5857,-5.5742,-5.5703,-5.5703,-5.5703,-5.6252,-5.6676,-5.5895,-5.6252,-5.6637,-5.5895,-5.5703,-5.6126,-5.7742,-5.755,-5.7484,-5.9281,-5.9792,-5.9951,-6.0065,-5.9337,-5.8591,-5.8238,-5.8209,-5.8186,-5.8097,-5.8439,-5.8508,-5.8088,-5.8332,-5.8461,-5.8065,-5.7997,-5.7997,-5.7997,-5.7997,-5.8216,-5.8756,-5.835,-5.8002,-5.769,-5.7246,-5.6945,-5.683,-5.683,-5.6445,-5.5703,-5.6483,-5.6445,-5.5703,-5.5703,-5.5703,-6.416,-6.5465,-6.639,-6.7211,-6.668,-6.5489,-6.37,-6.2935,-6.229,-6.1155,-6.0915,-6.0915,-6.0915,-6.0586,-6.0511,-6.0993,-5.9938,-5.9344,-6.0123,-5.9037,-5.8265,-5.8631,-5.8259,-5.7983,-5.7992,-5.7997,-5.7997,-5.7997,-5.7997,-5.7997,-5.7997,-5.7997,-5.7997,-5.7997,-5.7997,-5.7997,-5.7997,-5.7997,-5.7997,-5.7997,-5.7997,-5.8503,-5.9389,-5.8881,-5.9071,-5.9767,-5.9569,-5.9473,-5.9358,-5.8588,-5.8011,-5.755,-5.755,-5.678,-5.5742,-5.6126,-5.6011,-5.5703,-5.5703,-5.5703,-5.5703,-5.5703,-5.5703,-5.5703,-5.5703,-5.5972,-5.6214,-5.5818,-5.5972,-5.6175,-5.578,-5.5703,-5.6011,-5.728,-5.7665,-5.805,-5.9242,-5.9248,-5.8959,-5.8934,-5.8591,-5.8238,-5.8042,-5.7997,-5.7997,-5.7997,-5.8186,-5.8216,-5.8042,-5.8186,-5.8216,-5.802,-5.7997,-5.7997,-5.7997,-5.7997,-5.8172,-5.8673,-5.8783,-5.8667,-5.8268,-5.8373,-5.8204,-5.7742,-5.7253,-5.7049,-5.7165,-5.7049,-5.6791,-5.6406,-5.5934,-5.5703,-6.3773,-6.425,-6.457,-6.6151,-6.5536,-6.4259,-6.3263,-6.2725,-6.2144,-6.1184,-6.1191,-6.1303,-6.1143,-6.0621,-6.0455,-6.12,-5.9983,-5.9156,-5.9706,-5.8655,-5.7859,-5.7964,-5.7751,-5.7647,-5.7825,-5.7941,-5.7997,-5.7997,-5.7997,-5.7997,-5.7997,-5.7997,-5.7997,-5.7997,-5.7997,-5.7997,-5.7997,-5.7997,-5.7997,-5.7997,-5.7997,-5.8439,-5.9212,-5.8679,-5.8646,-5.901,-5.89,-5.8665,-5.828,-5.7819,-5.7396,-5.6983,-5.6753,-5.6291,-5.5703,-5.5703,-5.5703,-5.5703,-5.5703,-5.5703,-5.5703,-5.5703,-5.5703,-5.5703,-5.5703,-5.5857,-5.5972,-5.5742,-5.5857,-5.6011,-5.6011,-5.6011,-5.628,-5.7368,-5.8127,-5.8773,-5.9332,-5.892,-5.8371,-5.8039,-5.7997,-5.7997,-5.7997,-5.7997,-5.7997,-5.7997,-5.7997,-5.7997,-5.7997,-5.7997,-5.7997,-5.7997,-5.7997,-5.7997,-5.7997,-5.7997,-5.8164,-5.8524,-5.8859,-5.8921,-5.8631,-5.8987,-5.9011,-5.8627,-5.7973,-5.7857,-5.8319,-5.7665,-5.7319,-5.7291,-5.6203,-5.5818,-6.1413,-6.1702,-6.2086,-6.3829,-6.4062,-6.3598,-6.2573,-6.2821,-6.2826,-6.1301,-6.1646,-6.2083,-6.1573,-6.1452,-6.1385,-6.1306,-6.0616,-6.0027,-5.9824,-5.9013,-5.8268,-5.769,-5.7889,-5.7881,-5.7481,-5.7795,-5.7997,-5.7997,-5.7997,-5.7997,-5.7997,-5.7997,-5.7997,-5.7997,-5.7997,-5.7997,-5.7997,-5.7997,-5.7997,-5.7997,-5.7997,-5.826,-5.8736,-5.9138,-5.8716,-5.769,-5.7309,-5.7588,-5.8165,-5.6511,-5.6291,-5.6907,-5.6088,-5.5742,-5.5703,-5.5703,-5.5703,-5.5703,-5.5703,-5.5703,-5.5703,-5.5703,-5.5703,-5.5703,-5.5703,-5.6291,-5.6753,-5.5934,-5.6291,-5.6945,-5.6945,-5.6945,-5.733,-5.8973,-5.9396,-5.9421,-5.9414,-5.9386,-5.9065,-5.8172,-5.7997,-5.7997,-5.7997,-5.7997,-5.7997,-5.7997,-5.7997,-5.7997,-5.7997,-5.7997,-5.7997,-5.7997,-5.7997,-5.7997,-5.7997,-5.7997,-5.802,-5.8042,-5.8127,-5.8165,-5.8144,-5.827,-5.8704,-5.9435,-5.9396,-5.9011,-5.8319,-5.8242,-5.8242,-5.8204,-5.6472,-5.6126,-6.0552,-6.0687,-6.1074,-6.2824,-6.2708,-6.2167,-6.228,-6.2418,-6.2265,-6.1361,-6.1426,-6.1645,-6.1619,-6.1571,-6.1509,-6.1568,-6.0778,-5.9967,-5.9304,-5.8305,-5.7476,-5.6939,-5.742,-5.7678,-5.7429,-5.8025,-5.8348,-5.802,-5.7997,-5.7997,-5.7997,-5.7997,-5.7997,-5.7997,-5.7997,-5.7997,-5.7997,-5.7997,-5.7997,-5.7997,-5.7997,-5.8238,-5.8696,-5.8087,-5.7699,-5.7586,-5.7182,-5.7176,-5.7357,-5.6203,-5.6214,-5.6907,-5.6049,-5.5703,-5.5703,-5.5703,-5.5703,-5.5703,-5.5703,-5.5703,-5.5703,-5.5703,-5.5703,-5.5703,-5.5703,-5.5934,-5.6088,-5.578,-5.6329,-5.6983,-5.6983,-5.7434,-5.8127,-5.9242,-5.928,-5.9185,-5.9726,-5.9592,-5.9102,-5.8172,-5.7997,-5.7997,-5.7997,-5.7997,-5.7997,-5.7997,-5.7997,-5.7997,-5.7997,-5.7997,-5.7997,-5.7997,-5.7997,-5.7997,-5.7997,-5.7997,-5.7997,-5.7997,-5.833,-5.8634,-5.8919,-5.9268,-5.9716,-6.0319,-6.0319,-6.0204,-5.9896,-5.9358,-5.9088,-5.905,-5.7319,-5.6714,-5.9158,-5.9187,-5.9707,-6.1839,-6.1315,-6.0674,-6.209,-6.2027,-6.1604,-6.133,-6.1517,-6.1685,-6.1715,-6.1632,-6.1585,-6.1679,-6.1126,-6.0362,-5.9483,-5.8666,-5.7938,-5.7255,-5.7719,-5.8034,-5.7878,-5.8388,-5.8459,-5.7891,-5.7927,-5.7886,-5.7593,-5.785,-5.7997,-5.7997,-5.7997,-5.7997,-5.7997,-5.7997,-5.7997,-5.7997,-5.7997,-5.8091,-5.8229,-5.7581,-5.7245,-5.7167,-5.7373,-5.7291,-5.6945,-5.6368,-5.6483,-5.6907,-5.6049,-5.5703,-5.5703,-5.5703,-5.5703,-5.5703,-5.5703,-5.5703,-5.5703,-5.5703,-5.5703,-5.5703,-5.5703,-5.5703,-5.5703,-5.5703,-5.6126,-5.6643,-5.7078,-5.7915,-5.8859,-5.9549,-5.9349,-5.914,-5.9528,-5.9492,-5.9158,-5.8375,-5.8097,-5.7997,-5.7997,-5.7997,-5.7997,-5.7997,-5.7997,-5.7997,-5.7997,-5.7997,-5.7997,-5.7997,-5.7997,-5.7997,-5.7997,-5.7997,-5.7997,-5.7997,-5.8439,-5.8913,-5.9372,-5.9855,-6.0324,-6.0781,-6.0781,-6.0781,-6.0781,-5.9935,-5.9665,-5.9896,-5.8204,-5.7434,0.0,0.0,0.0,-6.0687,-5.99,-5.9173,-6.1875,-6.1569,-6.0832,-6.1182,-6.1867,-6.2265,-6.1793,-6.1719,-6.1719,-6.1719,-6.1719,-6.1365,-6.0351,-6.0182,-5.9767,-5.863,-5.8857,-5.9048,-5.8835,-5.8759,-5.8418,-5.7578,-5.7839,-5.7652,-5.6859,-5.7556,-5.7997,-5.7997,-5.7997,-5.7997,-5.7997,-5.7997,-5.7997,-5.796,-5.7997,-5.7774,-5.7407,-5.7844,-5.7434,-5.6404,-5.7719,-5.778,-5.6983,-5.6983,-5.6983,-5.6907,-5.6049,-5.5703,-5.5703,-5.5703,-5.5703,-5.5703,-5.5703,-5.5703,-5.5703,-5.5703,-5.5703,-5.5703,-5.5703,-5.5703,-5.5703,-5.5742,-5.5742,-5.6038,-5.7336,-5.8515,-5.9509,-5.9977,-5.976,-5.9266,-5.8835,-5.9103,-5.923,-5.8756,-5.8326,-5.7997,-5.7997,-5.7997,-5.7997,-5.7997,-5.7997,-5.7997,-5.7997,-5.7997,-5.7997,-5.7997,-5.7997,-5.7997,-5.7997,-5.7997,-5.7997,-5.7997,-5.8439,-5.8894,-5.9372,-5.9839,-6.0311,-6.0781,-6.0781,-6.0781,-6.0781,-5.9935,-5.9973,-6.0742,-5.9127,-5.8357,-5.6407,0.0,0.0,0.0,0.0,0.0,-5.9305,-5.9312,-5.9261,-6.0177,-6.0556,-6.091,-6.1598,-6.1719,-6.1719,-6.1719,-6.1719,-6.1367,-6.0466,-6.0249,-5.979,-5.8764,-5.9226,-5.9402,-5.8863,-5.9361,-5.9084,-5.7617,-5.8124,-5.8021,-5.6881,-5.7556,-5.7997,-5.7997,-5.7997,-5.7997,-5.7997,-5.7997,-5.7703,-5.7152,-5.7703,-5.7832,-5.7446,-5.7318,-5.7245,-5.7243,-5.7335,-5.7214,-5.6983,-5.6983,-5.6983,-5.6907,-5.6049,-5.5703,-5.5703,-5.5703,-5.5703,-5.5703,-5.5703,-5.5703,-5.5703,-5.5703,-5.5703,-5.5703,-5.5703,-5.5703,-5.5818,-5.6483,-5.6839,-5.736,-5.8575,-5.9135,-5.9509,-5.9977,-5.976,-5.9441,-5.9696,-5.9266,-5.8736,-5.8282,-5.8074,-5.7997,-5.7997,-5.7997,-5.7997,-5.7997,-5.7997,-5.7997,-5.7997,-5.7997,-5.7997,-5.7997,-5.7997,-5.7997,-5.7997,-5.7997,-5.7997,-5.7997,-5.8119,-5.8549,-5.9354,-5.9509,-5.9962,-6.0769,-6.0781,-6.0781,-6.0781,-6.055,-6.055,-6.0781,-5.9665,-5.9165,-5.5933,-5.6202,-5.6768,-5.7656,0.0,0.0,-5.8673,-5.8385,-5.8073,-5.9156,-5.9697,-6.0239,-6.0957,-6.1404,-6.1719,-6.1719,-6.1719,-6.1523,-6.1015,-6.0892,-6.0705,-6.0421,-6.0436,-6.0386,-6.0269,-6.0147,-5.9466,-5.7921,-5.8367,-5.828,-5.7359,-5.774,-5.7997,-5.7997,-5.7997,-5.7997,-5.7997,-5.7997,-5.7593,-5.6822,-5.7803,-5.7914,-5.7248,-5.7196,-5.7239,-5.7353,-5.7086,-5.6791,-5.6483,-5.6868,-5.6983,-5.6945,-5.6445,-5.6011,-5.5703,-5.5703,-5.5703,-5.5703,-5.5703,-5.5703,-5.5703,-5.5703,-5.5703,-5.5703,-5.5703,-5.5577,-5.5562,-5.606,-5.6601,-5.7305,-5.8521,-5.8821,-5.8951,-5.9407,-5.9139,-5.8894,-5.9158,-5.8776,-5.8375,-5.8326,-5.8142,-5.7997,-5.7997,-5.7997,-5.7997,-5.7997,-5.7997,-5.7997,-5.7997,-5.7997,-5.7997,-5.7997,-5.7997,-5.7997,-5.7997,-5.7997,-5.7997,-5.7997,-5.7997,-5.8418,-5.9354,-5.9389,-5.9855,-6.0769,-6.0781,-6.0781,-6.0781,-6.0781,-6.0781,-6.0781,-6.0281,-6.005,-5.5703,-5.5703,-5.6085,-5.7761,-5.7024,0.0,-5.8815,-5.8143,-5.7261,-5.8175,-5.9068,-5.9771,-6.0129,-6.0924,-6.1523,-6.1562,-6.164,-6.1719,-6.1719,-6.1719,-6.1988,-6.2725,-6.2011,-6.1681,-6.2283,-6.1139,-5.9783,-5.8381,-5.8484,-5.8392,-5.8042,-5.7997,-5.7997,-5.7997,-5.7997,-5.7997,-5.7997,-5.7923,-5.7519,-5.6822,-5.7888,-5.7885,-5.6899,-5.727,-5.7302,-5.6983,-5.6907,-5.6406,-5.578,-5.6637,-5.6945,-5.6868,-5.6868,-5.6368,-5.5703,-5.5703,-5.5703,-5.5703,-5.5703,-5.5703,-5.5703,-5.5703,-5.5682,-5.5621,-5.5621,-5.5363,-5.504,-5.5075,-5.5685,-5.6573,-5.7563,-5.7871,-5.8039,-5.8462,-5.8264,-5.7941,-5.8074,-5.8042,-5.8119,-5.8528,-5.8282,-5.7997,-5.7997,-5.7997,-5.7997,-5.7997,-5.7997,-5.7997,-5.7997,-5.7997,-5.7997,-5.7997,-5.7997,-5.7997,-5.7997,-5.7997,-5.7997,-5.7997,-5.7997,-5.8418,-5.9354,-5.9389,-5.9855,-6.0769,-6.0781,-6.0781,-6.0781,-6.0781,-6.0781,-6.0781,-6.0781,-6.0781,-5.5703,-5.5703,-5.5801,-5.6133,-5.6487,0.0,-5.6557,-5.6757,-5.7107,-5.74,-5.7598,-5.824,-5.9882,-6.0349,-6.0526,-6.0625,-6.125,-6.1719,-6.1719,-6.1719,-6.1988,-6.2725,-6.2623,-6.2531,-6.2549,-6.2125,-6.1036,-5.9074,-5.8199,-5.7798,-5.7983,-5.7997,-5.7997,-5.7997,-5.7997,-5.7997,-5.7997,-5.7373,-5.6969,-5.6785,-5.6698,-5.6743,-5.6899,-5.6662,-5.6741,-5.6945,-5.6252,-5.5857,-5.578,-5.6637,-5.6599,-5.5934,-5.5934,-5.5857,-5.5703,-5.5703,-5.5703,-5.5703,-5.5703,-5.5703,-5.5703,-5.5703,-5.547,-5.5212,-5.5212,-5.4919,-5.4683,-5.4958,-5.6089,-5.7069,-5.6298,-5.6825,-5.7624,-5.7725,-5.7664,-5.7769,-5.8401,-5.826,-5.8042,-5.8119,-5.8051,-5.7997,-5.7997,-5.7997,-5.7997,-5.7997,-5.7997,-5.7997,-5.7997,-5.7997,-5.7997,-5.7997,-5.7997,-5.7997,-5.7997,-5.7997,-5.7997,-5.7997,-5.7997,-5.8418,-5.9354,-5.9389,-5.9855,-6.0769,-6.0781,-6.0781,-6.0781,-6.0781,-6.0781,-6.0781,-6.0781,-6.0781,-5.7011,-5.7011,-5.7011,-5.7011,-5.7011,0.0,0.0,-5.6368,-5.6487,-5.7014,-5.7134,-5.7637,-5.9093,-5.9459,-5.9724,-6.0218,-6.0701,-6.1211,-6.164,-6.207,-6.2655,-6.3464,-6.3479,-6.3403,-6.3354,-6.2795,-6.1578,-5.9498,-5.8562,-5.8058,-5.8006,-5.7997,-5.7997,-5.7997,-5.7997,-5.7997,-5.7997,-5.7593,-5.7005,-5.622,-5.6831,-5.6847,-5.6328,-5.6532,-5.7016,-5.7588,-5.6742,-5.6588,-5.7011,-5.7022,-5.6753,-5.6368,-5.6368,-5.6088,-5.5703,-5.5703,-5.5703,-5.5703,-5.5703,-5.5703,-5.5682,-5.5458,-5.525,-5.508,-5.4848,-5.45,-5.431,-5.507,-5.5891,-5.6515,-5.625,-5.697,-5.7629,-5.726,-5.7444,-5.7851,-5.8258,-5.8186,-5.7997,-5.7997,-5.7997,-5.7997,-5.7997,-5.7997,-5.7997,-5.7997,-5.7997,-5.7997,-5.7997,-5.7997,-5.7997,-5.7997,-5.7997,-5.7997,-5.7997,-5.7997,-5.7997,-5.7997,-5.7997,-5.8418,-5.9354,-5.9389,-5.9855,-6.0769,-6.0781,-6.0781,-6.0781,-6.0781,-6.0781,-6.0781,-6.0781,-6.0781,-5.8319,-5.8319,-5.8319,-5.8319,-5.7896,-5.7445,0.0,0.0,0.0,-5.6907,-5.7091,-5.74,-5.8139,-5.8431,-5.8858,-5.9787,-6.0179,-6.0624,-6.1367,-6.2344,-6.332,-6.4219,-6.405,-6.3948,-6.4104,-6.3068,-6.1624,-5.9879,-5.9166,-5.8632,-5.8164,-5.8065,-5.7997,-5.7997,-5.7997,-5.7997,-5.7997,-5.7666,-5.6969,-5.5853,-5.6818,-5.674,-5.5702,-5.6359,-5.7082,-5.778,-5.7242,-5.728,-5.7742,-5.7203,-5.6907,-5.6753,-5.6753,-5.6329,-5.5703,-5.5895,-5.5818,-5.5703,-5.5895,-5.5786,-5.5543,-5.5199,-5.4974,-5.479,-5.4371,-5.4072,-5.4069,-5.4896,-5.5464,-5.5904,-5.6271,-5.7042,-5.7593,-5.6969,-5.7299,-5.7813,-5.796,-5.7997,-5.7997,-5.7997,-5.7997,-5.7997,-5.7997,-5.7997,-5.7997,-5.7997,-5.7997,-5.7997,-5.7997,-5.7997,-5.7997,-5.7997,-5.7997,-5.7997,-5.7997,-5.8074,-5.8142,-5.8142,-5.8216,-5.8652,-5.9492,-5.9609,-6.0044,-6.0769,-6.0781,-6.0781,-6.0781,-6.0781,-6.0781,-6.0781,-6.0781,-6.0781,-5.8319,-5.8319,-5.8319,-5.8319,-5.8781,-5.9011,-5.8319,0.0,-5.8665,-5.7291,0.0,-5.7109,-5.7293,0.0,0.0,-5.8871,-5.9719,-6.0288,-6.0507,-6.1953,-6.332,-6.4219,-6.3593,-6.3437,-6.4218,-6.2563,-6.1097,-6.0281,-5.9665,-5.914,-5.8652,-5.8216,-5.7997,-5.7997,-5.7997,-5.7997,-5.7997,-5.6565,-5.6124,-5.6638,-5.5035,-5.4775,-5.5692,-5.5441,-5.5566,-5.6011,-5.6714,-5.6637,-5.6049,-5.6714,-5.656,-5.5857,-5.5857,-5.578,-5.578,-5.656,-5.6368,-5.5818,-5.6599,-5.611,-5.516,-5.5121,-5.4572,-5.3851,-5.3464,-5.3813,-5.4228,-5.3628,-5.5023,-5.6381,-5.5023,-5.5794,-5.6932,-5.6822,-5.6859,-5.7152,-5.785,-5.7997,-5.7997,-5.7997,-5.7997,-5.7997,-5.7997,-5.7997,-5.7997,-5.7997,-5.7997,-5.7997,-5.7997,-5.7997,-5.7997,-5.7997,-5.7997,-5.7997,-5.7997,-5.8375,-5.8611,-5.8611,-5.9028,-5.9475,-5.9977,-6.0443,-6.0671,-6.0781,-6.0781,-6.0781,-6.0781,-6.0781,-6.0781,-6.0781,-6.0781,-6.0781,-5.8934,-5.8934,-5.8992,-5.9291,-5.9216,-5.9077,-5.9004,-5.8896,-5.8742,-5.8511,0.0,0.0,0.0,0.0,0.0,0.0,-5.981,-6.0261,-6.085,-6.164,-6.2489,-6.3437,-6.3672,-6.3711,-6.3555,-6.2262,-6.1139,-6.0529,-5.9879,-5.9286,-5.8716,-5.826,-5.7997,-5.7997,-5.7997,-5.8142,-5.8397,-5.7751,-5.7085,-5.6492,-5.5884,-5.5396,-5.5012,-5.5057,-5.5874,-5.7203,-5.7049,-5.7319,-5.7857,-5.7253,-5.6791,-5.6406,-5.5895,-5.6011,-5.6445,-5.6291,-5.6329,-5.6412,-5.6048,-5.5543,-5.5002,-5.451,-5.3923,-5.3514,-5.3802,-5.4142,-5.4509,-5.5133,-5.6014,-5.6638,-5.5978,-5.6638,-5.7373,-5.6932,-5.7152,-5.7593,-5.7923,-5.7997,-5.7997,-5.7997,-5.7997,-5.7997,-5.7997,-5.7997,-5.7997,-5.7997,-5.7997,-5.7997,-5.7997,-5.7997,-5.7997,-5.7997,-5.7997,-5.7997,-5.7997,-5.8439,-5.8713,-5.8713,-5.9389,-5.9901,-6.0103,-6.0533,-6.0781,-6.0781,-6.0781,-6.0781,-6.0781,-6.0781,-6.0781,-6.0781,-6.0781,-6.0781,-5.9067,-5.9238,-5.9509,-5.9977,-5.9607,-5.9286,-5.9749,-5.9396,-5.9088,-5.9435,-5.905,0.0,0.0,0.0,-5.8749,-5.9641,0.0,-6.0255,-6.1161,-6.1373,-6.1813,-6.2844,-6.3554,-6.3594,-6.2734,-6.1932,-6.1318,-6.0841,-6.0177,-5.9543,-5.8914,-5.8461,-5.8142,-5.7997,-5.7997,-5.8164,-5.8487,-5.8409,-5.761,-5.6115,-5.6436,-5.5777,-5.4322,-5.4745,-5.5847,-5.7385,-5.7013,-5.7443,-5.8396,-5.7396,-5.6868,-5.6588,-5.6076,-5.6387,-5.709,-5.6335,-5.6295,-5.6549,-5.5746,-5.5137,-5.4602,-5.3906,-5.3571,-5.3665,-5.4216,-5.473,-5.528,-5.6198,-5.6785,-5.7079,-5.6859,-5.7409,-5.785,-5.7262,-5.7593,-5.7997,-5.7997,-5.7997,-5.7997,-5.7997,-5.7997,-5.7997,-5.7997,-5.7997,-5.7997,-5.7997,-5.7997,-5.7997,-5.7997,-5.7997,-5.7997,-5.7997,-5.7997,-5.7997,-5.7997,-5.8528,-5.9009,-5.9248,-5.9916,-6.0297,-6.0297,-6.0622,-6.0781,-6.0781,-6.0781,-6.0781,-6.0781,-6.0781,-6.0781,-6.0781,-6.0781,-6.0781,-5.8237,-5.8803,-5.9509,-5.9977,-6.0065,-6.0165,-6.0633,-6.0742,-6.0473,-5.9665,-5.9473,-5.9242,-5.8473,-5.8319,-5.862,-5.9654,-5.9813,0.0,0.0,-6.1289,-6.1661,-6.2672,-6.2959,-6.2695,-6.1836,-6.1619,-6.1424,-6.1289,-6.0664,-6.002,-5.9424,-5.8932,-5.8482,-5.802,-5.7997,-5.802,-5.802,-5.7703,-5.6908,-5.564,-5.5694,-5.5078,-5.3832,-5.4305,-5.4769,-5.5248,-5.6063,-5.6205,-5.5895,-5.6676,-5.6522,-5.5797,-5.6155,-5.681,-5.7551,-5.709,-5.6421,-5.581,-5.6216,-5.5237,-5.3777,-5.3359,-5.3739,-5.4363,-5.4399,-5.55,-5.6565,-5.5831,-5.6748,-5.7776,-5.7005,-5.7409,-5.7997,-5.796,-5.796,-5.7997,-5.7997,-5.7997,-5.7997,-5.7997,-5.7997,-5.7997,-5.7997,-5.7997,-5.7997,-5.7997,-5.7997,-5.7997,-5.7997,-5.7997,-5.7997,-5.7997,-5.7997,-5.7997,-5.7997,-5.8835,-5.9776,-6.0659,-6.0757,-6.0769,-6.0769,-6.0781,-6.0781,-6.0781,-6.0781,-6.0781,-6.0781,-6.0781,-6.0781,-6.0781,-6.0781,-6.0781,-5.7258,-5.7851,-5.8591,-5.9065,-5.9158,-5.9284,-5.9776,-5.987,-5.987,-5.9901,-5.9917,-5.9907,-5.9938,-5.9935,-6.0084,-6.0415,-6.0475,-6.0583,0.0,-6.1174,-6.1461,-6.1885,-6.2061,-6.2031,-6.1719,-6.1677,-6.1579,-6.1424,-6.0864,-6.0366,-6.0007,-5.9462,-5.8951,-5.8482,-5.8756,-5.8932,-5.8932,-5.8803,-5.7995,-5.6518,-5.6237,-5.5448,-5.4255,-5.4101,-5.4754,-5.5922,-5.5655,-5.5797,-5.6154,-5.6164,-5.5823,-5.539,-5.6049,-5.6436,-5.6694,-5.6876,-5.6746,-5.6413,-5.5714,-5.4895,-5.4285,-5.4648,-5.495,-5.517,-5.517,-5.5941,-5.6748,-5.6455,-5.7152,-5.7813,-5.7005,-5.7005,-5.7079,-5.6528,-5.6822,-5.7226,-5.7226,-5.7629,-5.7997,-5.7997,-5.7997,-5.7997,-5.7997,-5.7997,-5.7997,-5.7997,-5.7997,-5.7997,-5.7997,-5.7997,-5.7997,-5.7997,-5.7997,-5.7997,-5.7997,-5.8855,-5.9658,-6.0311,-6.0622,-6.0781,-6.0781,-6.0781,-6.0781,-6.0781,-6.0781,-6.0781,-6.0781,-6.0781,-6.0781,-6.0781,-6.0781,-6.0781,-5.5941,-5.6528,-5.7346,-5.807,-5.8266,-5.8479,-5.9246,-5.9389,-5.9475,-5.9792,-5.9855,-5.9977,-6.0469,-6.0533,-6.061,-6.0769,-6.0781,-6.0781,0.0,-6.1087,-6.1323,-6.1404,-6.1584,-6.1719,-6.1719,-6.1719,-6.1519,-6.108,-6.0622,-6.0244,-5.9869,-5.9292,-5.8947,-5.8971,-5.9065,-5.923,-5.9389,-5.9389,-5.8641,-5.7183,-5.674,-5.5807,-5.4444,-5.4,-5.4398,-5.5443,-5.5047,-5.5303,-5.5897,-5.5617,-5.5312,-5.5157,-5.5632,-5.5792,-5.5864,-5.6639,-5.6784,-5.6533,-5.5542,-5.5027,-5.4876,-5.5097,-5.5354,-5.5596,-5.5596,-5.5941,-5.6492,-5.7079,-5.7189,-5.7079,-5.6859,-5.6602,-5.6308,-5.6088,-5.6418,-5.6895,-5.7152,-5.7629,-5.7997,-5.7997,-5.7997,-5.7997,-5.7997,-5.7997,-5.7997,-5.7997,-5.7997,-5.7997,-5.7997,-5.7997,-5.7997,-5.7997,-5.7997,-5.8088,-5.8216,-5.8796,-5.9407,-6.0074,-6.0378,-6.0622,-6.0781,-6.0781,-6.1089,-6.1666,-6.1089,-6.1089,-6.1704,-6.1089,-6.0781,-6.0781,-6.0781,-6.0781]},{"header":{"parameterUnit":"m.s-1","parameterCategory":1,"la1":30.6,"la2":29.2853,"lo1":-89.7004,"lo2":-87.6739,"dy":0.0162,"dx":0.0183,"nx":112,"ny":82,"refTime":"2024-05-08T12:00:00:Z","depth":0,"parameterNumber":3,"parameterNumberName":"V-component_of_WINDS"},"data":[0.0,0.0,0.0,0.0,0.0,0.0,0.0,0.0,0.0,0.0,0.0,0.0,0.0,0.0,0.0,0.0,0.0,0.0,0.0,0.0,0.0,0.0,0.0,0.0,0.0,0.0,0.0,0.0,0.0,0.0,0.0,0.0,0.0,0.0,0.0,0.0,0.0,0.0,0.0,0.0,0.0,0.0,0.0,0.0,0.0,0.0,0.0,0.0,0.0,0.0,0.0,0.0,0.0,0.0,0.0,0.0,0.0,0.0,0.0,0.0,0.0,0.0,0.0,0.0,0.0,0.0,0.0,0.0,0.0,0.0,0.0,0.0,0.0,0.0,0.0,0.0,0.0,0.0,0.0,0.0,0.0,0.0,0.0,0.0,0.0,0.0,0.0,0.0,0.0,0.0,0.8357,0.5578,0.2158,0.0,0.0,0.0,0.0,0.0,0.0,0.0,0.0,0.0,0.0,0.0,0.0,0.0,0.0,0.0,0.0,0.0,0.0,0.0,0.0,0.0,0.0,0.0,0.0,0.0,0.0,0.0,0.0,0.0,0.0,0.0,0.0,0.0,0.0,0.0,0.0,0.0,0.0,0.0,0.0,0.0,0.0,0.0,0.0,0.0,0.0,0.0,0.0,0.0,0.0,0.0,0.0,0.0,0.0,0.0,0.0,0.0,0.0,0.0,0.0,0.0,0.0,0.0,0.0,0.0,0.0,0.0,0.0,0.0,0.0,0.0,0.0,0.0,0.0,0.0,0.0,0.0,0.0,0.0,0.0,0.0,0.0,0.0,0.0,0.0,0.0,0.0,0.0,0.0,0.0,0.0,0.0,0.0,0.0,0.0,0.0,0.0,0.0,0.0,0.0,0.0,0.0,0.0,0.0,0.0,0.0,0.0,0.0,0.0,0.7427,0.4274,0.1549,0.0,0.0,0.0,0.0,0.0,0.0,0.0,0.0,0.0,0.0,0.0,0.0,0.0,0.0,0.0,0.0,0.0,0.0,0.0,0.0,0.0,0.0,0.0,0.0,0.0,0.0,0.0,0.0,0.0,0.0,0.0,0.0,0.0,0.0,0.0,0.0,0.0,0.0,0.0,0.0,0.0,0.0,0.0,0.0,0.0,0.0,0.0,0.0,0.0,0.0,0.0,0.0,0.0,0.0,0.0,0.0,0.0,0.0,0.0,0.0,0.0,0.0,0.0,0.0,0.0,0.0,0.0,0.0,0.0,0.0,0.0,0.0,0.0,0.0,0.0,0.0,0.0,0.0,0.0,0.0,0.0,0.0,0.0,0.0,0.0,0.0,0.0,0.0,0.0,0.0,0.0,0.0,0.0,0.0,0.0,0.0,0.0,0.0,0.0,0.0,0.0,0.0,0.0,0.0,0.0,0.0,0.0,0.0,0.8076,0.6571,0.5577,0.218,0.0,0.0,0.0,0.0,0.0,0.0,0.0,0.0,0.0,0.0,0.0,0.0,0.0,0.0,0.0,0.0,0.0,0.0,0.0,0.0,0.0,0.0,0.0,0.0,0.0,0.0,0.0,0.0,0.0,0.0,0.0,0.0,0.0,0.0,0.0,0.0,0.0,0.0,0.0,0.0,0.0,0.0,0.0,0.0,0.0,0.0,0.0,0.0,0.0,0.0,0.0,0.0,0.0,0.0,0.0,0.0,0.0,0.0,0.0,0.0,0.0,0.0,0.0,0.0,0.0,0.0,0.0,0.0,0.0,0.0,0.0,0.0,0.0,0.0,0.0,0.0,0.0,0.0,0.0,0.0,0.0,0.0,0.0,0.0,0.0,0.0,0.0,0.0,0.0,0.0,0.0,0.0,0.0,0.0,0.0,0.0,0.0,0.0,0.0,0.0,0.0,0.0,0.0,0.0,0.0,0.0,0.0,0.0,0.8618,0.6104,0.6983,0.2785,0.0,0.0,0.0,0.0,0.0,0.0,0.0,0.0,0.0,0.0,0.0,0.0,0.0,0.0,0.0,0.0,0.0,0.0,0.0,0.0,0.0,0.0,0.0,0.0,0.0,0.0,0.0,0.0,0.0,0.0,0.0,0.0,0.0,0.0,0.0,0.0,0.0,0.0,0.0,0.0,0.0,0.0,0.0,0.0,0.0,0.0,0.0,0.0,0.0,0.0,0.0,0.0,0.0,0.0,0.0,0.0,0.0,0.0,0.0,0.0,0.0,0.0,0.0,0.0,0.0,0.0,0.0,0.0,0.0,0.0,0.0,0.0,0.0,0.0,0.0,0.0,0.0,0.0,0.0,0.0,0.0,0.0,0.0,0.0,0.0,0.0,0.0,0.0,0.0,0.0,0.0,0.0,0.0,0.0,0.0,0.0,0.0,0.0,0.0,0.0,0.0,0.0,0.0,0.0,0.0,0.0,0.0,0.0,0.86,0.644,0.6832,0.2738,0.0,0.0,0.0,0.0,0.0,0.0,0.0,0.0,0.0,0.0,0.0,0.0,0.0,0.0,0.0,0.0,0.0,0.0,0.0,0.0,0.0,0.0,0.0,0.0,0.0,0.0,0.0,0.0,0.0,0.0,0.0,0.0,0.0,0.0,0.0,0.0,0.0,0.0,0.0,0.0,0.0,0.0,0.0,0.0,0.0,0.0,0.0,0.0,0.0,0.0,0.0,0.0,0.0,0.0,0.0,0.0,0.0,0.0,0.0,0.0,0.0,0.0,0.0,0.0,0.0,0.0,0.0,0.0,0.0,0.0,0.0,0.0,0.0,0.0,0.0,0.0,0.0,0.0,0.0,0.0,0.0,0.0,0.0,0.0,0.0,0.0,0.0,0.0,0.0,0.0,0.0,0.0,0.0,0.0,0.0,0.0,0.0,0.0,0.0,0.0,0.0,0.0,0.0,0.0,0.0,0.0,0.0,0.0,0.8347,0.6119,0.6835,0.2792,0.0,0.0,0.0,0.0,0.0,0.0,0.0,0.0,0.0,0.0,0.0,0.0,0.0,0.0,0.0,0.0,0.0,0.0,0.0,0.0,0.0,0.0,0.0,0.0,0.0,0.0,0.0,0.0,0.0,0.0,0.0,0.0,0.0,0.0,0.0,0.0,0.0,0.0,0.0,0.0,0.0,0.0,0.0,0.0,0.0,0.0,0.0,0.0,0.0,0.0,0.0,0.0,0.0,0.0,0.0,0.0,0.0,0.0,0.0,0.0,0.0,0.0,0.0,0.0,0.0,0.0,0.0,0.0,0.0,0.0,0.0,0.0,0.0,0.0,0.0,0.0,0.0,0.0,0.0,0.0,0.0,0.0,0.0,0.0,0.0,0.0,0.0,0.0,0.0,0.0,0.0,0.0,0.0,0.0,0.0,0.0,0.0,0.0,0.0,0.0,0.0,0.0,0.0,0.0,0.0,0.0,0.0,1.1162,0.8209,0.5998,0.6691,0.2732,0.0,0.0,0.0,0.0,0.0,0.0,0.0,0.0,0.0,0.0,0.0,0.0,0.0,0.0,0.0,0.0,0.0,0.0,0.0,0.0,0.0,0.0,0.0,0.0,0.0,0.0,0.0,0.0,0.0,0.0,0.0,0.0,0.0,0.0,0.0,0.0,0.0,0.0,0.0,0.0,0.0,0.0,0.0,0.0,0.0,0.0,0.0,0.0,0.0,0.0,0.0,0.0,0.0,0.0,0.0,0.0,0.0,0.0,0.0,0.0,0.0,0.0,0.0,0.0,0.0,0.0,0.0,0.0,0.0,0.0,0.0,0.0,0.0,0.0,0.0,0.0,0.0,0.0,0.0,0.0,0.0,0.0,0.0,0.0,0.0,0.0,0.0,0.0,0.0,0.0,0.0,0.0,0.0,0.0,0.0,0.0,0.0,0.0,0.0,0.0,0.0,0.0,0.0,0.0,0.0,0.0,0.0,1.0927,0.8197,0.6102,0.64,0.2559,0.0,0.0,0.0,0.0,0.0,0.0,0.0,0.0,0.0,0.0,0.0,0.0,0.0,0.0,0.0,0.0,0.0,0.0,0.0,0.0,0.0,0.0,0.0,0.0,0.0,0.0,0.0,0.0,0.0,0.0,0.0,0.0,0.0,0.0,0.0,0.0,0.0,0.0,0.0,0.0,0.0,0.0,0.0,0.0,0.0,0.0,0.0,0.0,0.0,0.0,0.0,0.0,0.0,0.0,0.0,0.0,0.0,0.0,0.0,0.0,0.0,0.0,0.0,0.0,0.0,0.0,0.0,0.0,0.0,0.0,0.0,0.0,0.0,0.0,0.0,0.0,0.0,0.0,0.0,0.0,0.0,0.0,0.0,0.0,0.0,0.0,0.0,0.0,0.0,0.0,0.0,0.0,0.0,0.0,0.0,0.0,0.0,0.0,0.0,0.0,0.0,0.0,0.0,0.0,0.0,0.0,0.0,0.8927,0.7244,0.548,0.4383,0.1702,0.0,0.0,0.0,0.0,0.0,0.0,0.0,0.0,0.0,0.0,0.0,0.0,0.0,0.0,0.0,0.0,0.0,0.0,0.0,0.0,0.0,0.0,0.0,0.0,0.0,0.0,0.0,0.0,0.0,0.0,0.0,0.0,0.0,0.0,0.0,0.0,0.0,0.0,0.0,0.0,0.0,0.0,0.0,0.0,0.0,0.0,0.0,0.0,0.0,0.0,0.0,0.0,0.0,0.0,0.0,0.0,0.0,0.0,0.0,0.0,0.0,0.0,0.0,0.0,0.0,0.0,0.0,0.0,0.0,0.0,0.0,0.0,0.0,0.0,0.0,0.0,0.0,0.0,0.0,0.0,0.0,0.0,0.0,0.0,0.0,0.0,0.0,0.0,0.0,0.0,0.0,0.0,0.0,0.0,0.0,0.0,0.0,0.0,0.0,0.0,0.0,0.0,0.0,0.0,0.0,0.0,0.0,0.7881,0.613,0.4261,0.3301,0.1256,0.0,0.0,0.0,0.0216,0.0829,0.0,0.0,0.0,0.0,0.0,0.0,0.0,0.0,0.0,0.0,0.0,0.0,0.0,0.0,0.0,0.0,0.0,0.0,0.0,0.0,0.0,0.0,0.0,0.0,0.0,0.0,0.0,0.0,0.0,0.0,0.0,0.0,0.0,0.0,0.0,0.0,0.0,0.0,0.0,0.0,0.0,0.0,0.0,0.0,0.0,0.0,0.0,0.0,0.0,0.0,0.0,0.0,0.0,0.0,0.0,0.0,0.0,0.0,0.0,0.0,0.0,0.0,0.0,0.0,0.0,0.0,0.0,0.0,0.0,0.0,0.0,0.0,0.0,0.0,0.0,0.0,0.0,0.0,0.0,0.0,0.0,0.0,0.0,0.0,0.0,0.0,0.0,0.0,0.0,0.0,0.0,0.0,0.0,0.0,0.0,0.0,0.0,0.0,0.0,0.0,0.0,0.0,0.7274,0.4879,0.2857,0.2854,0.1131,0.0,0.0,0.0,0.063,0.215,0.0,0.0,0.0,0.0,0.0,0.0,0.0,0.0,0.0,0.0,0.0,0.0,0.0,0.0,0.0,0.0,0.0,0.0,0.0,0.0,0.0,0.0,0.0,0.0,0.0,0.0,0.0,0.0,0.0,0.0,0.0,0.0,0.0,0.0,0.0,0.0,0.0,0.0,0.0,0.0,0.0,0.0,0.0,0.0,0.0,0.0,0.0,0.0,0.0,0.0,0.0,0.0,0.0,0.0,0.0,0.0,0.0,0.0,0.0,0.0,0.289,0.2122,0.0,0.0,0.0,0.0,0.0,0.0,0.0,0.0,0.0,0.0,0.0,0.0,0.0,0.0,0.0,0.0,0.0,0.0,0.0,0.0,0.0,0.0,0.0,0.0,0.0,0.0,0.0,0.0,0.0,0.0,0.0,0.0,0.0,0.0,0.0,0.0,0.0,0.0,0.0,0.0,0.5305,0.3978,0.2307,0.0807,0.0292,0.0,0.0,0.0,0.0683,0.2316,0.1993,0.0,0.0,0.0,0.0,0.0,0.0,0.0,0.0,0.0,0.0,0.0,0.0,0.0,0.0,0.0,0.0,0.0,0.0,0.0,0.0,0.0,0.0,0.0,0.0,0.0,0.0,0.0,0.0,0.0,0.0,0.0,0.0,0.0,0.0,0.0,0.0,0.0,0.0,0.0,0.0,0.0,0.0,0.0,0.0,0.0,0.0,0.0,0.0,0.0,0.0,0.0,0.0,0.0,0.0,0.0,0.0,0.0,0.0,0.0,0.5672,0.429,0.0,0.0,0.0,0.0,0.0,0.0,0.0,0.0,0.0,0.0,0.0,0.0,0.0,0.0,0.0,0.0,0.0,0.0,0.0,0.0,0.0,0.0,0.0,0.0,0.0,0.0,0.0,0.0,0.0,0.0,0.0,0.0,0.0,0.0,0.0,0.0,0.0,0.0,0.0,0.0,0.4637,0.2945,0.1127,0.0143,0.0,0.0,0.0,0.0764,0.1966,0.3551,0.3577,0.0,0.0,0.0,0.0,0.0,0.0,0.0,0.0,0.0,0.0,0.0,0.0,0.0,0.0,0.0,0.0,0.0,0.0,0.0,0.0,0.0,0.0,0.0,0.0,0.0,0.0,0.0,0.0,0.0,0.0,0.0,0.0,0.0,0.0,0.0,0.0,0.0,0.0,0.0,0.0,0.0,0.0,0.0,0.0,0.0,0.0,0.0,0.0,0.0,0.0,0.0,0.0,0.0,1.1993,1.2067,1.2142,1.2169,1.2176,1.2012,0.8637,0.6909,0.6417,0.4459,0.0,0.0,0.0,0.0,0.0,0.0,0.0,0.0,0.0,0.0,0.0,0.0,0.0,0.0,0.0,0.0,0.0,0.0,0.0,0.0,0.0,0.0,0.4247,0.5762,0.4738,0.2861,0.092,0.0,0.0,0.0,0.0,0.0,0.0,0.0,0.0,0.0,0.0,0.0,0.4959,0.2482,0.0619,0.0903,0.0974,0.0974,0.0974,0.2338,0.378,0.5322,0.5361,0.6019,0.0,0.0,0.0,0.0,0.0,0.0,0.0,0.0,0.0,0.0,0.0,0.0,0.0,0.0,0.0,0.0,0.0,0.0,0.0,0.0,0.0,0.0,0.0,0.0,0.0,0.0,0.0,0.0,0.0,0.0,0.0,0.0,1.8894,1.4982,0.0,0.0,0.0,0.0,0.0,0.0,0.0,0.0,0.0,0.0,0.0,0.0,0.0,1.1993,1.1972,1.2379,1.2467,1.2237,1.2623,1.2684,1.2447,1.2583,1.2644,1.2559,1.2044,0.0,0.8602,0.6501,0.0,0.0,0.0,0.0,0.0,0.0,0.0,0.0,0.0,0.0,0.0,0.0,0.0,0.0,0.0,0.0,0.0,0.0,0.0,0.0,0.0,0.0,0.7679,0.805,0.6749,0.4851,0.2934,0.2409,0.2368,0.2349,0.3461,0.4413,0.0,0.0,0.0,0.0,0.0,0.0,0.6819,0.4361,0.2963,0.4518,0.472,0.472,0.472,0.4913,0.5741,0.729,0.7209,0.7832,0.9552,0.7674,0.0,0.0,0.0,0.0,0.0,0.0,0.0,0.0,0.0,0.0,0.0,0.0,0.0,0.0,0.0,0.0,0.0,0.0,0.0,0.0,0.0,0.0,0.0,0.0,0.0,0.0,0.0,0.0,0.0,2.0188,1.9851,1.7554,1.7106,1.5799,0.0,0.0,0.0,0.0,0.0,0.0,0.0,0.0,0.0,1.2325,1.2488,1.2647,1.2647,1.284,1.2915,1.2786,1.2983,1.3051,1.301,1.3078,1.3105,1.3105,1.3105,1.2455,1.13,0.8975,0.792,0.7476,0.0,0.0,0.0,0.0,0.4458,0.4532,0.5329,0.5591,0.5498,0.4591,0.0,0.0,0.0,0.0,0.0,0.0,0.0,0.5972,0.7849,0.8433,0.8804,0.9769,0.8679,0.6894,0.4844,0.437,0.3682,0.1588,0.1726,0.2509,0.3483,0.3566,0.0,0.0,0.0,0.4894,0.7398,0.569,0.4492,0.5295,0.5429,0.5429,0.5429,0.6297,0.7146,0.7898,0.8522,0.9231,0.9984,0.897,0.8014,0.0,0.0,0.0,0.0,0.0,0.0,0.0,0.0,0.0,0.0,0.0,0.0,0.0,0.0,0.0,0.0,0.0,0.0,0.0,0.0,0.0,0.0,0.0,0.0,0.0,0.0,0.0,0.0,2.1855,2.1171,1.9811,1.9647,1.8301,0.0,0.0,0.0,0.0,0.0,0.0,1.2277,1.2433,1.2651,1.2949,1.3105,1.3186,1.3186,1.3329,1.3363,1.3288,1.3288,1.3329,1.3403,1.3403,1.3376,1.3342,1.3342,1.3254,1.2997,1.1137,1.0201,0.9757,0.7598,0.6685,0.6625,0.6625,0.6539,0.6601,0.7093,0.7196,0.6983,0.5978,0.4068,0.2497,0.4189,0.0,0.0,0.0,0.0,0.6739,0.8628,0.9226,0.9537,1.0392,0.9936,0.8668,0.6174,0.5965,0.5347,0.2099,0.1707,0.2384,0.368,0.4259,0.0,0.7258,0.6583,0.6412,0.8253,0.7039,0.6231,0.6702,0.6765,0.6765,0.6765,0.7969,0.8701,0.8701,0.9557,1.0107,1.0107,0.9788,0.8972,0.7648,0.0,0.0,0.0,0.0,0.0,0.0,0.0,0.0,0.0,0.0,0.0,0.0,0.0,0.0,0.0,0.0,0.0,0.0,0.0,0.0,0.0,0.0,0.0,0.0,0.0,0.0,0.0,0.0,0.0,2.058,2.2182,0.0,0.0,0.0,0.0,1.5268,1.3497,1.2589,1.2981,1.3051,1.3268,1.3573,1.3722,1.3797,1.3797,1.3953,1.3885,1.3607,1.3607,1.3532,1.3403,1.3403,1.3322,1.3186,1.3186,1.3105,1.2949,1.2545,1.2246,1.1914,0.9635,0.8765,0.876,0.876,0.8688,0.8813,1.053,1.1008,1.0367,0.6753,0.3119,0.0504,0.232,0.2942,0.0,0.0,0.8275,0.8809,1.076,1.1127,1.0714,0.9209,1.0004,1.0058,0.6422,0.7051,0.7743,0.5746,0.6469,0.7503,0.7678,0.0,0.9367,0.7821,0.7662,0.8323,1.0162,0.8893,0.8501,1.0246,1.0452,1.0452,1.0452,1.0518,1.0585,1.0585,1.0368,1.027,1.027,0.9842,0.9606,0.9674,0.9258,0.0,0.0,0.0,0.0,0.0,0.0,0.0,0.0,0.0,0.0,0.0,0.0,0.0,0.0,0.0,0.0,0.0,0.0,0.0,0.0,0.0,0.0,0.0,0.0,0.0,0.0,0.0,0.0,2.3545,2.4804,0.0,2.1107,1.9084,1.7412,1.6182,1.4199,1.3214,1.3512,1.3668,1.3844,1.4055,1.4109,1.4041,1.3844,1.3899,1.3777,1.3485,1.3485,1.3451,1.3403,1.3403,1.337,1.3322,1.3322,1.3234,1.3078,1.2881,1.2651,1.2323,1.1459,1.1008,1.0933,1.0933,1.084,1.0794,1.1457,1.1579,1.0812,0.6951,0.4707,0.3601,0.4361,0.5404,0.6901,0.9429,1.0278,1.0525,1.1114,1.1274,1.0848,0.8899,0.8959,0.8734,0.6151,0.6245,0.69,0.7407,0.6913,0.6698,0.7789,0.8372,0.8851,0.9368,0.9475,0.9804,1.0557,1.0082,0.9981,1.0651,1.0717,1.0717,1.0717,1.0629,1.0575,1.0575,1.0297,1.0134,1.0134,0.9883,0.968,0.9544,0.9344,0.911,0.0,0.0,0.0,0.0,0.0,0.0,0.0,0.0,0.0,0.0,0.0,0.0,0.0,0.0,0.0,0.0,0.0,0.0,0.0,0.0,0.0,0.0,0.0,0.0,0.0,2.4676,2.5518,2.513,2.6373,2.6359,2.392,2.2076,2.0118,1.8017,1.598,1.457,1.398,1.4095,1.4197,1.4299,1.4299,1.4204,1.4,1.3946,1.3817,1.3627,1.3526,1.3478,1.3478,1.3424,1.337,1.3322,1.3275,1.3166,1.301,1.2868,1.2684,1.2494,1.24,1.2298,1.221,1.221,1.2081,1.1898,1.1796,1.126,1.0209,0.7647,0.6245,0.5578,0.5597,0.6951,0.8679,0.9862,1.0779,1.1355,1.1206,1.1206,1.0575,0.8011,0.7897,0.7807,0.5997,0.6133,0.7177,0.9052,0.7855,0.6854,0.7915,0.8469,0.9001,0.9635,1.0202,1.0622,1.0778,1.0751,1.0717,1.0717,1.0717,1.0717,1.0717,1.0629,1.0548,1.0493,1.0215,0.9963,0.9909,0.9781,0.9605,0.9462,0.9316,0.9083,0.8885,0.0,0.0,0.0,0.0,0.0,0.0,0.0,0.0,0.0,0.0,0.0,0.0,0.0,0.0,0.0,0.0,0.0,0.0,0.0,0.0,0.0,0.0,0.0,2.4302,2.5264,2.5798,2.5237,2.6934,2.7671,2.6251,2.5144,2.3461,2.0993,1.8781,1.6554,1.438,1.4299,1.4299,1.4299,1.4299,1.4299,1.4292,1.4143,1.4068,1.4055,1.377,1.3627,1.3614,1.3471,1.3322,1.3173,1.303,1.2881,1.2725,1.2569,1.2508,1.2501,1.2501,1.2501,1.2501,1.2494,1.2311,1.2013,1.1721,1.0305,0.8683,0.8713,0.7393,0.5777,0.5701,0.7102,0.8647,0.8438,0.9864,1.1348,1.1199,1.1056,1.0023,0.6533,0.6902,0.756,0.6034,0.7044,0.8859,1.078,0.9688,0.84,0.836,0.9667,1.0159,0.859,0.9728,0.0,1.0853,1.0812,1.0717,1.0717,1.0717,1.0717,1.0717,1.0711,1.0643,1.0487,1.0202,0.9909,0.9822,0.9537,0.9456,0.9598,0.93,0.9076,0.8885,0.0,0.0,0.0,0.0,0.0,0.0,0.0,0.0,0.0,0.0,0.0,0.0,0.0,0.0,0.0,0.0,0.0,0.0,0.0,0.0,0.0,2.469,2.5571,2.5491,2.6306,2.7001,2.735,2.7886,2.8154,2.7896,2.5905,2.3636,2.1302,1.8981,1.6761,1.438,1.4299,1.4299,1.4299,1.4299,1.4245,1.4136,1.4095,1.3966,1.3749,1.3668,1.3573,1.3464,1.3417,1.3376,1.3329,1.318,1.303,1.2888,1.2732,1.2603,1.2501,1.2501,1.2501,1.2488,1.2386,1.2155,1.187,1.1681,1.0305,0.8683,0.8566,0.7274,0.5933,0.7301,0.8053,0.8679,1.0116,1.0925,1.1192,1.1043,1.1056,1.0528,0.8123,0.7918,0.8089,0.7802,0.8001,0.8867,1.0607,1.0525,1.0172,1.0202,1.0484,1.0532,1.0098,1.0412,1.0738,1.0778,1.0744,1.0717,1.0717,1.0717,1.0717,1.0717,1.0527,1.0337,1.0181,0.989,0.9713,0.9673,0.9591,0.9517,0.9449,0.915,0.8981,0.0,0.0,0.0,0.0,0.0,0.0,0.0,0.0,0.0,0.0,0.0,0.0,0.0,0.0,0.0,0.0,0.0,0.0,0.0,0.0,0.0,0.0,2.5865,2.664,2.7014,2.7281,2.7615,2.8167,2.8221,2.8301,2.839,2.7029,2.4764,2.148,2.0009,1.7763,1.4476,1.4299,1.4299,1.4299,1.4299,1.4258,1.417,1.4102,1.3987,1.381,1.3688,1.358,1.3492,1.3431,1.3403,1.339,1.3173,1.3037,1.2942,1.2725,1.2583,1.2494,0.0,0.0,0.0,0.0,1.1986,1.1809,1.1667,1.0887,0.9916,0.9788,0.8965,0.8111,0.8389,0.8949,0.9573,1.0004,1.0556,1.1036,1.0894,1.0914,1.0487,0.8617,0.8146,0.8186,0.8352,0.8296,0.8706,1.0541,1.0833,0.0,1.0786,1.0778,1.0744,1.0806,1.0758,1.0744,1.0806,1.0758,1.0717,1.0717,1.0717,1.0717,1.0717,1.0507,0.0,0.0,0.0,0.9612,0.9422,0.9415,0.0,0.0,0.0,0.9001,0.8885,0.8885,0.0,0.0,0.9083,0.9157,0.0,0.0,0.0,0.0,0.0,0.0,0.0,0.0,0.0,0.0,0.0,0.0,0.0,0.0,0.0,0.0,2.7161,2.7696,2.8497,2.8136,2.7883,2.8207,2.8221,2.8221,2.8221,2.8221,2.6236,2.1566,2.1221,1.915,1.4564,1.4299,0.0,0.0,0.0,1.4299,1.4299,1.4163,1.4089,1.4068,1.379,1.3648,1.3627,1.3471,1.3403,1.3383,1.3105,1.2976,1.3015,1.2644,1.2508,1.2467,1.2338,1.2277,1.223,1.1938,1.1823,1.1789,1.166,0.0,0.0,1.1423,1.1362,1.1074,0.9279,0.9904,1.0793,0.9134,0.9755,1.0873,1.0785,1.0758,1.0324,0.8725,0.8329,0.8375,0.8586,0.8455,0.8801,1.0557,1.0812,1.0717,1.0717,1.0717,1.0765,1.0833,1.0806,1.0772,1.084,1.0739,1.0717,1.0717,1.0717,0.0,1.0717,1.0568,1.0405,1.0263,0.9964,0.9618,0.9275,0.9248,0.9117,0.8939,0.9083,0.9062,0.8885,0.8885,0.8892,0.8967,0.9076,0.9268,0.0,0.0,0.0,0.0,0.0,0.0,0.0,0.0,0.0,0.0,0.0,0.0,0.0,0.0,0.0,2.6694,2.7682,2.8404,2.8577,2.8511,2.8364,2.8248,2.8221,2.8221,2.8221,2.8221,2.6236,2.1566,2.1221,1.915,1.4564,1.4299,1.4299,1.4299,1.4299,1.4299,1.4299,1.4272,1.4197,1.4068,1.3885,0.0,1.3627,1.3471,1.3403,1.339,1.3207,1.3064,1.2949,1.2759,1.2542,1.2332,1.2298,1.2216,1.2088,1.1898,1.1755,1.1653,1.1626,1.1619,1.1572,1.1294,1.1206,1.1116,1.0584,1.0668,0.0,1.0711,1.0862,1.109,1.0941,1.0989,1.0988,1.0487,1.0306,1.0373,1.0357,1.0303,1.0259,1.0691,1.0744,1.0717,1.0717,1.0717,1.0731,1.0758,1.0738,1.0731,1.0758,1.0738,1.0717,1.0717,1.0717,1.0717,1.0717,1.0473,1.0256,1.0044,0.9815,0.9612,0.9523,0.9401,0.9327,0.9293,0.9089,0.8912,0.8885,0.8885,0.8994,0.9166,0.9022,0.9055,0.0,0.0,0.0,0.0,0.0,0.0,0.0,0.0,0.0,0.0,0.0,1.8968,2.2472,0.0,2.6907,2.7789,2.843,2.8818,2.8818,2.8698,2.8497,2.8261,2.8221,2.8221,2.8221,2.8221,2.6286,2.1644,2.1306,1.9296,1.4668,1.4407,1.4373,1.4299,1.4299,1.4299,1.4299,1.4299,1.4224,1.4068,1.3912,1.377,1.3627,1.3471,1.3403,1.339,1.3241,1.3132,1.3051,1.2827,1.2644,1.2494,1.2345,1.2149,1.1938,1.1857,1.1742,1.1619,1.1619,1.1619,1.1565,1.126,1.1234,1.1151,1.1077,1.1002,1.0914,1.1124,1.1111,1.1023,1.0873,1.0887,1.0921,1.0853,1.0766,1.0766,1.0766,1.0772,1.0717,1.0717,1.0717,1.0717,1.0717,1.0717,1.0717,1.0717,1.0717,1.0717,1.0717,1.0717,1.0717,1.0717,1.0717,1.0717,1.0717,1.0446,1.0181,0.9889,0.9734,0.9578,0.9496,0.9347,0.9232,0.9164,0.8959,0.8885,0.8885,0.8885,0.8974,0.9042,0.8974,0.9096,0.0,0.0,0.0,0.0,0.0,0.0,0.0,1.0833,1.2015,1.5323,1.7394,1.9894,2.4227,2.6361,2.7789,2.8871,2.9085,2.9125,2.9125,2.8925,2.8644,2.8355,2.8261,2.8221,2.8221,2.7799,2.5824,2.172,2.1028,1.892,1.4689,1.4509,1.4448,1.4306,1.4299,1.4299,1.4299,1.4299,1.4238,1.4116,1.396,1.3824,1.3709,1.3553,1.3471,1.3437,1.3254,1.3159,1.3112,1.284,1.2712,1.2664,1.2427,1.2149,1.187,1.1843,1.1742,1.1619,1.1619,1.1619,1.1572,1.1294,1.1206,1.1199,1.1138,1.1056,1.1009,1.1097,1.1056,1.0887,1.0806,1.0765,1.0758,1.0724,1.0717,1.0717,1.0717,1.0717,1.0717,1.0717,1.0717,1.0717,1.0717,1.0717,1.0717,1.0717,1.0717,1.0717,1.0717,1.0717,1.0717,1.0717,1.0717,1.0697,1.0636,1.0392,1.012,0.9836,0.9713,0.9585,0.9435,0.9337,0.913,0.8981,0.8898,0.8885,0.8885,0.8885,0.8885,0.8885,0.8967,0.9171,1.4292,1.2079,1.0934,1.1423,1.1355,1.094,0.0,1.0661,1.1876,1.2419,1.6303,2.028,2.2725,2.5903,2.827,2.8938,2.9259,2.9432,2.9432,2.9406,2.9179,2.8617,2.831,2.8221,2.8221,2.6321,2.4098,2.1632,1.9539,1.725,1.4599,1.4509,1.4448,1.4306,1.4299,1.4299,1.4299,1.4299,1.4292,1.4272,1.4116,1.4041,1.4014,1.3865,1.3722,1.3587,1.3295,1.3098,1.2969,1.28,1.2651,1.2522,1.2488,1.2298,1.202,1.1884,1.1742,1.1619,1.1619,1.1619,1.1592,1.1423,1.1362,1.1314,1.105,1.105,1.1118,1.1002,1.105,1.1104,1.0962,1.0853,1.082,1.0751,1.0717,1.0717,1.0717,1.0717,1.0717,1.0717,1.0717,1.0717,1.0717,1.0717,1.0717,1.0717,1.0717,1.0717,1.0717,1.0717,1.0717,1.0717,1.0717,1.0616,1.0351,1.0175,0.9943,0.9829,0.9808,0.9734,0.9591,0.9435,0.9286,0.9187,0.9001,0.8885,0.8885,0.8885,0.8885,0.8885,0.9069,0.9214,1.4718,1.3367,1.2564,1.187,1.1782,1.1395,0.9524,0.9628,1.0486,1.1939,1.5396,1.9254,2.2843,2.6331,2.8804,2.9232,2.9539,2.9673,2.9513,2.9486,2.8807,2.6809,2.6462,2.6325,2.6176,2.5335,2.3348,1.9793,1.8746,1.7155,1.4735,1.4645,1.4536,1.4306,1.4299,1.4299,1.4299,1.4299,1.4299,1.4299,1.4143,1.4075,1.4061,1.3824,1.3634,1.3492,1.3363,1.322,1.3071,1.2922,1.2773,1.2617,1.2447,1.225,1.2054,1.1986,1.1816,1.1619,1.1619,1.1558,1.1463,1.1307,1.1199,1.1111,1.0921,1.0989,1.1023,1.0894,1.0989,1.1002,1.0853,1.0745,1.0799,1.0738,1.0717,1.0717,1.0717,1.0717,1.0717,1.0717,1.0717,1.0717,1.0717,1.0717,1.0717,1.0717,1.0717,1.0717,1.0717,1.0717,1.0683,1.0595,1.0588,1.0466,1.0175,1.0024,0.9923,0.9829,0.9741,0.9632,0.9483,0.9334,0.9178,0.9028,0.8967,0.8885,0.8885,0.8885,0.8885,0.8885,0.9001,0.9028,1.5363,1.4557,1.3792,1.2269,1.1665,1.0886,0.8678,0.8161,0.8682,1.0381,1.3587,1.7519,2.2212,2.5835,2.8413,2.9344,2.9793,2.9967,2.9753,2.9659,2.8471,2.5592,2.52,2.4529,2.2977,2.2837,2.1663,1.8394,1.7721,1.6567,1.4838,1.474,1.4604,1.4306,1.4299,1.4299,1.4299,1.4299,1.4299,1.4299,1.419,1.4136,1.4122,1.3824,1.3607,1.3464,1.3417,1.3295,1.3105,1.3003,1.2847,1.2644,1.2433,1.223,1.2135,1.2135,1.1877,1.1619,1.1619,1.1545,1.1436,1.1321,1.1219,1.1049,1.1036,1.1009,1.0989,1.084,1.082,1.0793,1.0751,1.0717,1.0717,1.0717,1.0717,1.0717,1.0717,1.0717,1.0717,1.0717,1.0717,1.0717,1.0717,1.0717,1.0717,1.0717,1.0717,1.0717,1.0717,1.0717,1.0663,1.0507,1.046,1.0331,1.0011,0.995,0.9862,0.9774,0.97,0.9585,0.9388,0.933,0.9144,0.9001,0.8905,0.8885,0.8885,0.8885,0.8885,0.8885,0.8885,0.8885,1.6288,1.5188,1.3671,1.2381,1.0662,0.8769,0.6821,0.6414,0.6465,0.663,1.0503,1.518,1.9891,2.3466,2.6531,2.9066,2.9967,3.0341,3.0341,3.0087,2.8858,2.5954,2.5307,2.3217,1.8471,1.8025,1.81,1.8206,1.6091,1.4746,1.474,1.474,1.4604,1.4306,1.4299,1.4299,1.4299,1.4299,1.4299,1.4299,1.4292,1.4292,1.4285,1.3973,1.3756,1.3614,1.3464,1.3234,1.305,1.2963,1.2779,1.2508,1.2501,1.2318,1.2135,1.2135,1.1877,1.1619,1.1619,1.1613,1.1613,1.1606,1.1599,1.1545,1.1246,1.1158,1.1097,1.0806,1.0724,1.0724,1.0724,1.0717,1.0717,1.0717,1.0717,1.0717,1.0717,1.0717,1.0717,1.0717,1.0717,1.0717,1.0717,1.0717,1.0717,1.0717,1.0717,1.0717,1.0717,1.0717,1.0663,1.0507,1.0371,1.0222,1.0004,0.9856,0.9768,0.9625,0.9741,0.9686,0.9395,0.9374,0.93,0.9207,0.9008,0.8885,0.8885,0.8885,0.8885,0.8885,0.8885,0.8885,1.6858,1.6583,1.5947,1.3173,1.1051,0.9088,0.7062,0.5454,0.4809,0.6295,0.9146,1.2803,1.7548,2.2053,2.5444,2.6686,2.8728,3.006,3.006,3.0154,2.9079,2.599,2.4129,2.1714,1.8139,1.7873,1.7299,1.5823,1.5132,1.4699,1.459,1.459,1.4502,1.4306,1.4299,1.4299,1.4299,1.4299,1.4299,1.4299,1.4197,1.4095,1.3987,1.379,1.362,1.3471,1.3315,1.3139,1.2942,1.2739,1.2542,1.2338,1.2135,1.1993,1.1898,1.1803,1.1708,1.1619,1.1619,1.1484,1.1335,1.1436,1.1335,1.1089,1.105,1.1023,1.0982,1.0778,1.0717,1.0717,1.0717,1.0717,1.0717,1.0717,1.0717,1.0717,1.0717,1.0717,1.0717,1.0717,1.0717,1.0717,1.0717,1.0717,1.0717,1.0717,1.0717,1.0717,1.0717,1.0717,1.0622,1.0378,1.031,1.0175,0.9917,0.9849,0.9802,0.9754,0.9707,0.9591,0.9388,0.9344,0.9164,0.9015,0.8905,0.8885,0.8885,0.8885,0.8885,0.8885,0.8885,0.8885,1.7346,1.7441,1.7133,1.3734,1.0779,0.8379,0.7023,0.4947,0.4027,0.6199,0.8518,1.16,1.6303,2.0566,2.3748,2.5199,2.7748,2.9713,3.0034,3.006,2.904,2.6229,2.4397,2.1914,1.8321,1.8055,1.7072,1.4689,1.4604,1.4618,1.4516,1.4509,1.4448,1.4306,1.4299,1.4299,1.4299,1.4299,1.4272,1.4217,1.4122,1.3966,1.3763,1.3675,1.3512,1.3315,1.3214,1.3064,1.2861,1.2603,1.242,1.2264,1.2013,1.1877,1.1823,1.1728,1.1626,1.1538,1.1538,1.1409,1.126,1.1362,1.1226,1.1023,1.1023,1.0989,1.0847,1.0765,1.0717,1.0717,1.0717,1.0717,1.0717,1.0717,1.0717,1.0717,1.0717,1.0717,1.0717,1.0717,1.0717,1.0717,1.0717,1.0717,1.0717,1.0717,1.0717,1.0717,1.0717,1.067,1.0548,1.0304,1.0229,1.01,0.9842,0.9822,0.9774,0.9673,0.9632,0.9517,0.9306,0.9262,0.9166,0.9015,0.8912,0.8885,0.8885,0.8885,0.8885,0.8885,0.8885,0.8885,1.7898,1.7812,1.7395,1.4018,0.9958,0.67,0.67,0.4947,0.3942,0.6196,0.844,1.134,1.5861,1.8808,2.1505,2.4441,2.7129,2.9176,3.0194,2.986,2.8793,2.6816,2.6039,2.3677,1.884,1.83,1.7153,1.4675,1.4502,1.4502,1.4502,1.4502,1.4441,1.4306,1.4299,1.4299,1.4299,1.4299,1.4224,1.4075,1.4061,1.3905,1.3627,1.362,1.3458,1.3173,1.3166,1.2996,1.2705,1.2549,1.2393,1.225,1.2101,1.1952,1.1816,1.1809,1.1633,1.1389,1.1375,1.1369,1.1369,1.1375,1.1274,1.1151,1.1151,1.1056,1.0847,1.0765,1.0717,1.0717,1.0717,1.0717,1.0717,1.0717,1.0717,1.0717,1.0717,1.0717,1.0717,1.0717,1.0717,1.0717,1.0717,1.0717,1.0717,1.0717,1.0717,1.0717,1.0711,1.0582,1.0432,1.0283,1.0203,0.9992,0.9836,0.9822,0.97,0.9422,0.9537,0.9476,0.9234,0.9214,0.9207,0.92,0.9008,0.8885,0.8885,0.8885,0.8885,0.8885,0.8885,0.8885,1.8717,1.8495,1.8167,1.4187,0.9958,0.67,0.67,0.4947,0.3934,0.6133,0.8156,1.0366,1.3133,1.585,1.8535,2.1256,2.4516,2.7446,2.9495,2.9953,2.9814,2.8806,2.709,2.4574,2.1145,1.9265,1.7105,1.4537,1.4353,1.4353,1.4353,1.4353,1.434,1.4299,1.4299,1.4299,1.4299,1.4299,1.4224,1.4068,1.3953,1.3804,1.3627,1.3512,1.3356,1.3166,1.3064,1.284,1.2542,1.2277,1.2081,1.1932,1.1789,1.1708,1.166,1.1545,1.1457,1.1362,1.1138,1.1063,1.1077,1.1185,1.1124,1.1002,1.1002,1.0907,1.0847,1.0765,1.0717,1.0717,1.0717,1.0717,1.0717,1.0717,1.0717,1.0717,1.0717,1.0717,1.0717,1.0717,1.0717,1.0717,1.0717,1.0717,1.0717,1.0717,1.0717,1.0677,1.0568,1.0514,1.0392,1.0134,1.0073,0.9992,0.9836,0.9822,0.9788,0.9713,0.9646,0.9523,0.9334,0.9268,0.9103,0.8994,0.8898,0.8885,0.8885,0.8885,0.8885,0.8885,0.8885,0.8885,2.0617,1.9662,1.8724,1.5607,1.144,0.7944,0.6991,0.6487,0.6199,0.6391,0.8758,1.1089,1.2203,1.4641,1.695,1.8508,2.2509,2.5982,2.77,2.9115,2.9953,2.9873,2.8539,2.6044,2.2257,2.0548,1.8223,1.4571,1.4299,1.4299,1.4299,1.4299,1.4299,1.4299,1.4299,1.4299,1.4299,1.4231,1.4122,1.3966,1.3817,1.3634,1.3424,1.3342,1.318,1.2976,1.2895,1.2691,1.2393,1.2155,1.1972,1.1816,1.1674,1.1579,1.1511,1.1423,1.1307,1.1172,1.0941,1.084,1.0873,1.1023,1.0968,1.0793,1.086,1.0833,1.0833,1.0744,1.0717,1.0717,1.0717,1.0717,1.0717,1.0717,1.0717,1.0717,1.0717,1.0717,1.0717,1.0717,1.0717,1.0717,1.0717,1.0717,1.0717,1.0717,1.0717,1.0643,1.0426,1.0399,1.031,1.0011,0.993,0.9856,0.9829,0.9822,0.9795,0.9734,0.9591,0.9442,0.9344,0.9137,0.9022,0.8885,0.8885,0.8885,0.8885,0.8885,0.8885,0.8885,0.8885,0.8885,2.2301,2.0805,1.9091,1.7016,1.3248,0.955,0.7683,0.8561,0.9207,0.7072,0.9728,1.24,1.2257,1.4129,1.5939,1.6461,2.0869,2.4644,2.5766,2.7991,2.9673,3.0181,2.9512,2.7169,2.248,2.1578,1.9281,1.4659,1.4299,1.4299,1.4299,1.4299,1.4299,1.4299,1.4299,1.4299,1.4299,1.417,1.4014,1.3838,1.3715,1.3498,1.32,1.318,1.3024,1.2759,1.2739,1.2549,1.225,1.2115,1.1959,1.1789,1.1667,1.1538,1.1416,1.1375,1.1199,1.09,1.086,1.0833,1.0744,1.0806,1.0759,1.0744,1.0813,1.0759,1.0717,1.0717,1.0717,1.0717,1.0717,1.0717,1.0717,1.0717,1.0717,1.0717,1.0717,1.0717,1.0717,1.0717,1.0717,1.0717,1.0717,1.0717,1.0717,1.0717,1.0717,1.0622,1.0344,1.029,1.0215,0.9977,0.9835,0.9822,0.9822,0.9822,0.9768,0.9646,0.9496,0.934,0.9248,0.9042,0.8905,0.8885,0.8885,0.8885,0.8885,0.8885,0.8885,0.8885,0.8885,0.8885,2.0394,1.9957,1.9062,1.5188,1.2313,1.0238,0.9443,0.9544,0.9511,0.863,1.0463,1.2094,1.1938,1.2574,1.3823,1.6089,1.9478,2.2739,2.5319,2.7877,2.9526,2.9619,2.7813,2.5287,2.2086,1.999,1.7524,1.4571,1.4299,1.4299,1.4299,1.4299,1.4299,1.4299,1.4299,1.4299,1.4299,1.4272,1.4122,1.3838,1.3817,1.3648,1.3356,1.3227,1.3078,1.2915,1.2786,1.2488,1.2101,1.2149,1.1898,1.1653,1.1626,1.1606,1.1552,1.1294,1.1172,1.109,1.0846,1.0744,1.0724,1.0751,1.0744,1.0724,1.0751,1.0744,1.0717,1.0717,1.0717,1.0717,1.0717,1.0717,1.0717,1.0717,1.0717,1.0717,1.0717,1.0717,1.0717,1.0717,1.0717,1.0717,1.0717,1.0717,1.0717,1.0717,1.0717,1.0656,1.048,1.0351,1.0175,0.989,0.9836,0.9822,0.9822,0.9822,0.9808,0.9788,0.9652,0.9503,0.9347,0.9255,0.9062,0.8885,0.8885,0.8885,0.8885,0.8885,0.8885,0.8885,0.8885,0.8885,1.9789,1.8995,1.7951,1.5892,1.3715,1.1734,1.0275,1.0687,1.1015,0.9293,1.0676,1.2108,1.187,1.2196,1.2909,1.4051,1.701,2.0061,2.2834,2.5634,2.791,2.9144,2.8253,2.603,2.2112,2.0482,1.8207,1.4564,1.4299,1.4299,1.4299,1.4299,1.4299,1.4299,1.4299,1.4299,1.4299,1.4224,1.4068,1.3838,1.377,1.3573,1.3275,1.3132,1.2983,1.2834,1.2678,1.2406,1.2135,1.2135,1.1884,1.1619,1.1619,1.1572,1.147,1.1246,1.1118,1.1023,1.0799,1.0717,1.0717,1.0717,1.0717,1.0717,1.0717,1.0717,1.0717,1.0717,1.0717,1.0717,1.0717,1.0717,1.0717,1.0717,1.0717,1.0717,1.0717,1.0717,1.0717,1.0717,1.0717,1.0717,1.0717,1.0717,1.0717,1.0717,1.0717,1.0663,1.0514,1.0432,1.0276,0.9909,0.9876,0.9849,0.9829,0.9822,0.9822,0.9822,0.9686,0.9544,0.9388,0.9289,0.9083,0.8885,0.8885,0.8885,0.8885,0.8885,0.8885,0.8885,0.8885,0.8885,1.8925,1.801,1.6877,1.656,1.5097,1.3212,1.1143,1.1937,1.239,1.0076,1.1014,1.2169,1.1925,1.2169,1.2393,1.2345,1.4885,1.7701,1.9889,2.3195,2.5908,2.7296,2.7421,2.5715,2.1329,2.0192,1.82,1.4557,1.4299,1.4299,1.4299,1.4299,1.4299,1.4299,1.4299,1.4299,1.4299,1.4183,1.4027,1.3838,1.3729,1.3512,1.3214,1.3037,1.2895,1.2766,1.2583,1.2352,1.2108,1.2074,1.1904,1.166,1.1633,1.1545,1.1416,1.1233,1.109,1.0968,1.0785,1.0717,1.0717,1.0717,1.0717,1.0717,1.0717,1.0717,1.0717,1.0717,1.0717,1.0717,1.0717,1.0717,1.0717,1.0717,1.0717,1.0717,1.0717,1.0717,1.0717,1.0717,1.0717,1.0717,1.0717,1.0717,1.0717,1.0717,1.0717,1.0677,1.0555,1.0541,1.0439,1.0112,1.0024,0.9923,0.9836,0.9822,0.9822,0.9822,0.972,0.9585,0.9435,0.9344,0.913,0.8988,0.8898,0.8885,0.8885,0.8885,0.8885,0.8885,0.8885,0.8885,1.6845,1.6984,1.6653,1.4873,1.4318,1.3961,1.315,1.3071,1.2942,1.1963,1.1986,1.2074,1.2047,1.2074,1.2182,1.244,1.4586,1.6597,1.7657,2.18,2.4221,2.2585,2.2375,2.1231,1.841,1.6217,1.4734,1.4299,1.4299,1.4299,1.4299,1.4299,1.4299,1.4299,1.4299,1.4299,1.4299,1.4285,1.4129,1.3838,1.3831,1.3668,1.337,1.3091,1.2956,1.2922,1.263,1.2413,1.2257,1.2121,1.1965,1.1796,1.1674,1.1613,1.1565,1.1267,1.122,1.1104,1.0819,1.0717,1.0717,1.0717,1.0717,1.0717,1.0717,1.0717,1.0717,1.0717,1.0717,1.0717,1.0717,1.0717,1.0717,1.0717,1.0717,1.0717,1.0717,1.0717,1.0717,1.0717,1.0717,1.0717,1.0717,1.0717,1.0717,1.0717,1.0717,1.0717,1.0704,1.0697,1.0636,1.0466,1.0209,0.9923,0.9836,0.9822,0.9822,0.9822,0.9808,0.9741,0.9591,0.9442,0.9286,0.9193,0.9008,0.8885,0.8885,0.8885,0.8885,0.8885,0.8885,0.8885,1.4157,1.4944,1.511,1.4315,1.4048,1.3871,1.3302,1.3105,1.2888,1.2318,1.2271,1.2271,1.2094,1.2135,1.2067,1.2094,1.2892,1.4273,1.6344,1.8356,2.0039,2.0928,2.1217,2.0343,1.8008,1.6984,1.5858,1.4387,1.4299,1.4299,1.4299,1.4299,1.4299,1.4299,1.4299,1.4299,1.4299,1.4211,1.4055,1.3838,1.3756,1.36,1.339,1.3091,1.2963,1.2942,1.2637,1.242,1.2277,1.2128,1.1972,1.1816,1.1674,1.1565,1.1457,1.124,1.1104,1.1002,1.0792,1.0717,1.0717,1.0717,1.0717,1.0717,1.0717,1.0717,1.0717,1.0717,1.0717,1.0717,1.0717,1.0717,1.0717,1.0717,1.0717,1.0717,1.0717,1.0717,1.0717,1.0717,1.0717,1.0717,1.0717,1.0717,1.0717,1.0717,1.0717,1.0717,1.0717,1.0717,1.0663,1.0507,1.031,1.0127,0.9909,0.9876,0.9822,0.9822,0.9822,0.9754,0.9612,0.9462,0.9306,0.9214,0.9015,0.8885,0.8885,0.8885,0.8885,0.8885,0.8885,0.8988,1.2625,1.358,1.4027,1.4116,1.4021,1.379,1.3342,1.3125,1.2895,1.2447,1.2433,1.2427,1.2176,1.2169,1.2013,1.1857,1.183,1.2557,1.4646,1.5701,1.6834,1.8154,1.9086,1.8875,1.6795,1.6721,1.6122,1.4387,1.4299,1.4299,1.4299,1.4258,1.4251,1.4299,1.4258,1.4231,1.4231,1.4082,1.3926,1.3777,1.3634,1.3485,1.3322,1.303,1.2895,1.2881,1.2617,1.2447,1.2338,1.2142,1.1999,1.1877,1.1694,1.1552,1.1436,1.124,1.1097,1.0982,1.0785,1.0717,1.0717,1.0717,1.0717,1.0717,1.0717,1.0717,1.0717,1.0717,1.0717,1.0717,1.0717,1.0717,1.0717,1.0717,1.0717,1.0717,1.0717,1.0717,1.0717,1.0717,1.0717,1.0717,1.0717,1.0717,1.0717,1.0717,1.0717,1.0717,1.0717,1.0717,1.0677,1.0568,1.0392,1.0215,0.9997,0.9849,0.9822,0.9822,0.9822,0.9774,0.968,0.953,0.9374,0.9282,0.9076,0.8981,0.8885,0.8885,0.8885,0.8885,0.8885,0.8994,1.2599,1.3498,1.3919,1.4224,1.4183,1.3953,1.3498,1.3281,1.3044,1.2589,1.2501,1.2461,1.2318,1.2162,1.2013,1.1857,1.183,1.1938,1.2326,1.4457,1.5306,1.3328,1.509,1.5691,1.3839,1.4041,1.4299,1.4299,1.4299,1.4299,1.4299,1.4156,1.4143,1.4292,1.415,1.4075,1.4075,1.3919,1.377,1.3627,1.3478,1.3322,1.3166,1.2868,1.2732,1.2725,1.2569,1.2501,1.2474,1.2182,1.2135,1.2033,1.1735,1.1619,1.1579,1.1274,1.1227,1.1118,1.0826,1.0717,1.0717,1.0717,1.0717,1.0717,1.0717,1.0717,1.0717,1.0717,1.0717,1.0717,1.0717,1.0717,1.0717,1.0717,1.0717,1.0717,1.0717,1.0717,1.0717,1.0717,1.0717,1.0717,1.0717,1.0717,1.0717,1.0717,1.0717,1.0717,1.0717,1.0717,1.0717,1.0717,1.0453,1.0215,0.9997,0.9849,0.9822,0.9822,0.9822,0.9822,0.9822,0.968,0.9537,0.9381,0.9282,0.9083,0.8885,0.8885,0.8885,0.8885,0.8885,0.8885,1.015,1.2131,1.3539,1.3532,1.3573,1.3526,1.318,1.3064,1.2929,1.2576,1.2501,1.2427,1.2182,1.2094,1.2047,1.1999,1.1898,1.1904,1.2108,1.2939,1.3344,1.3068,1.4159,1.4693,1.4162,1.4217,1.4299,1.4299,1.4299,1.4299,1.4299,1.4156,1.4095,1.4143,1.3994,1.3912,1.3912,1.377,1.362,1.3471,1.3315,1.3166,1.3024,1.282,1.2732,1.2718,1.2569,1.2501,1.2481,1.2182,1.2135,1.2108,1.1735,1.1491,1.1294,1.1199,1.1036,1.0846,1.0751,1.0717,1.0717,1.0717,1.0717,1.0717,1.0717,1.0717,1.0717,1.0717,1.0717,1.0717,1.0717,1.0717,1.0717,1.0717,1.0717,1.0717,1.0717,1.0717,1.0717,1.0717,1.0717,1.0717,1.0717,1.0717,1.0717,1.0717,1.0717,1.0717,1.0717,1.0717,1.0717,1.0717,1.046,1.0263,1.0209,0.9971,0.9822,0.9822,0.9822,0.9822,0.9822,0.9686,0.9585,0.9537,0.9344,0.9187,0.9083,0.8988,0.8885,0.8885,0.9042,0.9083,0.9031,1.1414,1.3241,1.3254,1.3288,1.3254,1.3017,1.2915,1.2807,1.2556,1.2461,1.2345,1.2108,1.2013,1.1959,1.1904,1.1816,1.1803,1.1952,1.2108,1.2372,1.282,1.4256,1.4923,1.4128,1.4973,1.5256,1.4387,1.4299,1.4278,1.4217,1.4068,1.396,1.3905,1.381,1.3763,1.3763,1.3559,1.341,1.3315,1.3105,1.2956,1.2868,1.2712,1.2644,1.2637,1.2542,1.2474,0.0,1.2162,1.2026,1.1952,1.1714,1.147,1.124,1.1255,1.1009,1.0799,1.0738,1.0717,1.0717,1.0717,1.0717,1.0717,1.0717,1.0717,1.0717,1.0717,1.0717,1.0717,1.0717,1.0717,1.0717,1.0717,1.0717,1.0717,1.0717,1.0717,1.0717,1.0717,1.0717,1.0717,1.0717,1.0717,1.0717,1.0717,1.0717,1.0717,1.0717,1.0717,1.0717,1.0717,1.046,1.0283,1.0283,0.9998,0.9822,0.9822,0.9822,0.9822,0.9822,0.9734,0.9666,0.9612,0.9367,0.9296,0.9296,0.915,0.9076,0.9022,0.9166,0.9207,0.0,1.1094,1.2976,1.3254,1.3227,1.3105,1.2963,1.282,0.0,1.2515,1.2372,1.223,1.2088,1.1925,1.1775,1.1653,1.1626,1.1667,1.1796,1.2134,1.2498,1.2862,1.54,1.6353,1.428,1.6309,1.6864,1.4706,1.4353,1.4204,1.4061,1.3912,1.3756,1.3614,1.36,1.36,1.36,1.3302,1.3152,1.3139,1.2861,1.2725,1.2712,1.2569,1.2501,1.2501,1.2501,1.242,1.2277,1.2128,1.1972,1.1816,1.166,1.1511,1.1355,1.1206,1.1056,1.0847,1.0772,1.0717,1.0717,1.0717,1.0717,1.0717,1.0717,1.0717,1.0717,1.0717,1.0717,1.0717,1.0717,1.0717,1.0717,1.0717,1.0717,1.0717,1.0717,1.0717,1.0717,1.0717,1.0717,1.0717,1.0717,1.0717,1.0717,1.0717,1.0717,1.0717,1.0717,1.0717,1.0717,1.0717,1.046,1.0283,1.0283,0.9998,0.9822,0.9822,0.9822,0.9822,0.9822,0.9822,0.9761,0.9625,0.9476,0.9395,0.9381,0.9367,0.935,0.9207,0.9207,0.9207,0.6634,0.0,1.2467,1.2535,1.2691,1.2793,0.0,1.2583,1.2515,1.2372,1.2223,1.2101,1.2142,1.1843,1.1694,1.1769,1.1687,1.1633,1.1667,1.3597,1.5163,1.5321,1.78,1.9199,1.8514,1.7687,1.7007,1.6502,1.4887,1.3933,1.3899,1.3756,1.3607,1.3458,1.3342,1.3281,1.3281,1.3098,1.2949,1.2834,1.2766,1.2671,1.2556,1.2515,1.2501,1.2501,1.2501,1.242,1.2277,1.2128,1.1972,1.1803,1.1545,1.1348,1.1199,1.105,1.09,1.0772,1.0731,1.0717,1.0717,1.0717,1.0717,1.0717,1.0717,1.0717,1.0717,1.0717,1.0717,1.0717,1.0717,1.0717,1.0717,1.0717,1.0717,1.0717,1.0717,1.0717,1.0717,1.0717,1.0717,1.0717,1.0717,1.0717,1.0717,1.0717,1.0717,1.0717,1.0717,1.0717,1.0717,1.0717,1.046,1.0283,1.0283,0.9998,0.9822,0.9822,0.9822,0.9822,0.9822,0.9822,0.9802,0.9774,0.9632,0.9496,0.9381,0.9323,0.9248,0.9207,0.9207,0.9207,0.597,0.911,1.2305,1.2372,1.2562,1.2691,1.2535,1.2447,1.2366,1.2216,1.206,1.1938,1.187,1.1728,1.1619,1.1626,1.1626,1.1667,1.1803,1.3273,1.4774,1.6157,1.8588,2.0088,2.0113,2.0159,1.9315,1.7222,1.5963,1.4747,1.3743,1.3539,1.3383,1.3302,1.3085,1.3003,1.3078,1.2929,1.3282,1.4125,1.312,1.3,1.3755,1.2852,1.2366,1.2298,1.2298,1.2216,1.2074,1.1993,1.1823,1.1613,1.145,1.126,1.1056,1.0907,1.0853,1.0717,1.0717,1.0717,1.0717,1.0717,1.0717,1.0717,1.0717,1.0717,1.0717,1.0717,1.0717,1.0717,1.0717,1.0717,1.0717,1.0717,1.0717,1.0717,1.0717,1.0717,1.0717,1.0717,1.0717,1.0717,1.0717,1.0717,1.0717,1.0717,1.0717,1.0717,1.0717,1.0717,1.0717,1.0717,1.046,1.0283,1.0283,0.9998,0.9822,0.9822,0.9822,0.9822,0.9822,0.9822,0.9788,0.9727,0.9713,0.9632,0.949,0.9469,0.9429,0.9361,0.9361,0.9361,0.597,0.9135,1.2372,1.2447,1.2583,1.2657,1.2501,1.2338,1.2182,1.2054,1.1884,1.1742,1.1667,1.1599,1.1525,1.1443,1.1538,1.1728,1.2054,1.2526,1.3814,1.6455,1.8857,2.0537,2.1044,2.2602,2.1861,1.7715,1.6976,1.5822,1.3609,1.3281,1.3132,1.3105,1.2861,1.2937,1.3359,1.3225,1.4009,1.5707,1.4145,1.406,1.5252,1.3453,1.2484,1.2135,1.2135,1.1972,1.183,1.1809,1.164,1.1389,1.1341,1.1172,1.088,1.0853,1.0833,1.0717,1.0717,1.0717,1.0717,1.0717,1.0717,1.0717,1.0717,1.0717,1.0717,1.0717,1.0717,1.0717,1.0717,1.0717,1.0717,1.0717,1.0717,1.0717,1.0717,1.0717,1.0717,1.0717,1.0717,1.0717,1.0717,1.0717,1.0717,1.0717,1.0717,1.0717,1.0717,1.0717,1.0711,1.069,1.0439,1.027,1.0249,0.9985,0.9822,0.9822,0.9822,0.9822,0.9822,0.9822,0.9768,0.9646,0.9741,0.9727,0.9612,0.9686,0.9659,0.9544,0.9564,0.9571,0.597,0.9248,1.261,1.2379,1.2433,1.2501,1.2352,1.2108,1.1898,1.187,1.1647,1.1531,1.1755,1.1491,1.1307,1.1545,1.1606,1.1769,1.2196,1.3969,1.6068,1.8348,2.0647,2.2793,2.4494,2.3405,2.1503,1.9046,1.719,1.5273,1.3226,1.3017,1.2935,1.28,1.2752,1.3447,1.5094,1.5061,1.5198,1.5582,1.6672,1.6553,1.5252,1.4728,1.3624,1.2135,1.2135,1.1972,1.1823,1.1701,1.1552,1.1369,1.1118,1.0921,1.0867,1.0806,1.0738,1.0717,1.0717,1.0717,1.0717,1.0717,1.0717,1.0717,1.0717,1.0717,1.0717,1.0717,1.0717,1.0717,1.0717,1.0717,1.0717,1.0717,1.0717,1.0717,1.0717,1.0717,1.0717,1.0717,1.0717,1.0717,1.0717,1.0717,1.0717,1.0717,1.0717,1.0717,1.0717,1.0717,1.067,1.0541,1.0378,1.0229,1.0031,0.9924,0.9822,0.9822,0.9822,0.9822,0.9822,0.9822,0.9808,0.9788,0.9693,0.9632,0.9612,0.9367,0.9303,0.9282,0.9354,0.9415,0.5849,0.9094,1.2352,1.2305,1.2583,1.2766,1.2379,1.2115,1.1884,1.164,1.1484,1.1409,1.1457,1.1436,1.1504,1.1809,1.1857,1.1904,1.2026,1.4023,1.6289,1.8522,2.072,2.2986,2.5249,2.4572,2.3162,2.1046,1.8885,1.6765,1.4756,1.3426,1.3262,1.4359,1.4268,1.5171,1.7132,1.8075,1.8615,1.854,1.8094,1.7409,1.6571,1.531,1.3702,1.1823,1.1823,1.1735,1.1586,1.1525,1.1362,1.1138,1.0934,1.0833,1.0752,1.0744,1.0717,1.0717,1.0717,1.0717,1.0717,1.0717,1.0717,1.0717,1.0717,1.0717,1.0717,1.0717,1.0717,1.0717,1.0717,1.0717,1.0717,1.0717,1.0717,1.0717,1.0717,1.0717,1.0717,1.0717,1.0717,1.0717,1.0717,1.0717,1.0717,1.0717,1.0717,1.0717,1.0717,1.0717,1.0697,1.0622,1.0412,1.0249,1.0181,0.9958,0.9822,0.9822,0.9822,0.9822,0.9822,0.9822,0.9822,0.9822,0.9754,0.9727,0.9727,0.9503,0.9442,0.951,0.951,0.9544,0.5829,0.8907,1.2128,1.2169,1.2522,1.2779,1.2467,1.2169,1.1877,1.1606,1.1491,1.1409,1.1294,1.1463,1.1694,1.1925,1.1986,1.2127,1.2472,1.3951,1.6084,1.8885,2.0637,2.2594,2.5023,2.5304,2.4416,2.2183,2.007,1.7952,1.5827,1.359,1.3377,1.5615,1.5506,1.6633,1.9168,2.0382,2.1023,2.1214,1.9726,1.8547,1.7653,1.6028,1.3938,1.1619,1.1579,1.1497,1.1389,1.1314,1.1151,1.088,1.084,1.0759,1.0717,1.0717,1.0717,1.0717,1.0717,1.0717,1.0717,1.0717,1.0717,1.0717,1.0717,1.0717,1.0717,1.0717,1.0717,1.0717,1.0717,1.0717,1.0717,1.0717,1.0717,1.0717,1.0717,1.0717,1.0717,1.0717,1.0717,1.0717,1.0717,1.0717,1.0717,1.0717,1.0717,1.0717,1.0717,1.0717,1.0697,1.0622,1.0419,1.0249,1.0181,0.9958,0.9836,0.9869,0.9842,0.9822,0.9822,0.9822,0.9822,0.9822,0.9788,0.9774,0.9774,0.9625,0.9612,0.9713,0.9646,0.9666,0.5963,0.9099,1.221,1.1932,1.1898,1.206,1.2583,1.2155,1.1721,1.1965,1.1796,1.1599,1.1586,1.1606,1.1626,1.1647,1.1762,1.2472,1.4433,1.4826,1.6444,2.0518,2.1164,2.2178,2.4441,2.4629,2.3758,2.1467,1.9478,1.7382,1.5066,1.3208,1.3124,1.5294,1.5043,1.6878,2.0943,2.0612,2.0672,2.1214,2.2317,2.104,1.7653,1.7228,1.5017,1.1613,1.147,1.1402,1.1369,1.109,1.09,1.0867,1.0792,1.0731,1.0717,1.0717,1.0717,1.0717,1.0717,1.0717,1.0717,1.0717,1.0717,1.0717,1.0717,1.0717,1.0717,1.0717,1.0717,1.0717,1.0717,1.0717,1.0717,1.0717,1.0717,1.0717,1.0717,1.0717,1.0717,1.0717,1.0717,1.0717,1.0717,1.0717,1.0717,1.0717,1.0717,1.0717,1.0717,1.0717,1.0616,1.0344,1.029,1.0168,0.9876,0.9836,0.9883,0.9963,0.9835,0.9822,0.9822,0.9822,0.9822,0.9822,0.9693,0.9625,0.9625,0.9469,0.9401,0.9415,0.9551,0.9612,0.5784,0.8826,1.1979,1.1857,1.1694,1.1667,1.2081,1.1952,1.1755,1.1782,1.1694,1.1592,1.1497,1.1477,1.1538,1.1721,1.1721,1.1932,1.2707,1.5035,1.7178,1.8706,2.1222,2.3228,2.4269,2.4209,2.3826,2.3152,2.1061,1.8947,1.6882,1.6012,1.5974,1.6923,1.7945,1.9921,2.2824,2.237,2.2281,2.2485,2.2885,2.1691,1.9141,1.778,1.5775,1.3138,1.1903,1.1287,1.1111,1.0927,1.0826,1.0799,1.0744,1.0717,1.0717,1.0717,1.0717,1.0717,1.0717,1.0717,1.0717,1.0717,1.0717,1.0717,1.0717,1.0717,1.0717,1.0717,1.0717,1.0717,1.0717,1.0717,1.0717,1.0717,1.0717,1.0717,1.0717,1.0717,1.0717,1.0717,1.0717,1.0717,1.0717,1.0717,1.0717,1.0717,1.0717,1.0717,1.0717,1.0717,1.0643,1.0432,1.0249,1.0086,0.9909,0.9876,0.9883,0.9977,0.9842,0.9863,0.9896,0.9869,0.9822,0.9822,0.9768,0.9741,0.9741,0.9591,0.9571,0.9652,0.9625,0.9659,0.5716,0.8576,1.1694,1.1694,1.1504,1.1396,1.1694,1.1762,1.1762,1.1762,1.1647,1.1497,1.1348,1.1321,1.1369,1.1525,1.1511,1.1683,1.2243,1.5211,1.7588,1.8122,2.1385,2.3607,2.3901,2.3834,2.3768,2.3781,2.1855,1.9983,1.8531,1.7878,1.7877,1.8661,1.99,2.1493,2.3634,2.3327,2.318,2.318,2.2966,2.1953,2.0051,1.8015,1.6082,1.4075,1.2117,1.1138,1.088,1.0826,1.0745,1.0717,1.0717,1.0717,1.0717,1.0717,1.0717,1.0717,1.0717,1.0717,1.0717,1.0717,1.0717,1.0717,1.0717,1.0717,1.0717,1.0717,1.0717,1.0711,1.0663,1.0683,1.0717,1.0717,1.0717,1.0717,1.0717,1.0717,1.0717,1.0717,1.0717,1.0717,1.0717,1.0717,1.0916,1.1439,1.1505,1.1505,1.1505,1.1505,1.1228,1.0511,1.0202,0.9984,0.9984,0.9889,0.9958,1.0051,0.993,0.9869,0.9909,0.9876,0.9822,0.9822,0.9822,0.9822,0.9822,0.9727,0.9727,0.9822,0.972,0.9727,0.5787,0.8535,1.1389,1.1389,1.1274,1.1246,1.1552,1.1619,1.1701,1.1999,1.1701,1.1341,1.1192,1.1227,1.1111,1.09,1.1063,1.1841,1.3678,1.5508,1.7406,1.9481,2.1624,2.2979,2.3287,2.3581,2.3514,2.2968,2.1418,2.0274,1.9619,1.8101,1.8265,2.0427,2.0262,2.1167,2.3244,2.302,2.2928,2.2928,2.2928,2.1941,2.0039,1.7983,1.6008,1.4119,1.1884,1.088,1.0867,1.0785,1.0717,1.0717,1.0717,1.0717,1.0717,1.0717,1.0717,1.0717,1.0717,1.0717,1.0717,1.0717,1.0717,1.0717,1.0717,1.0717,1.0717,1.0717,1.0717,1.0683,1.0527,1.0602,1.0717,1.0717,1.0717,1.0717,1.0717,1.0717,1.0717,1.0717,1.0717,1.0717,1.0717,1.0717,1.1306,1.3062,1.3325,1.3325,1.3325,1.3325,1.254,1.0565,1.0148,1.0053,1.0053,1.0053,1.012,1.0333,0.9992,0.9822,0.9822,0.9822,0.9822,0.9822,0.9822,0.9822,0.9822,0.9822,0.9822,0.9822,0.9822,0.9822,0.5521,0.8418,1.1362,1.126,1.1274,1.1375,1.1572,1.1619,1.1674,1.1864,1.1545,1.1219,1.1241,1.0995,1.0873,1.0873,1.0894,1.1089,1.1736,1.4486,1.6711,1.7307,2.0466,2.2672,2.2966,2.2886,2.2832,2.2928,2.2078,2.0931,1.9405,2.033,2.0581,1.9898,2.1327,2.2349,2.2993,2.2913,2.2928,2.2928,2.2645,2.2268,2.1645,1.9699,1.7695,1.5635,1.3587,1.2015,1.0785,1.0738,1.0717,1.0717,1.0717,1.0717,1.0717,1.0717,1.0717,1.0717,1.0717,1.0649,1.0575,1.0683,1.0582,1.0432,1.0527,1.0561,1.0561,1.0561,1.0561,1.0548,1.0507,1.0453,1.0432,1.0534,1.0561,1.0588,1.0697,1.0717,1.0717,1.0717,1.0717,1.0717,1.0717,1.1696,1.2676,1.3193,1.4362,1.4688,1.3456,1.3206,1.2951,1.2339,1.2115,1.2553,1.3933,1.2829,1.2083,1.2259,1.0823,0.9916,0.9916,0.9876,0.9822,0.9822,0.9822,0.9822,0.9822,0.9822,0.9822,0.9822,0.9822,0.9822,0.5557,0.8368,1.1307,1.1335,1.1369,1.1416,1.1504,1.1531,1.1552,1.164,1.1348,1.1077,1.1077,1.088,1.0751,1.0846,1.0778,1.0751,1.0779,1.3949,1.6277,1.6369,1.9766,2.2191,2.2485,2.2352,2.2271,2.2405,2.2124,2.1463,2.0216,2.1579,2.1867,2.0761,2.2154,2.2928,2.2928,2.2739,2.2686,2.2686,2.2392,2.2191,2.2005,2.0172,1.825,1.6247,1.3594,1.1725,1.0717,1.0717,1.0717,1.0717,1.0717,1.0717,1.0717,1.0717,1.0717,1.0711,1.0649,1.0568,1.0493,1.0534,1.0426,1.0297,1.0385,1.0405,1.0405,1.0405,1.0405,1.0392,1.0331,1.0256,1.0236,1.0446,1.0493,1.0534,1.0683,1.0717,1.0717,1.0717,1.124,1.1505,1.085,1.215,1.3325,1.3325,1.4744,1.5784,1.5394,1.4631,1.4116,1.4116,1.4079,1.4493,1.5633,1.4639,1.3744,1.3157,1.1823,1.0721,1.0046,0.9903,0.9822,0.9822,0.9822,0.9822,0.9822,0.9822,0.9822,0.9822,0.9822,0.9822,0.575,0.8454,1.124,1.1558,1.1531,1.1423,1.1382,1.1369,1.1369,1.1369,1.1145,1.088,1.088,1.0759,1.0717,1.0717,1.0717,1.0717,1.0717,1.3709,1.5994,1.6328,1.9475,2.1722,2.1924,2.1951,2.1844,2.1641,2.1777,2.179,2.1588,2.2044,2.2338,2.2338,2.2632,2.2847,2.2847,2.2512,2.2378,2.2378,2.2084,2.1804,2.155,1.9955,1.8157,1.614,1.2351,1.0717,1.0717,1.0717,1.0711,1.0704,1.0717,1.0704,1.0683,1.0697,1.069,1.0663,1.0521,1.0466,1.0432,1.0317,1.0263,1.0243,1.0256,1.0256,1.0256,1.0256,1.0256,1.0229,1.0024,0.9977,1.0044,1.0399,1.0473,1.0514,1.0663,1.0711,1.0717,1.0717,1.2091,1.2808,1.124,1.2479,1.384,1.397,1.52,1.6689,1.8308,1.6892,1.5801,1.5927,1.5991,1.5991,1.6181,1.6054,1.5228,1.3448,1.2921,1.1859,1.0066,0.991,0.9822,0.9822,0.9822,0.9822,0.9822,0.9822,0.9822,0.9822,0.9822,0.9822,0.5764,0.8477,1.126,1.1681,1.1762,1.1647,1.1294,1.1212,1.1212,1.1212,1.107,1.088,1.088,1.0759,1.0717,1.0717,1.0717,1.0717,1.0717,1.3709,1.5934,1.5984,1.9301,2.1641,2.1708,2.1708,2.1681,2.1614,2.139,2.1269,2.1203,2.155,2.1737,2.1737,2.2017,2.2178,2.2178,2.2111,2.2084,2.2071,2.1777,2.1681,2.1614,2.1213,1.9184,1.5789,1.2231,1.0717,1.0717,1.0717,1.0649,1.0555,1.067,1.0582,1.0385,1.05,1.0473,1.0371,1.0337,1.0249,1.0161,1.0249,1.0114,0.9944,0.9997,1.0038,1.0038,1.0038,1.0038,1.0031,0.9997,0.9896,0.9951,1.0256,1.0324,1.0365,1.0507,1.0636,1.0717,1.0717,1.2091,1.3193,1.28,1.5329,1.7859,1.9228,1.8576,1.8052,1.8436,1.6969,1.6358,1.778,1.7908,1.8418,1.984,1.8685,1.7129,1.5391,1.387,1.2171,1.0299,0.9964,0.9822,0.9822,0.9822,0.9822,0.9822,0.9822,0.9822,0.9822,0.9822,0.9822,0.5511,0.7851,1.0287,1.1517,1.1782,1.1633,1.1246,1.1111,1.1043,1.0968,1.0894,1.0772,1.0772,1.0717,1.0636,1.0711,1.0656,1.0636,1.0711,1.3709,1.5913,1.5913,1.9145,2.1336,2.1336,2.1336,2.1336,2.1336,2.1203,2.1109,2.1109,2.139,2.1614,2.1614,2.183,2.1991,2.1991,2.1844,2.1777,2.1777,2.1483,2.0939,2.0091,1.9229,1.7336,1.4493,1.1828,1.0717,1.0717,1.0717,1.0629,1.05,1.0582,1.0473,1.029,1.0365,1.0344,1.027,1.0195,1.0114,0.999,1.0059,0.9951,0.9836,0.9856,0.9876,0.9876,0.9876,0.9876,0.9876,0.9876,0.9883,0.9876,1.0114,1.0168,1.0249,1.0541,1.125,1.1861,1.1944,1.4036,1.5524,1.4688,1.6043,1.7859,1.961,1.9088,1.8832,1.961,1.896,1.8768,1.9674,1.9737,2.0132,2.1046,2.0259,1.864,1.6043,1.4933,1.3152,1.041,1.0053,0.9897,0.9822,0.9822,0.9822,0.9822,0.9822,0.9822,0.9822,0.9822,0.9822,0.4843,0.6753,0.878,1.0809,1.1226,1.1136,1.117,1.107,1.0867,1.0758,1.0717,1.0717,1.0717,1.0346,1.0241,1.0631,1.0326,1.0215,1.0631,1.3421,1.555,1.5848,1.8704,2.0779,2.1046,2.1109,2.1109,2.1109,2.1109,2.1109,2.1109,2.1336,2.1534,2.1534,2.171,2.183,2.183,2.1603,2.1534,2.1534,2.1229,2.0005,1.7988,1.656,1.4949,1.3193,1.141,1.0697,1.0717,1.0663,1.0568,1.0453,1.0453,1.0351,1.0202,1.0229,1.0222,1.0181,0.999,0.995,0.993,0.9863,0.9822,0.9822,0.9822,0.9842,0.9856,0.9829,0.9842,0.9856,0.9829,0.9822,0.9869,0.9984,1.0004,1.0105,1.0588,1.1953,1.3203,1.3291,1.6108,1.8116,1.7012,1.6818,1.728,1.8704,1.8704,1.9152,2.0856,2.0843,2.0779,2.1046,2.1109,2.1109,2.1109,2.1109,1.9737,1.656,1.5957,1.4224,1.0912,1.0252,0.993,0.9863,0.9863,0.9849,0.9822,0.9849,0.9849,0.9822,0.9822,0.9822,0.3345,0.503,0.7068,0.8867,0.9307,0.9568,1.0905,1.1151,1.1056,1.0778,1.0717,1.0717,1.0717,0.9425,0.8883,1.0445,0.927,0.8765,1.0432,1.2279,1.4097,1.5699,1.7667,1.9419,2.0982,2.1109,2.1109,2.1109,2.1109,2.1109,2.1109,2.1149,2.1162,2.1162,2.1203,2.1229,2.1229,2.1189,2.1162,2.1162,2.1122,1.9419,1.6237,1.5978,1.4949,1.3185,1.1352,1.0595,1.0704,1.0446,1.0331,1.031,1.031,1.0134,0.9897,0.997,0.9998,0.9876,0.9856,0.9849,0.9849,0.9829,0.9822,0.9822,0.9822,0.9856,0.993,0.9856,0.9856,0.9923,0.9856,0.9822,0.9897,1.0181,1.0148,1.0071,1.0453,1.1961,1.3291,1.3316,1.6108,1.8896,2.0195,2.0399,2.0462,2.0716,1.9483,1.9152,2.0856,1.9801,1.9419,2.0919,2.1109,2.1109,2.1109,2.1109,2.0259,1.8244,1.6594,1.4731,1.2658,1.0933,0.9977,0.9957,0.9957,0.9889,0.9822,0.9896,0.9889,0.9822,0.9822,0.9822,0.2731,0.4578,0.6612,0.8401,0.8853,0.9204,1.0803,1.1097,1.0703,0.9413,0.9172,0.9172,0.9172,0.8447,0.7832,0.7759,0.7692,0.8011,0.8918,1.1342,1.3653,1.5573,1.7326,1.912,2.0893,2.1109,2.1109,2.1109,2.1109,2.1109,2.1109,2.1109,2.1109,2.1109,2.1109,2.1109,2.1109,2.1109,2.1109,2.1109,2.1109,1.9291,1.5913,1.5846,1.4318,1.1685,1.0839,1.0487,1.0466,1.0331,1.0229,1.0148,1.0148,1.0012,0.9829,0.9897,0.9876,0.9822,0.9822,0.9822,0.9822,0.9822,0.9822,0.9822,0.9822,0.9869,0.9849,0.9842,0.9869,0.9842,0.9836,0.9822,0.9876,1.01,1.0168,1.0236,1.0446,1.2661,1.5248,1.7248,1.8896,2.0195,2.0982,2.1109,2.1109,2.1109,2.0462,2.0259,2.0982,2.0462,2.0259,2.1046,2.1109,2.1109,2.1109,2.1109,2.0386,1.864,1.6786,1.4968,1.3118,1.128,1.0263,1.0181,1.0031,1.0059,1.008,1.0059,0.995,0.9883,0.9863,0.9822,0.2645,0.4,0.5507,0.7026,0.7612,0.8389,1.0091,1.0708,1.0399,0.8395,0.8056,0.7799,0.6831,0.6572,0.6287,0.5489,0.5908,0.6675,0.7662,0.9947,1.243,1.4721,1.656,1.8384,2.0194,2.0803,2.1109,2.1109,2.1109,2.1109,2.1109,2.1109,2.1109,2.1109,2.1109,2.1109,2.1109,2.1109,2.1109,2.1109,2.1109,1.9483,1.656,1.5998,1.408,1.107,1.0585,1.0344,1.0276,1.0195,1.012,0.9984,0.9943,0.9862,0.9822,0.9822,0.9822,0.9822,0.9822,0.9822,0.9822,0.9822,0.9822,0.9822,0.9822,0.9849,0.9869,0.9829,0.9849,0.9876,0.9876,0.9876,0.9924,1.0051,1.0249,1.0628,1.1667,1.3942,1.6806,2.041,2.1109,2.1109,2.1109,2.1109,2.1109,2.1109,2.1109,2.1109,2.1109,2.1109,2.1109,2.1109,2.1109,2.1109,2.1109,2.1109,2.0526,1.9228,1.7086,1.5238,1.3806,1.16,1.0405,1.0337,1.0222,1.0202,1.0283,1.0168,1.0107,1.0038,0.991,0.9842,0.295,0.2627,0.2779,0.3136,0.448,0.6264,0.803,0.988,1.0584,0.8411,0.8184,0.7211,0.3631,0.2952,0.3486,0.5162,0.3907,0.3934,0.7345,0.7835,0.9164,1.2658,1.4702,1.6529,1.8262,2.0042,2.1109,2.1109,2.1109,2.1109,2.1109,2.1109,2.1109,2.1109,2.1109,2.1109,2.1109,2.1109,2.1109,2.1109,2.1109,2.0132,1.8308,1.6679,1.4776,1.2658,1.0816,1.0154,1.0256,0.9964,0.9862,0.997,0.989,0.9829,0.9822,0.9822,0.9822,0.9822,0.9822,0.9822,0.9822,0.9822,0.9822,0.9822,0.9822,0.9862,0.9943,0.9863,0.9862,0.9977,0.9977,0.9977,1.0044,1.0399,1.0473,1.1416,1.4883,1.5774,1.6937,2.0386,2.1109,2.1109,2.1109,2.1109,2.1109,2.1109,2.1109,2.1109,2.1109,2.1109,2.1109,2.1109,2.1109,2.1109,2.1109,2.1109,2.1046,2.0982,1.7632,1.5653,1.558,1.2187,1.0351,1.048,1.0473,1.0405,1.0283,1.027,1.027,1.0263,0.9958,0.9897,0.2975,0.2583,0.2667,0.288,0.4247,0.6054,0.7854,0.9677,1.0141,0.6991,0.6388,0.5326,0.1614,0.1948,0.2551,0.2016,0.2255,0.2946,0.4212,0.6192,0.8398,1.0875,1.2795,1.5051,1.8038,1.8994,1.9877,2.1046,2.1109,2.1109,2.1109,2.1109,2.1109,2.1109,2.1109,2.1109,2.1109,2.1109,2.1109,2.1109,2.1109,2.0195,1.8436,1.6519,1.4654,1.2767,1.0856,1.0017,1.0114,0.991,0.9849,0.997,0.9883,0.9822,0.9822,0.9822,0.9822,0.9822,0.9822,0.9822,0.9822,0.9822,0.9822,0.9822,0.9822,0.9863,0.989,0.9836,0.9869,0.9984,0.9984,1.0127,1.0249,1.0446,1.1322,1.258,1.3926,1.5135,1.6947,2.0386,2.1109,2.1109,2.1109,2.1109,2.1109,2.1109,2.1109,2.1109,2.1109,2.1109,2.1109,2.1109,2.1109,2.1109,2.1109,2.1109,2.1109,2.1109,1.8812,1.7021,1.5856,1.3479,1.1743,1.0636,1.0636,1.0616,1.0561,1.0466,1.0419,1.0412,1.0107,0.9936,0.4591,0.4204,0.4044,0.3038,0.4557,0.6444,0.7143,0.9132,0.9826,0.6176,0.545,0.4313,0.0673,0.1009,0.1411,0.0202,0.0934,0.1844,0.2402,0.436,0.6665,0.9068,1.0958,1.3265,1.6255,1.7712,1.8924,2.0004,2.0727,2.1069,2.0962,2.1056,2.1109,2.1109,2.1109,2.1109,2.1109,2.1109,2.1109,2.1109,2.1109,2.0144,1.8359,1.6443,1.4538,1.2674,1.0893,1.0038,0.9977,0.9876,0.9896,0.997,0.9883,0.9822,0.9822,0.9822,0.9822,0.9822,0.9822,0.9822,0.9822,0.9822,0.9822,0.9822,0.9822,0.9822,0.9822,0.9822,0.9897,1.0115,1.0772,1.1586,1.2042,1.1575,1.275,1.4198,1.4911,1.5524,1.6754,1.9674,2.0716,2.1109,2.1109,2.1109,2.1109,2.1109,2.1109,2.1109,2.1109,2.1109,2.1109,2.1109,2.1109,2.1109,2.1109,2.1109,2.1109,2.1109,1.9483,1.7731,1.5978,1.4232,1.2479,1.0717,1.0717,1.0717,1.0717,1.0568,1.0521,1.0561,1.0263,1.0127,0.0,0.0,0.0,0.338,0.5109,0.72,0.5822,0.8174,0.9703,0.6093,0.5481,0.4422,0.0674,0.0,0.0,0.0,0.0,0.0536,0.2173,0.2496,0.3721,0.7134,0.919,1.1077,1.2909,1.6295,1.8279,1.8085,1.9916,2.0913,2.0695,2.0949,2.1109,2.1109,2.1109,2.1109,2.1109,2.1109,2.1109,2.1096,2.1109,2.0105,1.8238,1.6518,1.4586,1.2504,1.0958,1.0188,0.9984,0.9984,0.9984,0.997,0.9883,0.9822,0.9822,0.9822,0.9822,0.9822,0.9822,0.9822,0.9822,0.9822,0.9822,0.9822,0.9822,0.9822,0.9822,0.9829,0.9829,1.0386,1.2449,1.4454,1.5459,1.3709,1.4623,1.6366,1.7988,1.7087,1.6496,1.8244,1.9941,2.1109,2.1109,2.1109,2.1109,2.1109,2.1109,2.1109,2.1109,2.1109,2.1109,2.1109,2.1109,2.1109,2.1109,2.1109,2.1109,2.1109,1.9483,1.7795,1.5978,1.4297,1.2545,1.0717,1.0717,1.0717,1.0717,1.0568,1.0575,1.0711,1.0426,1.029,0.7865,0.0,0.0,0.0,0.0,0.0,0.7085,0.8798,0.9386,0.5927,0.5231,0.4193,0.0672,0.0,0.0,0.0,0.0,0.0134,0.0594,0.1709,0.333,0.5529,0.7403,0.9741,1.278,1.4114,1.5693,1.796,1.8816,1.9625,2.0633,2.0949,2.1109,2.1109,2.1109,2.1109,2.1109,2.1109,2.1002,2.0802,2.1002,2.0055,1.8113,1.6368,1.4538,1.269,1.0885,1.0024,0.9984,0.9984,0.9984,0.997,0.9883,0.9822,0.9822,0.9822,0.9822,0.9822,0.9822,0.9822,0.9822,0.9822,0.9822,0.9822,0.9822,0.9822,0.9842,0.9896,1.0984,1.252,1.4536,1.55,1.5459,1.3709,1.4623,1.5719,1.4884,1.6366,1.8308,2.0068,2.0779,2.1109,2.1109,2.1109,2.1109,2.1109,2.1109,2.1109,2.1109,2.1109,2.1109,2.1109,2.1109,2.1109,2.1109,2.1109,2.1109,2.1109,2.0652,1.9024,1.6043,1.5459,1.3774,1.0784,1.0717,1.0717,1.0717,1.0677,1.0677,1.0717,1.0521,1.0432,0.8671,0.8462,0.8105,0.6378,0.0,0.0,0.7724,0.8921,0.9393,0.6675,0.5617,0.4278,0.153,0.0469,0.0,0.0,0.0,0.0,0.0,0.0864,0.212,0.3894,0.5686,0.7883,1.0695,1.2374,1.4345,1.6814,1.7914,1.9218,2.0806,2.1015,2.1109,2.1109,2.1109,2.1109,2.1109,2.1109,2.0962,2.0681,2.0257,1.8957,1.689,1.5192,1.3412,1.1604,1.0516,0.995,0.9896,0.9963,0.9984,0.9977,0.9889,0.9876,0.9822,0.9822,0.9822,0.9822,0.9822,0.9822,0.9822,0.9822,0.9822,0.9822,0.9822,1.0301,1.08,1.0897,1.2873,1.5087,1.5681,1.6936,1.7602,1.5848,1.6818,1.7795,1.6754,1.818,1.9674,1.9941,2.0589,2.1109,2.1109,2.1109,2.1109,2.1109,2.1109,2.1109,2.1109,2.1109,2.1109,2.1109,2.1109,2.1109,2.1109,2.1109,2.1109,2.1109,2.1109,1.9546,1.6043,1.5913,1.4232,1.0784,1.0717,1.0717,1.0717,1.0717,1.0717,1.0717,1.0629,1.0588,0.9822,0.9822,0.9448,0.8054,0.8777,0.0,0.8135,0.8949,0.9518,0.7917,0.6404,0.477,0.2822,0.1263,0.0201,0.0,0.0,0.0,0.0,0.0,0.0676,0.2464,0.4132,0.5803,0.751,1.0712,1.3322,1.4827,1.7116,1.9255,2.0982,2.1109,2.1109,2.1109,2.1109,2.1109,2.1109,2.1082,2.0935,2.0681,1.9159,1.7352,1.5246,1.3617,1.1854,0.9984,0.997,0.9883,0.9836,0.9923,0.9977,0.9963,0.9963,0.9876,0.9822,0.9822,0.9822,0.9822,0.9822,0.9822,0.9822,0.9822,0.9943,1.0058,1.0058,1.1201,1.2517,1.2715,1.5247,1.7634,1.6506,1.8455,2.041,1.8784,1.9636,2.0803,2.0779,2.0982,2.0652,1.9088,2.0068,2.1109,2.1109,2.1109,2.1109,2.1109,2.1109,2.1109,2.1109,2.1109,2.1109,2.1109,2.1109,2.1109,2.1109,2.1109,2.1109,2.1109,2.1109,1.9546,1.6043,1.5913,1.4232,1.0784,1.0717,1.0717,1.0717,1.0717,1.0717,1.0717,1.0717,1.0717,0.9822,0.9822,0.9714,0.9394,0.9643,0.0,0.9464,0.9689,0.9492,0.7812,0.72,0.6057,0.3073,0.2239,0.1585,0.0198,0.0,0.0,0.0,0.0,0.0676,0.2464,0.3008,0.3961,0.5747,0.7834,0.9667,1.1149,1.5526,1.9059,2.1032,2.1109,2.1109,2.1109,2.1109,2.1109,2.1109,2.0882,2.0735,2.0668,1.8902,1.7078,1.5246,1.3473,1.1673,0.9977,0.9856,0.9849,0.9836,0.9923,0.9916,0.9863,0.9863,0.9849,0.9822,0.9822,0.9822,0.9822,0.9822,0.9822,0.9822,0.9822,1.0657,1.1736,1.1736,1.2868,1.4461,1.5954,1.7215,1.8268,1.9111,1.9013,1.8584,1.827,1.8459,1.877,1.8976,2.0132,2.0982,2.0652,2.0843,2.1109,2.1109,2.1109,2.1109,2.1109,2.1109,2.1109,2.1109,2.1109,2.1109,2.1109,2.1109,2.1109,2.1109,2.1109,2.1109,2.1109,2.1109,1.9546,1.6043,1.5913,1.4232,1.0784,1.0717,1.0717,1.0717,1.0717,1.0717,1.0717,1.0717,1.0717,1.0053,1.0053,1.0053,1.0053,1.0053,0.0,0.0,0.9876,0.9643,0.8839,0.803,0.6886,0.5365,0.3637,0.2216,0.138,0.053,0.0,0.0,0.0,0.0342,0.1246,0.2147,0.3045,0.3944,0.5632,0.8107,1.1431,1.5829,1.9145,2.0969,2.1109,2.1109,2.1109,2.1109,2.1109,2.1109,2.0962,2.0748,2.0393,1.7987,1.6167,1.4961,1.2468,1.0889,1.0154,1.0005,0.9978,1.0053,0.999,0.9943,0.9876,0.9876,0.989,0.9822,0.9822,0.9822,0.9822,0.9822,0.9822,0.9943,1.0717,1.1555,1.2337,1.3168,1.454,1.6216,1.8226,1.8972,1.9322,2.0196,2.0035,1.9563,1.9437,1.95,1.9638,1.9776,2.0462,2.1109,2.1109,2.1109,2.1109,2.1109,2.1109,2.1109,2.1109,2.1109,2.1109,2.1109,2.1109,2.1109,2.1109,2.1109,2.1109,2.1109,2.1109,2.1109,2.1109,2.1109,1.9546,1.6043,1.5913,1.4232,1.0784,1.0717,1.0717,1.0717,1.0717,1.0717,1.0717,1.0717,1.0717,1.0283,1.0283,1.0283,1.0283,1.0209,1.0065,0.0,0.0,0.0,0.997,0.8851,0.7812,0.759,0.5305,0.3213,0.261,0.1379,0.0397,0.0067,0.0,0.0,0.0,0.1258,0.2163,0.2169,0.4134,0.743,1.2319,1.5992,1.8768,2.0526,2.0919,2.1109,2.1109,2.1109,2.1109,2.1109,2.0989,2.0735,2.026,1.7371,1.5535,1.473,1.1787,1.0322,1.0188,1.0093,1.01,1.0181,1.0086,0.997,0.9943,0.9943,0.9869,0.9822,0.9856,0.9842,0.9822,0.9856,1.0025,1.0482,1.1796,1.2629,1.3407,1.5015,1.6467,1.7895,1.9574,2.0187,2.0347,2.0481,2.0762,2.0962,2.0735,2.0855,2.1042,2.1096,2.1109,2.1109,2.1109,2.1109,2.1109,2.1109,2.1109,2.1109,2.1109,2.1109,2.1109,2.1109,2.1109,2.1109,2.1109,2.1109,2.1109,2.1109,2.0779,2.0589,2.0589,2.0259,1.8704,1.5524,1.507,1.3587,1.0784,1.0717,1.0717,1.0717,1.0717,1.0717,1.0717,1.0717,1.0717,1.0283,1.0283,1.0283,1.0283,1.0365,1.0405,1.0283,0.0,1.0344,1.0038,0.0,0.9237,0.7734,0.0,0.0,0.2957,0.2346,0.171,0.0198,0.0,0.0,0.0,0.0208,0.0277,0.028,0.3416,0.6894,1.0629,1.4187,1.6958,1.8704,2.0259,2.1109,2.1109,2.1109,2.1109,2.1109,2.0588,2.0428,2.0615,1.8081,1.616,1.4923,1.2863,1.1179,0.9876,0.9936,0.9923,0.9883,0.9936,0.9909,0.9849,0.9849,0.9836,0.9836,0.9909,0.9876,0.9842,0.9916,1.0843,1.1976,1.2157,1.4113,1.6786,1.8344,1.9122,1.947,1.9519,2.0027,2.0521,2.0027,2.0307,2.0722,2.0681,2.0695,2.0802,2.1056,2.1109,2.1109,2.1109,2.1109,2.1109,2.1109,2.1109,2.1109,2.1109,2.1109,2.1109,2.1109,2.1109,2.1109,2.1109,2.1109,2.1109,2.1109,1.9674,1.8832,1.8832,1.7345,1.5589,1.3709,1.2091,1.1108,1.0717,1.0717,1.0717,1.0717,1.0717,1.0717,1.0717,1.0717,1.0717,1.3538,1.3538,1.3281,1.2265,1.2048,1.1751,1.067,1.0385,1.0358,1.0317,0.0,0.0,0.0,0.0,0.0,0.0,0.4773,0.395,0.3256,0.222,0.1159,0.0138,0.0,0.0,0.0,0.231,0.5282,0.8844,1.2319,1.554,1.8372,2.0132,2.1109,2.1109,2.1109,2.0589,1.961,1.9323,1.91,1.8902,1.6952,1.5558,1.4741,1.2964,1.1431,1.0086,1.0059,1.0107,1.0202,1.0031,0.995,0.9883,0.9856,0.9876,0.9889,0.9862,0.9869,1.0074,1.0958,1.1679,1.2509,1.4351,1.655,1.8557,1.9383,1.9706,1.984,2.0067,2.0388,2.0615,2.0374,2.0615,2.0882,2.0722,2.0802,2.0962,2.1082,2.1109,2.1109,2.1109,2.1109,2.1109,2.1109,2.1109,2.1109,2.1109,2.1109,2.1109,2.1109,2.1109,2.1109,2.1109,2.1109,2.1109,2.1109,1.9483,1.8512,1.8512,1.5913,1.4036,1.3325,1.163,1.0717,1.0717,1.0717,1.0717,1.0717,1.0717,1.0717,1.0717,1.0717,1.0717,1.5758,1.5873,1.5459,1.3709,1.3215,1.2669,1.0939,1.0473,1.0419,1.048,1.0412,0.0,0.0,0.0,0.8322,0.7852,0.0,0.5935,0.5485,0.4292,0.2766,0.096,0.0277,0.0,0.0,0.1622,0.3952,0.7066,1.0543,1.4021,1.7591,1.9419,2.0589,2.1109,2.1109,2.0526,1.9215,1.8697,1.8372,1.83,1.6183,1.5206,1.5192,1.3586,1.2126,1.083,1.0695,1.0517,1.0297,1.012,0.9963,0.9978,1.0393,1.0642,1.071,1.006,1.0497,1.1441,1.204,1.2793,1.3994,1.6738,1.8512,1.9533,1.9733,1.992,2.012,2.0454,2.0668,2.0775,2.0695,2.0895,2.1056,2.0842,2.0962,2.1109,2.1109,2.1109,2.1109,2.1109,2.1109,2.1109,2.1109,2.1109,2.1109,2.1109,2.1109,2.1109,2.1109,2.1109,2.1109,2.1109,2.1109,2.1109,2.1109,1.9088,1.7409,1.6431,1.397,1.261,1.261,1.1372,1.0717,1.0717,1.0717,1.0717,1.0717,1.0717,1.0717,1.0717,1.0717,1.0717,1.5536,1.5687,1.5459,1.3709,1.3316,1.2857,1.1101,1.0711,1.0663,1.0521,1.0487,1.0446,1.031,1.0283,0.9678,0.8052,0.7742,0.0,0.0,0.5362,0.465,0.2805,0.1099,0.0,0.0,0.1614,0.3488,0.5362,0.8728,1.2211,1.5784,1.7667,1.9355,2.1046,2.1109,2.1046,2.1046,1.9097,1.8765,2.0045,1.6497,1.5534,1.6844,1.5252,1.3655,1.2122,1.2236,1.1371,0.9856,0.993,0.9903,0.9964,1.1808,1.2659,1.2561,1.071,1.2057,1.4628,1.2979,1.4349,1.7149,1.8765,1.9559,1.9786,1.98,2.0201,2.0588,2.0321,2.0655,2.1029,2.0748,2.0895,2.1109,2.1096,2.1096,2.1109,2.1109,2.1109,2.1109,2.1109,2.1109,2.1109,2.1109,2.1109,2.1109,2.1109,2.1109,2.1109,2.1109,2.1109,2.1109,2.1109,2.1109,2.1109,2.1109,1.7988,1.4558,1.1174,1.085,1.0784,1.0784,1.0717,1.0717,1.0717,1.0717,1.0717,1.0717,1.0717,1.0717,1.0717,1.0717,1.0717,1.895,1.9146,1.8896,1.7216,1.6754,1.6302,1.4558,1.4166,1.3822,1.2596,1.2326,1.1984,1.0771,1.0568,1.0392,0.9839,0.9714,0.9528,0.0,0.6902,0.4702,0.2905,0.1083,0.0,0.0,0.0538,0.168,0.3488,0.6867,0.9899,1.2277,1.5171,1.7602,1.9355,1.8244,1.7667,1.7667,1.7,1.6698,1.6741,1.6725,1.6227,1.5429,1.5961,1.4799,1.2334,1.2275,1.1987,1.1425,1.0346,1.0472,1.1458,1.2298,1.4071,1.599,1.4247,1.428,1.5248,1.5582,1.7111,1.8957,1.9688,2.0,2.008,2.008,2.0361,2.0655,2.0548,2.0802,2.1042,2.0748,2.0748,2.0775,2.0575,2.0681,2.0828,2.0828,2.0975,2.1109,2.1109,2.1109,2.1109,2.1109,2.1109,2.1109,2.1109,2.1109,2.1109,2.1109,2.1109,2.1109,2.1109,2.1109,2.1109,2.1109,1.7923,1.4874,1.2545,1.1372,1.0717,1.0717,1.0717,1.0717,1.0717,1.0717,1.0717,1.0717,1.0717,1.0717,1.0717,1.0717,1.0717,2.0361,2.0575,2.0378,1.8728,1.8371,1.7949,1.6291,1.5913,1.5589,1.4493,1.4232,1.3709,1.196,1.163,1.1439,1.0784,1.0717,1.0717,0.0,0.7636,0.4961,0.3823,0.1478,0.0,0.0,0.0,0.0738,0.2533,0.537,0.8065,1.0489,1.3893,1.6347,1.7538,1.7076,1.6496,1.5913,1.5913,1.5987,1.6127,1.6538,1.6663,1.6451,1.6832,1.592,1.4016,1.3343,1.2768,1.2264,1.1126,1.1253,1.2354,1.3742,1.5735,1.7547,1.6041,1.5814,1.6411,1.7913,1.9082,1.9973,2.0054,2.0147,2.0167,2.0167,2.0361,2.0561,2.0775,2.0815,2.0775,2.0695,2.0601,2.0494,2.0414,2.0535,2.0708,2.0802,2.0975,2.1109,2.1109,2.1109,2.1109,2.1109,2.1109,2.1109,2.1109,2.1109,2.1109,2.1109,2.1109,2.1109,2.1109,2.1109,2.0856,2.0259,1.8116,1.5848,1.3456,1.2215,1.1372,1.0717,1.0717,1.0772,1.0873,1.0772,1.0772,1.088,1.0772,1.0717,1.0717,1.0717,1.0717]}]]